<?xml version="1.0" encoding="UTF-8" standalone="no" ?>
<gpx xmlns="http://www.topografix.com/GPX/1/1" creator="MapSource 6.16.3" version="1.1" xmlns:xsi="http://www.w3.org/2001/XMLSchema-instance" xsi:schemaLocation="http://www.topografix.com/GPX/1/1 http://www.topografix.com/GPX/1/1/gpx.xsd">

  <metadata>
    <link href="http://www.garmin.com">
      <text>Garmin International</text>
    </link>
    <time>2016-09-15T12:52:18Z</time>
    <bounds maxlat="44.801666736602783" maxlon="9.20154333114624" minlat="44.672920703887939" minlon="8.930768966674805"/>
  </metadata>

  <trk>
    <name>ACTIVE LOG</name>
    <trkseg>
      <trkpt lat="44.798898696899414" lon="8.930768966674805">
        <ele>403.89111328125</ele>
        <time>2005-09-23T06:31:37Z</time>
      </trkpt>
      <trkpt lat="44.798877239227295" lon="8.930811882019043">
        <ele>389.951904296875</ele>
        <time>2005-09-23T06:32:56Z</time>
      </trkpt>
      <trkpt lat="44.798855781555176" lon="8.931005001068115">
        <ele>389.951904296875</ele>
        <time>2005-09-23T06:33:03Z</time>
      </trkpt>
      <trkpt lat="44.798920154571533" lon="8.931198120117188">
        <ele>391.87451171875</ele>
        <time>2005-09-23T06:33:13Z</time>
      </trkpt>
      <trkpt lat="44.798984527587891" lon="8.931412696838379">
        <ele>393.7972412109375</ele>
        <time>2005-09-23T06:33:25Z</time>
      </trkpt>
      <trkpt lat="44.799048900604248" lon="8.93162727355957">
        <ele>395.7198486328125</ele>
        <time>2005-09-23T06:33:36Z</time>
      </trkpt>
      <trkpt lat="44.799134731292725" lon="8.931798934936523">
        <ele>397.6424560546875</ele>
        <time>2005-09-23T06:33:46Z</time>
      </trkpt>
      <trkpt lat="44.799263477325439" lon="8.931906223297119">
        <ele>399.0843505859375</ele>
        <time>2005-09-23T06:33:57Z</time>
      </trkpt>
      <trkpt lat="44.799435138702393" lon="8.932013511657715">
        <ele>401.48779296875</ele>
        <time>2005-09-23T06:34:10Z</time>
      </trkpt>
      <trkpt lat="44.799649715423584" lon="8.932120800018311">
        <ele>403.410400390625</ele>
        <time>2005-09-23T06:34:24Z</time>
      </trkpt>
      <trkpt lat="44.799842834472656" lon="8.932228088378906">
        <ele>405.813720703125</ele>
        <time>2005-09-23T06:34:39Z</time>
      </trkpt>
      <trkpt lat="44.800035953521729" lon="8.932335376739502">
        <ele>408.217041015625</ele>
        <time>2005-09-23T06:34:53Z</time>
      </trkpt>
      <trkpt lat="44.800207614898682" lon="8.932464122772217">
        <ele>411.1009521484375</ele>
        <time>2005-09-23T06:35:06Z</time>
      </trkpt>
      <trkpt lat="44.800314903259277" lon="8.93263578414917">
        <ele>412.5428466796875</ele>
        <time>2005-09-23T06:35:18Z</time>
      </trkpt>
      <trkpt lat="44.800314903259277" lon="8.932657241821289">
        <ele>413.0235595703125</ele>
        <time>2005-09-23T06:35:19Z</time>
      </trkpt>
      <trkpt lat="44.800336360931396" lon="8.932828903198242">
        <ele>413.98486328125</ele>
        <time>2005-09-23T06:35:27Z</time>
      </trkpt>
      <trkpt lat="44.800336360931396" lon="8.93312931060791">
        <ele>415.4268798828125</ele>
        <time>2005-09-23T06:35:41Z</time>
      </trkpt>
      <trkpt lat="44.800293445587158" lon="8.933408260345459">
        <ele>417.349609375</ele>
        <time>2005-09-23T06:35:54Z</time>
      </trkpt>
      <trkpt lat="44.800314903259277" lon="8.933558464050293">
        <ele>418.79150390625</ele>
        <time>2005-09-23T06:36:02Z</time>
      </trkpt>
      <trkpt lat="44.800314903259277" lon="8.933601379394531">
        <ele>418.310791015625</ele>
        <time>2005-09-23T06:36:08Z</time>
      </trkpt>
      <trkpt lat="44.800314903259277" lon="8.933601379394531">
        <ele>415.907470703125</ele>
        <time>2005-09-23T06:37:19Z</time>
      </trkpt>
      <trkpt lat="44.800379276275635" lon="8.933687210083008">
        <ele>416.868896484375</ele>
        <time>2005-09-23T06:37:25Z</time>
      </trkpt>
      <trkpt lat="44.800572395324707" lon="8.933944702148438">
        <ele>420.714111328125</ele>
        <time>2005-09-23T06:37:36Z</time>
      </trkpt>
      <trkpt lat="44.800808429718018" lon="8.934245109558106">
        <ele>425.0401611328125</ele>
        <time>2005-09-23T06:37:51Z</time>
      </trkpt>
      <trkpt lat="44.801065921783447" lon="8.934545516967773">
        <ele>428.4046630859375</ele>
        <time>2005-09-23T06:38:07Z</time>
      </trkpt>
      <trkpt lat="44.801301956176758" lon="8.934760093688965">
        <ele>431.28857421875</ele>
        <time>2005-09-23T06:38:21Z</time>
      </trkpt>
      <trkpt lat="44.801516532897949" lon="8.934953212738037">
        <ele>433.2113037109375</ele>
        <time>2005-09-23T06:38:34Z</time>
      </trkpt>
      <trkpt lat="44.801666736602783" lon="8.935189247131348">
        <ele>434.6533203125</ele>
        <time>2005-09-23T06:38:47Z</time>
      </trkpt>
      <trkpt lat="44.801645278930664" lon="8.935446739196777">
        <ele>436.09521484375</ele>
        <time>2005-09-23T06:38:57Z</time>
      </trkpt>
      <trkpt lat="44.801559448242188" lon="8.935747146606445">
        <ele>437.537109375</ele>
        <time>2005-09-23T06:39:10Z</time>
      </trkpt>
      <trkpt lat="44.801452159881592" lon="8.936004638671875">
        <ele>438.017822265625</ele>
        <time>2005-09-23T06:39:21Z</time>
      </trkpt>
      <trkpt lat="44.801280498504639" lon="8.936154842376709">
        <ele>440.4212646484375</ele>
        <time>2005-09-23T06:39:32Z</time>
      </trkpt>
      <trkpt lat="44.801065921783447" lon="8.936197757720947">
        <ele>441.3824462890625</ele>
        <time>2005-09-23T06:39:44Z</time>
      </trkpt>
      <trkpt lat="44.800829887390137" lon="8.936219215393066">
        <ele>441.8631591796875</ele>
        <time>2005-09-23T06:39:57Z</time>
      </trkpt>
      <trkpt lat="44.800679683685303" lon="8.9363694190979">
        <ele>441.8631591796875</ele>
        <time>2005-09-23T06:40:06Z</time>
      </trkpt>
      <trkpt lat="44.80048656463623" lon="8.936669826507568">
        <ele>441.8631591796875</ele>
        <time>2005-09-23T06:40:21Z</time>
      </trkpt>
      <trkpt lat="44.800314903259277" lon="8.936948776245117">
        <ele>441.8631591796875</ele>
        <time>2005-09-23T06:40:32Z</time>
      </trkpt>
      <trkpt lat="44.800121784210205" lon="8.936841487884522">
        <ele>441.3824462890625</ele>
        <time>2005-09-23T06:40:38Z</time>
      </trkpt>
      <trkpt lat="44.799885749816895" lon="8.936605453491211">
        <ele>441.8631591796875</ele>
        <time>2005-09-23T06:40:48Z</time>
      </trkpt>
      <trkpt lat="44.799628257751465" lon="8.936455249786377">
        <ele>443.3050537109375</ele>
        <time>2005-09-23T06:40:58Z</time>
      </trkpt>
      <trkpt lat="44.799456596374512" lon="8.936541080474854">
        <ele>444.2664794921875</ele>
        <time>2005-09-23T06:41:05Z</time>
      </trkpt>
      <trkpt lat="44.799370765686035" lon="8.936777114868164">
        <ele>443.3050537109375</ele>
        <time>2005-09-23T06:41:12Z</time>
      </trkpt>
      <trkpt lat="44.799327850341797" lon="8.937335014343262">
        <ele>441.8631591796875</ele>
        <time>2005-09-23T06:41:23Z</time>
      </trkpt>
      <trkpt lat="44.79924201965332" lon="8.937914371490479">
        <ele>440.4212646484375</ele>
        <time>2005-09-23T06:41:34Z</time>
      </trkpt>
      <trkpt lat="44.799199104309082" lon="8.938064575195313">
        <ele>439.9404296875</ele>
        <time>2005-09-23T06:41:37Z</time>
      </trkpt>
      <trkpt lat="44.799027442932129" lon="8.938043117523193">
        <ele>439.459716796875</ele>
        <time>2005-09-23T06:41:42Z</time>
      </trkpt>
      <trkpt lat="44.79900598526001" lon="8.938021659851074">
        <ele>439.9404296875</ele>
        <time>2005-09-23T06:41:43Z</time>
      </trkpt>
      <trkpt lat="44.798791408538818" lon="8.937721252441406">
        <ele>441.3824462890625</ele>
        <time>2005-09-23T06:41:54Z</time>
      </trkpt>
      <trkpt lat="44.798641204833984" lon="8.937807083129883">
        <ele>440.90185546875</ele>
        <time>2005-09-23T06:41:59Z</time>
      </trkpt>
      <trkpt lat="44.798426628112793" lon="8.938086032867432">
        <ele>440.90185546875</ele>
        <time>2005-09-23T06:42:07Z</time>
      </trkpt>
      <trkpt lat="44.798169136047363" lon="8.938450813293457">
        <ele>441.8631591796875</ele>
        <time>2005-09-23T06:42:18Z</time>
      </trkpt>
      <trkpt lat="44.798061847686768" lon="8.938922882080078">
        <ele>440.90185546875</ele>
        <time>2005-09-23T06:42:29Z</time>
      </trkpt>
      <trkpt lat="44.797954559326172" lon="8.939394950866699">
        <ele>442.3438720703125</ele>
        <time>2005-09-23T06:42:41Z</time>
      </trkpt>
      <trkpt lat="44.797825813293457" lon="8.940017223358154">
        <ele>444.2664794921875</ele>
        <time>2005-09-23T06:42:57Z</time>
      </trkpt>
      <trkpt lat="44.797654151916504" lon="8.940317630767822">
        <ele>445.7083740234375</ele>
        <time>2005-09-23T06:43:06Z</time>
      </trkpt>
      <trkpt lat="44.797332286834717" lon="8.940768241882324">
        <ele>447.1502685546875</ele>
        <time>2005-09-23T06:43:20Z</time>
      </trkpt>
      <trkpt lat="44.796946048736572" lon="8.941347599029541">
        <ele>447.6309814453125</ele>
        <time>2005-09-23T06:43:36Z</time>
      </trkpt>
      <trkpt lat="44.796731472015381" lon="8.941712379455566">
        <ele>447.6309814453125</ele>
        <time>2005-09-23T06:43:46Z</time>
      </trkpt>
      <trkpt lat="44.796602725982666" lon="8.942291736602783">
        <ele>449.5537109375</ele>
        <time>2005-09-23T06:43:59Z</time>
      </trkpt>
      <trkpt lat="44.796581268310547" lon="8.942828178405762">
        <ele>450.99560546875</ele>
        <time>2005-09-23T06:44:12Z</time>
      </trkpt>
      <trkpt lat="44.796602725982666" lon="8.943407535552979">
        <ele>449.072998046875</ele>
        <time>2005-09-23T06:44:27Z</time>
      </trkpt>
      <trkpt lat="44.796602725982666" lon="8.943450450897217">
        <ele>448.11181640625</ele>
        <time>2005-09-23T06:44:28Z</time>
      </trkpt>
      <trkpt lat="44.796516895294189" lon="8.944094181060791">
        <ele>447.1502685546875</ele>
        <time>2005-09-23T06:44:38Z</time>
      </trkpt>
      <trkpt lat="44.796431064605713" lon="8.944458961486816">
        <ele>448.5924072265625</ele>
        <time>2005-09-23T06:44:46Z</time>
      </trkpt>
      <trkpt lat="44.796323776245117" lon="8.944823741912842">
        <ele>452.4376220703125</ele>
        <time>2005-09-23T06:44:56Z</time>
      </trkpt>
      <trkpt lat="44.796195030212402" lon="8.945274353027344">
        <ele>453.39892578125</ele>
        <time>2005-09-23T06:45:09Z</time>
      </trkpt>
      <trkpt lat="44.796216487884521" lon="8.945682048797607">
        <ele>455.321533203125</ele>
        <time>2005-09-23T06:45:21Z</time>
      </trkpt>
      <trkpt lat="44.796302318572998" lon="8.946068286895752">
        <ele>456.282958984375</ele>
        <time>2005-09-23T06:45:33Z</time>
      </trkpt>
      <trkpt lat="44.796345233917236" lon="8.946175575256348">
        <ele>455.80224609375</ele>
        <time>2005-09-23T06:45:36Z</time>
      </trkpt>
      <trkpt lat="44.796473979949951" lon="8.946647644042969">
        <ele>453.39892578125</ele>
        <time>2005-09-23T06:45:42Z</time>
      </trkpt>
      <trkpt lat="44.796516895294189" lon="8.947162628173828">
        <ele>453.39892578125</ele>
        <time>2005-09-23T06:45:48Z</time>
      </trkpt>
      <trkpt lat="44.796323776245117" lon="8.947570323944092">
        <ele>453.39892578125</ele>
        <time>2005-09-23T06:45:56Z</time>
      </trkpt>
      <trkpt lat="44.796280860900879" lon="8.947634696960449">
        <ele>452.918212890625</ele>
        <time>2005-09-23T06:45:57Z</time>
      </trkpt>
      <trkpt lat="44.795937538146973" lon="8.947999477386475">
        <ele>452.4376220703125</ele>
        <time>2005-09-23T06:46:04Z</time>
      </trkpt>
      <trkpt lat="44.79576587677002" lon="8.948042392730713">
        <ele>451.95703125</ele>
        <time>2005-09-23T06:46:07Z</time>
      </trkpt>
      <trkpt lat="44.795379638671875" lon="8.948149681091309">
        <ele>454.3602294921875</ele>
        <time>2005-09-23T06:46:16Z</time>
      </trkpt>
      <trkpt lat="44.795143604278564" lon="8.948385715484619">
        <ele>455.80224609375</ele>
        <time>2005-09-23T06:46:24Z</time>
      </trkpt>
      <trkpt lat="44.794886112213135" lon="8.948600292205811">
        <ele>459.6475830078125</ele>
        <time>2005-09-23T06:46:33Z</time>
      </trkpt>
      <trkpt lat="44.794628620147705" lon="8.94862174987793">
        <ele>459.6475830078125</ele>
        <time>2005-09-23T06:46:41Z</time>
      </trkpt>
      <trkpt lat="44.794285297393799" lon="8.948600292205811">
        <ele>459.6475830078125</ele>
        <time>2005-09-23T06:46:52Z</time>
      </trkpt>
      <trkpt lat="44.793920516967773" lon="8.948643207550049">
        <ele>459.1668701171875</ele>
        <time>2005-09-23T06:47:04Z</time>
      </trkpt>
      <trkpt lat="44.793770313262939" lon="8.948664665222168">
        <ele>458.20556640625</ele>
        <time>2005-09-23T06:47:07Z</time>
      </trkpt>
      <trkpt lat="44.793641567230225" lon="8.948814868927002">
        <ele>456.7635498046875</ele>
        <time>2005-09-23T06:47:11Z</time>
      </trkpt>
      <trkpt lat="44.793727397918701" lon="8.949093818664551">
        <ele>455.80224609375</ele>
        <time>2005-09-23T06:47:14Z</time>
      </trkpt>
      <trkpt lat="44.793899059295654" lon="8.949716091156006">
        <ele>451.95703125</ele>
        <time>2005-09-23T06:47:20Z</time>
      </trkpt>
      <trkpt lat="44.794027805328369" lon="8.950488567352295">
        <ele>443.3050537109375</ele>
        <time>2005-09-23T06:47:28Z</time>
      </trkpt>
      <trkpt lat="44.794070720672607" lon="8.950660228729248">
        <ele>441.3824462890625</ele>
        <time>2005-09-23T06:47:30Z</time>
      </trkpt>
      <trkpt lat="44.79400634765625" lon="8.951025009155273">
        <ele>438.9791259765625</ele>
        <time>2005-09-23T06:47:34Z</time>
      </trkpt>
      <trkpt lat="44.793834686279297" lon="8.951497077941895">
        <ele>438.49853515625</ele>
        <time>2005-09-23T06:47:39Z</time>
      </trkpt>
      <trkpt lat="44.793770313262939" lon="8.951797485351563">
        <ele>441.3824462890625</ele>
        <time>2005-09-23T06:47:44Z</time>
      </trkpt>
      <trkpt lat="44.793705940246582" lon="8.952097892761231">
        <ele>441.8631591796875</ele>
        <time>2005-09-23T06:47:53Z</time>
      </trkpt>
      <trkpt lat="44.793620109558105" lon="8.952269554138184">
        <ele>442.824462890625</ele>
        <time>2005-09-23T06:48:03Z</time>
      </trkpt>
      <trkpt lat="44.793598651885986" lon="8.952269554138184">
        <ele>442.824462890625</ele>
        <time>2005-09-23T06:48:04Z</time>
      </trkpt>
      <trkpt lat="44.79351282119751" lon="8.95235538482666">
        <ele>443.7857666015625</ele>
        <time>2005-09-23T06:48:13Z</time>
      </trkpt>
      <trkpt lat="44.793426990509033" lon="8.952441215515137">
        <ele>445.2276611328125</ele>
        <time>2005-09-23T06:48:22Z</time>
      </trkpt>
      <trkpt lat="44.793341159820557" lon="8.952527046203613">
        <ele>446.1890869140625</ele>
        <time>2005-09-23T06:48:31Z</time>
      </trkpt>
      <trkpt lat="44.79325532913208" lon="8.95261287689209">
        <ele>446.669677734375</ele>
        <time>2005-09-23T06:48:39Z</time>
      </trkpt>
      <trkpt lat="44.793190956115723" lon="8.952677249908447">
        <ele>448.5924072265625</ele>
        <time>2005-09-23T06:48:48Z</time>
      </trkpt>
      <trkpt lat="44.793169498443604" lon="8.952677249908447">
        <ele>449.072998046875</ele>
        <time>2005-09-23T06:48:50Z</time>
      </trkpt>
      <trkpt lat="44.793040752410889" lon="8.952784538269043">
        <ele>449.5537109375</ele>
        <time>2005-09-23T06:49:02Z</time>
      </trkpt>
      <trkpt lat="44.792954921722412" lon="8.95287036895752">
        <ele>450.034423828125</ele>
        <time>2005-09-23T06:49:11Z</time>
      </trkpt>
      <trkpt lat="44.792869091033936" lon="8.952999114990234">
        <ele>450.5150146484375</ele>
        <time>2005-09-23T06:49:22Z</time>
      </trkpt>
      <trkpt lat="44.792804718017578" lon="8.953149318695068">
        <ele>449.5537109375</ele>
        <time>2005-09-23T06:49:32Z</time>
      </trkpt>
      <trkpt lat="44.792718887329102" lon="8.953385353088379">
        <ele>446.669677734375</ele>
        <time>2005-09-23T06:49:39Z</time>
      </trkpt>
      <trkpt lat="44.792568683624268" lon="8.953857421875">
        <ele>442.824462890625</ele>
        <time>2005-09-23T06:49:46Z</time>
      </trkpt>
      <trkpt lat="44.79250431060791" lon="8.954329490661621">
        <ele>441.3824462890625</ele>
        <time>2005-09-23T06:49:50Z</time>
      </trkpt>
      <trkpt lat="44.792332649230957" lon="8.954780101776123">
        <ele>439.9404296875</ele>
        <time>2005-09-23T06:49:55Z</time>
      </trkpt>
      <trkpt lat="44.792225360870361" lon="8.954973220825195">
        <ele>440.4212646484375</ele>
        <time>2005-09-23T06:49:59Z</time>
      </trkpt>
      <trkpt lat="44.792139530181885" lon="8.955144882202148">
        <ele>441.3824462890625</ele>
        <time>2005-09-23T06:50:05Z</time>
      </trkpt>
      <trkpt lat="44.791989326477051" lon="8.95535945892334">
        <ele>443.3050537109375</ele>
        <time>2005-09-23T06:50:16Z</time>
      </trkpt>
      <trkpt lat="44.791796207427979" lon="8.955466747283936">
        <ele>444.7470703125</ele>
        <time>2005-09-23T06:50:30Z</time>
      </trkpt>
      <trkpt lat="44.791688919067383" lon="8.955509662628174">
        <ele>445.7083740234375</ele>
        <time>2005-09-23T06:50:39Z</time>
      </trkpt>
      <trkpt lat="44.791495800018311" lon="8.955552577972412">
        <ele>449.072998046875</ele>
        <time>2005-09-23T06:50:53Z</time>
      </trkpt>
      <trkpt lat="44.791324138641357" lon="8.955552577972412">
        <ele>451.476318359375</ele>
        <time>2005-09-23T06:51:07Z</time>
      </trkpt>
      <trkpt lat="44.791173934936523" lon="8.955531120300293">
        <ele>452.918212890625</ele>
        <time>2005-09-23T06:51:17Z</time>
      </trkpt>
      <trkpt lat="44.79100227355957" lon="8.955509662628174">
        <ele>454.8408203125</ele>
        <time>2005-09-23T06:51:30Z</time>
      </trkpt>
      <trkpt lat="44.790852069854736" lon="8.955509662628174">
        <ele>456.282958984375</ele>
        <time>2005-09-23T06:51:40Z</time>
      </trkpt>
      <trkpt lat="44.790658950805664" lon="8.955531120300293">
        <ele>459.1668701171875</ele>
        <time>2005-09-23T06:51:53Z</time>
      </trkpt>
      <trkpt lat="44.790422916412354" lon="8.955659866333008">
        <ele>459.6475830078125</ele>
        <time>2005-09-23T06:52:07Z</time>
      </trkpt>
      <trkpt lat="44.790122509002686" lon="8.955788612365723">
        <ele>457.7249755859375</ele>
        <time>2005-09-23T06:52:21Z</time>
      </trkpt>
      <trkpt lat="44.789886474609375" lon="8.955724239349365">
        <ele>455.80224609375</ele>
        <time>2005-09-23T06:52:31Z</time>
      </trkpt>
      <trkpt lat="44.789671897888184" lon="8.955681324005127">
        <ele>455.80224609375</ele>
        <time>2005-09-23T06:52:40Z</time>
      </trkpt>
      <trkpt lat="44.789650440216064" lon="8.955702781677246">
        <ele>455.80224609375</ele>
        <time>2005-09-23T06:52:41Z</time>
      </trkpt>
      <trkpt lat="44.789693355560303" lon="8.955788612365723">
        <ele>456.282958984375</ele>
        <time>2005-09-23T06:52:46Z</time>
      </trkpt>
      <trkpt lat="44.789907932281494" lon="8.955917358398438">
        <ele>458.20556640625</ele>
        <time>2005-09-23T06:52:58Z</time>
      </trkpt>
      <trkpt lat="44.790122509002686" lon="8.956003189086914">
        <ele>463.4927978515625</ele>
        <time>2005-09-23T06:53:11Z</time>
      </trkpt>
      <trkpt lat="44.7902512550354" lon="8.956024646759033">
        <ele>466.857421875</ele>
        <time>2005-09-23T06:53:21Z</time>
      </trkpt>
      <trkpt lat="44.790422916412354" lon="8.95611047744751">
        <ele>470.221923828125</ele>
        <time>2005-09-23T06:53:34Z</time>
      </trkpt>
      <trkpt lat="44.790530204772949" lon="8.956196308135986">
        <ele>474.5479736328125</ele>
        <time>2005-09-23T06:53:44Z</time>
      </trkpt>
      <trkpt lat="44.790551662445068" lon="8.956282138824463">
        <ele>475.0286865234375</ele>
        <time>2005-09-23T06:53:49Z</time>
      </trkpt>
      <trkpt lat="44.79050874710083" lon="8.956496715545654">
        <ele>475.9898681640625</ele>
        <time>2005-09-23T06:54:02Z</time>
      </trkpt>
      <trkpt lat="44.790465831756592" lon="8.956689834594727">
        <ele>476.9512939453125</ele>
        <time>2005-09-23T06:54:14Z</time>
      </trkpt>
      <trkpt lat="44.790358543395996" lon="8.956904411315918">
        <ele>477.431884765625</ele>
        <time>2005-09-23T06:54:28Z</time>
      </trkpt>
      <trkpt lat="44.79027271270752" lon="8.957054615020752">
        <ele>478.3931884765625</ele>
        <time>2005-09-23T06:54:37Z</time>
      </trkpt>
      <trkpt lat="44.790229797363281" lon="8.957290649414063">
        <ele>480.31591796875</ele>
        <time>2005-09-23T06:54:51Z</time>
      </trkpt>
      <trkpt lat="44.790186882019043" lon="8.957526683807373">
        <ele>482.71923828125</ele>
        <time>2005-09-23T06:55:07Z</time>
      </trkpt>
      <trkpt lat="44.790186882019043" lon="8.957741260528565">
        <ele>485.1224365234375</ele>
        <time>2005-09-23T06:55:22Z</time>
      </trkpt>
      <trkpt lat="44.790208339691162" lon="8.95784854888916">
        <ele>487.525634765625</ele>
        <time>2005-09-23T06:55:30Z</time>
      </trkpt>
      <trkpt lat="44.790208339691162" lon="8.957934379577637">
        <ele>489.4483642578125</ele>
        <time>2005-09-23T06:55:40Z</time>
      </trkpt>
      <trkpt lat="44.790208339691162" lon="8.958020210266113">
        <ele>491.3709716796875</ele>
        <time>2005-09-23T06:55:52Z</time>
      </trkpt>
      <trkpt lat="44.790208339691162" lon="8.95810604095459">
        <ele>491.3709716796875</ele>
        <time>2005-09-23T06:56:02Z</time>
      </trkpt>
      <trkpt lat="44.790208339691162" lon="8.958170413970947">
        <ele>491.8516845703125</ele>
        <time>2005-09-23T06:56:13Z</time>
      </trkpt>
      <trkpt lat="44.790186882019043" lon="8.958084583282471">
        <ele>499.542236328125</ele>
        <time>2005-09-23T06:57:05Z</time>
      </trkpt>
      <trkpt lat="44.790186882019043" lon="8.958170413970947">
        <ele>492.81298828125</ele>
        <time>2005-09-23T06:57:47Z</time>
      </trkpt>
      <trkpt lat="44.790165424346924" lon="8.958234786987305">
        <ele>492.81298828125</ele>
        <time>2005-09-23T06:57:56Z</time>
      </trkpt>
      <trkpt lat="44.790143966674805" lon="8.958427906036377">
        <ele>494.2550048828125</ele>
        <time>2005-09-23T06:58:11Z</time>
      </trkpt>
      <trkpt lat="44.790122509002686" lon="8.958535194396973">
        <ele>494.735595703125</ele>
        <time>2005-09-23T06:58:21Z</time>
      </trkpt>
      <trkpt lat="44.790122509002686" lon="8.958663940429688">
        <ele>494.735595703125</ele>
        <time>2005-09-23T06:58:32Z</time>
      </trkpt>
      <trkpt lat="44.790101051330566" lon="8.958792686462402">
        <ele>496.177734375</ele>
        <time>2005-09-23T06:58:44Z</time>
      </trkpt>
      <trkpt lat="44.790079593658447" lon="8.95885705947876">
        <ele>497.138916015625</ele>
        <time>2005-09-23T06:58:50Z</time>
      </trkpt>
      <trkpt lat="44.79001522064209" lon="8.959007263183594">
        <ele>499.542236328125</ele>
        <time>2005-09-23T06:59:04Z</time>
      </trkpt>
      <trkpt lat="44.789993762969971" lon="8.959136009216309">
        <ele>501.46484375</ele>
        <time>2005-09-23T06:59:16Z</time>
      </trkpt>
      <trkpt lat="44.789993762969971" lon="8.959178924560547">
        <ele>501.945556640625</ele>
        <time>2005-09-23T06:59:20Z</time>
      </trkpt>
      <trkpt lat="44.790101051330566" lon="8.959243297576904">
        <ele>503.8681640625</ele>
        <time>2005-09-23T06:59:33Z</time>
      </trkpt>
      <trkpt lat="44.790208339691162" lon="8.959243297576904">
        <ele>506.271484375</ele>
        <time>2005-09-23T06:59:45Z</time>
      </trkpt>
      <trkpt lat="44.790294170379639" lon="8.959307670593262">
        <ele>507.7135009765625</ele>
        <time>2005-09-23T06:59:56Z</time>
      </trkpt>
      <trkpt lat="44.790337085723877" lon="8.959436416625977">
        <ele>509.1553955078125</ele>
        <time>2005-09-23T07:00:08Z</time>
      </trkpt>
      <trkpt lat="44.790337085723877" lon="8.959565162658691">
        <ele>509.6361083984375</ele>
        <time>2005-09-23T07:00:20Z</time>
      </trkpt>
      <trkpt lat="44.790294170379639" lon="8.959736824035645">
        <ele>510.5972900390625</ele>
        <time>2005-09-23T07:00:35Z</time>
      </trkpt>
      <trkpt lat="44.7902512550354" lon="8.959865570068359">
        <ele>511.5587158203125</ele>
        <time>2005-09-23T07:00:47Z</time>
      </trkpt>
      <trkpt lat="44.7902512550354" lon="8.960015773773193">
        <ele>512.52001953125</ele>
        <time>2005-09-23T07:01:01Z</time>
      </trkpt>
      <trkpt lat="44.790229797363281" lon="8.960165977478027">
        <ele>513.9620361328125</ele>
        <time>2005-09-23T07:01:15Z</time>
      </trkpt>
      <trkpt lat="44.790229797363281" lon="8.960316181182861">
        <ele>517.32666015625</ele>
        <time>2005-09-23T07:01:30Z</time>
      </trkpt>
      <trkpt lat="44.790208339691162" lon="8.960466384887695">
        <ele>520.6912841796875</ele>
        <time>2005-09-23T07:01:43Z</time>
      </trkpt>
      <trkpt lat="44.790208339691162" lon="8.960616588592529">
        <ele>522.6138916015625</ele>
        <time>2005-09-23T07:01:56Z</time>
      </trkpt>
      <trkpt lat="44.790208339691162" lon="8.960723876953125">
        <ele>525.9783935546875</ele>
        <time>2005-09-23T07:02:08Z</time>
      </trkpt>
      <trkpt lat="44.790208339691162" lon="8.960895538330078">
        <ele>525.9783935546875</ele>
        <time>2005-09-23T07:02:22Z</time>
      </trkpt>
      <trkpt lat="44.790208339691162" lon="8.961024284362793">
        <ele>528.862548828125</ele>
        <time>2005-09-23T07:02:34Z</time>
      </trkpt>
      <trkpt lat="44.790208339691162" lon="8.961217403411865">
        <ele>527.9010009765625</ele>
        <time>2005-09-23T07:02:49Z</time>
      </trkpt>
      <trkpt lat="44.790186882019043" lon="8.961389064788818">
        <ele>527.9010009765625</ele>
        <time>2005-09-23T07:03:03Z</time>
      </trkpt>
      <trkpt lat="44.790165424346924" lon="8.961560726165772">
        <ele>529.82373046875</ele>
        <time>2005-09-23T07:03:18Z</time>
      </trkpt>
      <trkpt lat="44.790165424346924" lon="8.961710929870606">
        <ele>531.746337890625</ele>
        <time>2005-09-23T07:03:32Z</time>
      </trkpt>
      <trkpt lat="44.790165424346924" lon="8.96186113357544">
        <ele>532.707763671875</ele>
        <time>2005-09-23T07:03:46Z</time>
      </trkpt>
      <trkpt lat="44.790165424346924" lon="8.961989879608154">
        <ele>534.149658203125</ele>
        <time>2005-09-23T07:03:59Z</time>
      </trkpt>
      <trkpt lat="44.790186882019043" lon="8.962161540985107">
        <ele>533.6689453125</ele>
        <time>2005-09-23T07:04:14Z</time>
      </trkpt>
      <trkpt lat="44.790208339691162" lon="8.962290287017822">
        <ele>535.591552734375</ele>
        <time>2005-09-23T07:04:26Z</time>
      </trkpt>
      <trkpt lat="44.790229797363281" lon="8.962440490722656">
        <ele>538.4757080078125</ele>
        <time>2005-09-23T07:04:41Z</time>
      </trkpt>
      <trkpt lat="44.790208339691162" lon="8.962612152099609">
        <ele>540.87890625</ele>
        <time>2005-09-23T07:04:56Z</time>
      </trkpt>
      <trkpt lat="44.790186882019043" lon="8.962740898132324">
        <ele>542.3209228515625</ele>
        <time>2005-09-23T07:05:09Z</time>
      </trkpt>
      <trkpt lat="44.790165424346924" lon="8.962805271148682">
        <ele>542.801513671875</ele>
        <time>2005-09-23T07:05:20Z</time>
      </trkpt>
      <trkpt lat="44.790165424346924" lon="8.96284818649292">
        <ele>543.2821044921875</ele>
        <time>2005-09-23T07:08:38Z</time>
      </trkpt>
      <trkpt lat="44.79027271270752" lon="8.96284818649292">
        <ele>550.011474609375</ele>
        <time>2005-09-23T07:09:41Z</time>
      </trkpt>
      <trkpt lat="44.790122509002686" lon="8.962998390197754">
        <ele>550.011474609375</ele>
        <time>2005-09-23T07:09:55Z</time>
      </trkpt>
      <trkpt lat="44.789993762969971" lon="8.963084220886231">
        <ele>549.53076171875</ele>
        <time>2005-09-23T07:10:09Z</time>
      </trkpt>
      <trkpt lat="44.789843559265137" lon="8.963191509246826">
        <ele>551.453369140625</ele>
        <time>2005-09-23T07:10:23Z</time>
      </trkpt>
      <trkpt lat="44.789693355560303" lon="8.963298797607422">
        <ele>552.41455078125</ele>
        <time>2005-09-23T07:10:39Z</time>
      </trkpt>
      <trkpt lat="44.789564609527588" lon="8.963406085968018">
        <ele>553.3759765625</ele>
        <time>2005-09-23T07:10:55Z</time>
      </trkpt>
      <trkpt lat="44.789478778839111" lon="8.963491916656494">
        <ele>554.81787109375</ele>
        <time>2005-09-23T07:11:04Z</time>
      </trkpt>
      <trkpt lat="44.789392948150635" lon="8.96359920501709">
        <ele>556.74072265625</ele>
        <time>2005-09-23T07:11:15Z</time>
      </trkpt>
      <trkpt lat="44.789285659790039" lon="8.963727951049805">
        <ele>558.663330078125</ele>
        <time>2005-09-23T07:11:25Z</time>
      </trkpt>
      <trkpt lat="44.789156913757324" lon="8.9638352394104">
        <ele>560.105224609375</ele>
        <time>2005-09-23T07:11:37Z</time>
      </trkpt>
      <trkpt lat="44.789049625396729" lon="8.963899612426758">
        <ele>560.5859375</ele>
        <time>2005-09-23T07:11:45Z</time>
      </trkpt>
      <trkpt lat="44.788920879364014" lon="8.964006900787354">
        <ele>562.028076171875</ele>
        <time>2005-09-23T07:11:57Z</time>
      </trkpt>
      <trkpt lat="44.788792133331299" lon="8.964135646820068">
        <ele>562.9892578125</ele>
        <time>2005-09-23T07:12:08Z</time>
      </trkpt>
      <trkpt lat="44.788684844970703" lon="8.964221477508545">
        <ele>564.43115234375</ele>
        <time>2005-09-23T07:12:18Z</time>
      </trkpt>
      <trkpt lat="44.788534641265869" lon="8.964285850524902">
        <ele>566.353759765625</ele>
        <time>2005-09-23T07:12:29Z</time>
      </trkpt>
      <trkpt lat="44.788405895233154" lon="8.964393138885498">
        <ele>567.795654296875</ele>
        <time>2005-09-23T07:12:40Z</time>
      </trkpt>
      <trkpt lat="44.788320064544678" lon="8.964457511901856">
        <ele>568.757080078125</ele>
        <time>2005-09-23T07:12:48Z</time>
      </trkpt>
      <trkpt lat="44.788191318511963" lon="8.96458625793457">
        <ele>569.23779296875</ele>
        <time>2005-09-23T07:13:02Z</time>
      </trkpt>
      <trkpt lat="44.78801965713501" lon="8.96460771560669">
        <ele>569.718505859375</ele>
        <time>2005-09-23T07:13:14Z</time>
      </trkpt>
      <trkpt lat="44.787805080413818" lon="8.96460771560669">
        <ele>571.160400390625</ele>
        <time>2005-09-23T07:13:29Z</time>
      </trkpt>
      <trkpt lat="44.787633419036865" lon="8.964564800262451">
        <ele>571.640869140625</ele>
        <time>2005-09-23T07:13:41Z</time>
      </trkpt>
      <trkpt lat="44.787461757659912" lon="8.964500427246094">
        <ele>573.56396484375</ele>
        <time>2005-09-23T07:13:54Z</time>
      </trkpt>
      <trkpt lat="44.787354469299316" lon="8.964478969573975">
        <ele>575.005859375</ele>
        <time>2005-09-23T07:14:03Z</time>
      </trkpt>
      <trkpt lat="44.78726863861084" lon="8.96460771560669">
        <ele>575.967041015625</ele>
        <time>2005-09-23T07:14:14Z</time>
      </trkpt>
      <trkpt lat="44.787290096282959" lon="8.964800834655762">
        <ele>575.486328125</ele>
        <time>2005-09-23T07:14:21Z</time>
      </trkpt>
      <trkpt lat="44.787440299987793" lon="8.96510124206543">
        <ele>574.04443359375</ele>
        <time>2005-09-23T07:14:28Z</time>
      </trkpt>
      <trkpt lat="44.787461757659912" lon="8.965208530426025">
        <ele>573.083251953125</ele>
        <time>2005-09-23T07:14:30Z</time>
      </trkpt>
      <trkpt lat="44.787290096282959" lon="8.965444564819336">
        <ele>571.640869140625</ele>
        <time>2005-09-23T07:14:35Z</time>
      </trkpt>
      <trkpt lat="44.787225723266602" lon="8.965466022491455">
        <ele>571.160400390625</ele>
        <time>2005-09-23T07:14:36Z</time>
      </trkpt>
      <trkpt lat="44.7867751121521" lon="8.965229988098145">
        <ele>569.23779296875</ele>
        <time>2005-09-23T07:14:43Z</time>
      </trkpt>
      <trkpt lat="44.786431789398193" lon="8.965272903442383">
        <ele>567.315185546875</ele>
        <time>2005-09-23T07:14:48Z</time>
      </trkpt>
      <trkpt lat="44.785830974578857" lon="8.965702056884766">
        <ele>565.392578125</ele>
        <time>2005-09-23T07:14:57Z</time>
      </trkpt>
      <trkpt lat="44.785616397857666" lon="8.9658522605896">
        <ele>565.392578125</ele>
        <time>2005-09-23T07:15:00Z</time>
      </trkpt>
      <trkpt lat="44.785230159759521" lon="8.9658522605896">
        <ele>564.911865234375</ele>
        <time>2005-09-23T07:15:07Z</time>
      </trkpt>
      <trkpt lat="44.784972667694092" lon="8.9658522605896">
        <ele>564.43115234375</ele>
        <time>2005-09-23T07:15:15Z</time>
      </trkpt>
      <trkpt lat="44.784865379333496" lon="8.965916633605957">
        <ele>563.469970703125</ele>
        <time>2005-09-23T07:15:19Z</time>
      </trkpt>
      <trkpt lat="44.784715175628662" lon="8.96634578704834">
        <ele>560.105224609375</ele>
        <time>2005-09-23T07:15:25Z</time>
      </trkpt>
      <trkpt lat="44.784650802612305" lon="8.966517448425293">
        <ele>559.14404296875</ele>
        <time>2005-09-23T07:15:27Z</time>
      </trkpt>
      <trkpt lat="44.784629344940186" lon="8.967053890228272">
        <ele>556.74072265625</ele>
        <time>2005-09-23T07:15:32Z</time>
      </trkpt>
      <trkpt lat="44.784564971923828" lon="8.967719078063965">
        <ele>555.298583984375</ele>
        <time>2005-09-23T07:15:38Z</time>
      </trkpt>
      <trkpt lat="44.784414768218994" lon="8.968276977539063">
        <ele>554.81787109375</ele>
        <time>2005-09-23T07:15:43Z</time>
      </trkpt>
      <trkpt lat="44.784135818481445" lon="8.968555927276611">
        <ele>552.895263671875</ele>
        <time>2005-09-23T07:15:47Z</time>
      </trkpt>
      <trkpt lat="44.783663749694824" lon="8.968749046325684">
        <ele>552.41455078125</ele>
        <time>2005-09-23T07:15:54Z</time>
      </trkpt>
      <trkpt lat="44.783298969268799" lon="8.968813419342041">
        <ele>551.93408203125</ele>
        <time>2005-09-23T07:16:01Z</time>
      </trkpt>
      <trkpt lat="44.782998561859131" lon="8.968877792358398">
        <ele>550.97265625</ele>
        <time>2005-09-23T07:16:09Z</time>
      </trkpt>
      <trkpt lat="44.782826900482178" lon="8.96909236907959">
        <ele>550.4921875</ele>
        <time>2005-09-23T07:16:16Z</time>
      </trkpt>
      <trkpt lat="44.782676696777344" lon="8.969371318817139">
        <ele>550.97265625</ele>
        <time>2005-09-23T07:16:24Z</time>
      </trkpt>
      <trkpt lat="44.782547950744629" lon="8.969650268554688">
        <ele>552.41455078125</ele>
        <time>2005-09-23T07:16:33Z</time>
      </trkpt>
      <trkpt lat="44.782462120056152" lon="8.969886302947998">
        <ele>552.895263671875</ele>
        <time>2005-09-23T07:16:42Z</time>
      </trkpt>
      <trkpt lat="44.782462120056152" lon="8.97007942199707">
        <ele>553.856689453125</ele>
        <time>2005-09-23T07:16:51Z</time>
      </trkpt>
      <trkpt lat="44.782419204711914" lon="8.970293998718262">
        <ele>554.81787109375</ele>
        <time>2005-09-23T07:17:01Z</time>
      </trkpt>
      <trkpt lat="44.782397747039795" lon="8.970487117767334">
        <ele>556.74072265625</ele>
        <time>2005-09-23T07:17:12Z</time>
      </trkpt>
      <trkpt lat="44.782376289367676" lon="8.970637321472168">
        <ele>558.182861328125</ele>
        <time>2005-09-23T07:17:20Z</time>
      </trkpt>
      <trkpt lat="44.782376289367676" lon="8.970808982849121">
        <ele>559.624755859375</ele>
        <time>2005-09-23T07:17:29Z</time>
      </trkpt>
      <trkpt lat="44.782354831695557" lon="8.971045017242432">
        <ele>562.028076171875</ele>
        <time>2005-09-23T07:17:41Z</time>
      </trkpt>
      <trkpt lat="44.782290458679199" lon="8.971259593963623">
        <ele>564.911865234375</ele>
        <time>2005-09-23T07:17:54Z</time>
      </trkpt>
      <trkpt lat="44.782183170318604" lon="8.971259593963623">
        <ele>567.315185546875</ele>
        <time>2005-09-23T07:18:03Z</time>
      </trkpt>
      <trkpt lat="44.782097339630127" lon="8.971152305603027">
        <ele>569.23779296875</ele>
        <time>2005-09-23T07:18:12Z</time>
      </trkpt>
      <trkpt lat="44.78201150894165" lon="8.970980644226074">
        <ele>571.160400390625</ele>
        <time>2005-09-23T07:18:24Z</time>
      </trkpt>
      <trkpt lat="44.781882762908936" lon="8.970894813537598">
        <ele>572.6025390625</ele>
        <time>2005-09-23T07:18:34Z</time>
      </trkpt>
      <trkpt lat="44.78177547454834" lon="8.970959186553955">
        <ele>573.56396484375</ele>
        <time>2005-09-23T07:18:43Z</time>
      </trkpt>
      <trkpt lat="44.781754016876221" lon="8.971045017242432">
        <ele>574.04443359375</ele>
        <time>2005-09-23T07:18:48Z</time>
      </trkpt>
      <trkpt lat="44.78177547454834" lon="8.971195220947266">
        <ele>574.525146484375</ele>
        <time>2005-09-23T07:18:57Z</time>
      </trkpt>
      <trkpt lat="44.781861305236816" lon="8.971323966979981">
        <ele>575.967041015625</ele>
        <time>2005-09-23T07:19:07Z</time>
      </trkpt>
      <trkpt lat="44.781882762908936" lon="8.971388339996338">
        <ele>575.486328125</ele>
        <time>2005-09-23T07:19:11Z</time>
      </trkpt>
      <trkpt lat="44.781904220581055" lon="8.971474170684815">
        <ele>577.4091796875</ele>
        <time>2005-09-23T07:19:20Z</time>
      </trkpt>
      <trkpt lat="44.781904220581055" lon="8.971495628356934">
        <ele>580.29296875</ele>
        <time>2005-09-23T07:20:41Z</time>
      </trkpt>
      <trkpt lat="44.781968593597412" lon="8.971710205078125">
        <ele>582.215576171875</ele>
        <time>2005-09-23T07:20:51Z</time>
      </trkpt>
      <trkpt lat="44.781990051269531" lon="8.971989154815674">
        <ele>582.6962890625</ele>
        <time>2005-09-23T07:21:03Z</time>
      </trkpt>
      <trkpt lat="44.781904220581055" lon="8.972117900848389">
        <ele>585.099609375</ele>
        <time>2005-09-23T07:21:11Z</time>
      </trkpt>
      <trkpt lat="44.781711101531982" lon="8.972117900848389">
        <ele>587.502685546875</ele>
        <time>2005-09-23T07:21:22Z</time>
      </trkpt>
      <trkpt lat="44.78151798248291" lon="8.972032070159912">
        <ele>589.90625</ele>
        <time>2005-09-23T07:21:36Z</time>
      </trkpt>
      <trkpt lat="44.781389236450195" lon="8.971967697143555">
        <ele>591.828857421875</ele>
        <time>2005-09-23T07:21:46Z</time>
      </trkpt>
      <trkpt lat="44.781196117401123" lon="8.971903324127197">
        <ele>594.232177734375</ele>
        <time>2005-09-23T07:21:59Z</time>
      </trkpt>
      <trkpt lat="44.781002998352051" lon="8.97183895111084">
        <ele>595.674072265625</ele>
        <time>2005-09-23T07:22:12Z</time>
      </trkpt>
      <trkpt lat="44.780788421630859" lon="8.971796035766602">
        <ele>597.115966796875</ele>
        <time>2005-09-23T07:22:27Z</time>
      </trkpt>
      <trkpt lat="44.78053092956543" lon="8.971796035766602">
        <ele>598.077392578125</ele>
        <time>2005-09-23T07:22:39Z</time>
      </trkpt>
      <trkpt lat="44.780251979827881" lon="8.971796035766602">
        <ele>596.635498046875</ele>
        <time>2005-09-23T07:22:47Z</time>
      </trkpt>
      <trkpt lat="44.779951572418213" lon="8.971667289733887">
        <ele>593.75146484375</ele>
        <time>2005-09-23T07:22:52Z</time>
      </trkpt>
      <trkpt lat="44.779887199401855" lon="8.971645832061768">
        <ele>593.270751953125</ele>
        <time>2005-09-23T07:22:53Z</time>
      </trkpt>
      <trkpt lat="44.779393672943115" lon="8.971602916717529">
        <ele>589.90625</ele>
        <time>2005-09-23T07:22:59Z</time>
      </trkpt>
      <trkpt lat="44.779071807861328" lon="8.971688747406006">
        <ele>588.945068359375</ele>
        <time>2005-09-23T07:23:03Z</time>
      </trkpt>
      <trkpt lat="44.778578281402588" lon="8.971946239471436">
        <ele>589.90625</ele>
        <time>2005-09-23T07:23:11Z</time>
      </trkpt>
      <trkpt lat="44.778256416320801" lon="8.972117900848389">
        <ele>590.386962890625</ele>
        <time>2005-09-23T07:23:18Z</time>
      </trkpt>
      <trkpt lat="44.777977466583252" lon="8.972268104553223">
        <ele>588.945068359375</ele>
        <time>2005-09-23T07:23:24Z</time>
      </trkpt>
      <trkpt lat="44.777655601501465" lon="8.972268104553223">
        <ele>586.060791015625</ele>
        <time>2005-09-23T07:23:28Z</time>
      </trkpt>
      <trkpt lat="44.777312278747559" lon="8.972160816192627">
        <ele>584.618896484375</ele>
        <time>2005-09-23T07:23:32Z</time>
      </trkpt>
      <trkpt lat="44.776840209960938" lon="8.97183895111084">
        <ele>581.73486328125</ele>
        <time>2005-09-23T07:23:38Z</time>
      </trkpt>
      <trkpt lat="44.77677583694458" lon="8.971774578094482">
        <ele>581.73486328125</ele>
        <time>2005-09-23T07:23:39Z</time>
      </trkpt>
      <trkpt lat="44.77653980255127" lon="8.971903324127197">
        <ele>579.33154296875</ele>
        <time>2005-09-23T07:23:43Z</time>
      </trkpt>
      <trkpt lat="44.77653980255127" lon="8.972268104553223">
        <ele>577.4091796875</ele>
        <time>2005-09-23T07:23:46Z</time>
      </trkpt>
      <trkpt lat="44.776411056518555" lon="8.972697257995606">
        <ele>571.640869140625</ele>
        <time>2005-09-23T07:23:50Z</time>
      </trkpt>
      <trkpt lat="44.776110649108887" lon="8.972804546356201">
        <ele>565.873291015625</ele>
        <time>2005-09-23T07:23:53Z</time>
      </trkpt>
      <trkpt lat="44.775552749633789" lon="8.972911834716797">
        <ele>558.663330078125</ele>
        <time>2005-09-23T07:23:58Z</time>
      </trkpt>
      <trkpt lat="44.775252342224121" lon="8.973212242126465">
        <ele>554.81787109375</ele>
        <time>2005-09-23T07:24:03Z</time>
      </trkpt>
      <trkpt lat="44.775080680847168" lon="8.973684310913086">
        <ele>552.41455078125</ele>
        <time>2005-09-23T07:24:08Z</time>
      </trkpt>
      <trkpt lat="44.774801731109619" lon="8.974521160125732">
        <ele>551.453369140625</ele>
        <time>2005-09-23T07:24:15Z</time>
      </trkpt>
      <trkpt lat="44.774694442749023" lon="8.974778652191162">
        <ele>551.453369140625</ele>
        <time>2005-09-23T07:24:17Z</time>
      </trkpt>
      <trkpt lat="44.774544239044189" lon="8.975036144256592">
        <ele>551.453369140625</ele>
        <time>2005-09-23T07:24:20Z</time>
      </trkpt>
      <trkpt lat="44.774308204650879" lon="8.975272178649902">
        <ele>550.97265625</ele>
        <time>2005-09-23T07:24:26Z</time>
      </trkpt>
      <trkpt lat="44.774136543273926" lon="8.975443840026856">
        <ele>550.4921875</ele>
        <time>2005-09-23T07:24:33Z</time>
      </trkpt>
      <trkpt lat="44.773900508880615" lon="8.975679874420166">
        <ele>552.41455078125</ele>
        <time>2005-09-23T07:24:44Z</time>
      </trkpt>
      <trkpt lat="44.773728847503662" lon="8.975851535797119">
        <ele>554.33740234375</ele>
        <time>2005-09-23T07:24:53Z</time>
      </trkpt>
      <trkpt lat="44.773621559143066" lon="8.975872993469238">
        <ele>553.856689453125</ele>
        <time>2005-09-23T07:25:01Z</time>
      </trkpt>
      <trkpt lat="44.773557186126709" lon="8.975872993469238">
        <ele>552.41455078125</ele>
        <time>2005-09-23T07:25:08Z</time>
      </trkpt>
      <trkpt lat="44.773514270782471" lon="8.975872993469238">
        <ele>549.050048828125</ele>
        <time>2005-09-23T07:26:35Z</time>
      </trkpt>
      <trkpt lat="44.773471355438232" lon="8.975872993469238">
        <ele>548.5693359375</ele>
        <time>2005-09-23T07:26:45Z</time>
      </trkpt>
      <trkpt lat="44.773342609405518" lon="8.975808620452881">
        <ele>549.050048828125</ele>
        <time>2005-09-23T07:26:51Z</time>
      </trkpt>
      <trkpt lat="44.773192405700684" lon="8.975722789764404">
        <ele>548.5693359375</ele>
        <time>2005-09-23T07:26:56Z</time>
      </trkpt>
      <trkpt lat="44.772891998291016" lon="8.975787162780762">
        <ele>548.5693359375</ele>
        <time>2005-09-23T07:27:04Z</time>
      </trkpt>
      <trkpt lat="44.772591590881348" lon="8.976023197174072">
        <ele>548.0888671875</ele>
        <time>2005-09-23T07:27:14Z</time>
      </trkpt>
      <trkpt lat="44.772355556488037" lon="8.976387977600098">
        <ele>549.53076171875</ele>
        <time>2005-09-23T07:27:23Z</time>
      </trkpt>
      <trkpt lat="44.77203369140625" lon="8.976795673370361">
        <ele>549.53076171875</ele>
        <time>2005-09-23T07:27:31Z</time>
      </trkpt>
      <trkpt lat="44.771969318389893" lon="8.9768385887146">
        <ele>549.53076171875</ele>
        <time>2005-09-23T07:27:32Z</time>
      </trkpt>
      <trkpt lat="44.771561622619629" lon="8.976945877075195">
        <ele>549.53076171875</ele>
        <time>2005-09-23T07:27:40Z</time>
      </trkpt>
      <trkpt lat="44.771153926849365" lon="8.977053165435791">
        <ele>549.050048828125</ele>
        <time>2005-09-23T07:27:50Z</time>
      </trkpt>
      <trkpt lat="44.77102518081665" lon="8.977160453796387">
        <ele>549.050048828125</ele>
        <time>2005-09-23T07:27:53Z</time>
      </trkpt>
      <trkpt lat="44.770939350128174" lon="8.977224826812744">
        <ele>548.5693359375</ele>
        <time>2005-09-23T07:27:55Z</time>
      </trkpt>
      <trkpt lat="44.770467281341553" lon="8.977932929992676">
        <ele>548.0888671875</ele>
        <time>2005-09-23T07:28:07Z</time>
      </trkpt>
      <trkpt lat="44.770188331604004" lon="8.97834062576294">
        <ele>549.050048828125</ele>
        <time>2005-09-23T07:28:16Z</time>
      </trkpt>
      <trkpt lat="44.770059585571289" lon="8.978748321533203">
        <ele>549.53076171875</ele>
        <time>2005-09-23T07:28:23Z</time>
      </trkpt>
      <trkpt lat="44.770059585571289" lon="8.979027271270752">
        <ele>548.5693359375</ele>
        <time>2005-09-23T07:28:27Z</time>
      </trkpt>
      <trkpt lat="44.769952297210693" lon="8.979649543762207">
        <ele>546.166259765625</ele>
        <time>2005-09-23T07:28:35Z</time>
      </trkpt>
      <trkpt lat="44.769759178161621" lon="8.980443477630615">
        <ele>542.801513671875</ele>
        <time>2005-09-23T07:28:44Z</time>
      </trkpt>
      <trkpt lat="44.769737720489502" lon="8.980765342712402">
        <ele>543.2821044921875</ele>
        <time>2005-09-23T07:28:48Z</time>
      </trkpt>
      <trkpt lat="44.769737720489502" lon="8.981130123138428">
        <ele>545.685546875</ele>
        <time>2005-09-23T07:28:55Z</time>
      </trkpt>
      <trkpt lat="44.769630432128906" lon="8.981409072875977">
        <ele>546.6468505859375</ele>
        <time>2005-09-23T07:29:03Z</time>
      </trkpt>
      <trkpt lat="44.769458770751953" lon="8.981451988220215">
        <ele>547.12744140625</ele>
        <time>2005-09-23T07:29:09Z</time>
      </trkpt>
      <trkpt lat="44.769179821014404" lon="8.981430530548096">
        <ele>546.6468505859375</ele>
        <time>2005-09-23T07:29:19Z</time>
      </trkpt>
      <trkpt lat="44.768943786621094" lon="8.981451988220215">
        <ele>547.608154296875</ele>
        <time>2005-09-23T07:29:30Z</time>
      </trkpt>
      <trkpt lat="44.768836498260498" lon="8.981623649597168">
        <ele>548.5693359375</ele>
        <time>2005-09-23T07:29:38Z</time>
      </trkpt>
      <trkpt lat="44.768686294555664" lon="8.981924057006836">
        <ele>550.4921875</ele>
        <time>2005-09-23T07:29:50Z</time>
      </trkpt>
      <trkpt lat="44.768579006195068" lon="8.982138633728027">
        <ele>551.93408203125</ele>
        <time>2005-09-23T07:29:59Z</time>
      </trkpt>
      <trkpt lat="44.768471717834473" lon="8.9823317527771">
        <ele>554.33740234375</ele>
        <time>2005-09-23T07:30:08Z</time>
      </trkpt>
      <trkpt lat="44.768321514129639" lon="8.982460498809815">
        <ele>557.7021484375</ele>
        <time>2005-09-23T07:30:18Z</time>
      </trkpt>
      <trkpt lat="44.768128395080566" lon="8.982610702514648">
        <ele>561.066650390625</ele>
        <time>2005-09-23T07:30:30Z</time>
      </trkpt>
      <trkpt lat="44.767892360687256" lon="8.982846736907959">
        <ele>562.028076171875</ele>
        <time>2005-09-23T07:30:42Z</time>
      </trkpt>
      <trkpt lat="44.767634868621826" lon="8.982975482940674">
        <ele>562.028076171875</ele>
        <time>2005-09-23T07:30:52Z</time>
      </trkpt>
      <trkpt lat="44.767398834228516" lon="8.983168601989746">
        <ele>563.950439453125</ele>
        <time>2005-09-23T07:31:01Z</time>
      </trkpt>
      <trkpt lat="44.767248630523682" lon="8.983533382415772">
        <ele>563.950439453125</ele>
        <time>2005-09-23T07:31:09Z</time>
      </trkpt>
      <trkpt lat="44.767119884490967" lon="8.983790874481201">
        <ele>562.508544921875</ele>
        <time>2005-09-23T07:31:13Z</time>
      </trkpt>
      <trkpt lat="44.767055511474609" lon="8.984177112579346">
        <ele>561.54736328125</ele>
        <time>2005-09-23T07:31:17Z</time>
      </trkpt>
      <trkpt lat="44.767076969146729" lon="8.984627723693848">
        <ele>555.298583984375</ele>
        <time>2005-09-23T07:31:22Z</time>
      </trkpt>
      <trkpt lat="44.767055511474609" lon="8.984928131103516">
        <ele>550.011474609375</ele>
        <time>2005-09-23T07:31:26Z</time>
      </trkpt>
      <trkpt lat="44.766948223114014" lon="8.985292911529541">
        <ele>546.6468505859375</ele>
        <time>2005-09-23T07:31:32Z</time>
      </trkpt>
      <trkpt lat="44.766819477081299" lon="8.985528945922852">
        <ele>544.24365234375</ele>
        <time>2005-09-23T07:31:36Z</time>
      </trkpt>
      <trkpt lat="44.76679801940918" lon="8.985893726348877">
        <ele>543.2821044921875</ele>
        <time>2005-09-23T07:31:40Z</time>
      </trkpt>
      <trkpt lat="44.76703405380249" lon="8.986194133758545">
        <ele>541.8402099609375</ele>
        <time>2005-09-23T07:31:45Z</time>
      </trkpt>
      <trkpt lat="44.767377376556396" lon="8.986945152282715">
        <ele>538.4757080078125</ele>
        <time>2005-09-23T07:31:52Z</time>
      </trkpt>
      <trkpt lat="44.767420291900635" lon="8.987052440643311">
        <ele>537.5142822265625</ele>
        <time>2005-09-23T07:31:53Z</time>
      </trkpt>
      <trkpt lat="44.767463207244873" lon="8.987352848052979">
        <ele>536.0723876953125</ele>
        <time>2005-09-23T07:31:56Z</time>
      </trkpt>
      <trkpt lat="44.767355918884277" lon="8.988039493560791">
        <ele>529.3431396484375</ele>
        <time>2005-09-23T07:32:03Z</time>
      </trkpt>
      <trkpt lat="44.767227172851563" lon="8.988704681396484">
        <ele>525.9783935546875</ele>
        <time>2005-09-23T07:32:10Z</time>
      </trkpt>
      <trkpt lat="44.767076969146729" lon="8.989262580871582">
        <ele>523.0946044921875</ele>
        <time>2005-09-23T07:32:16Z</time>
      </trkpt>
      <trkpt lat="44.76703405380249" lon="8.989520072937012">
        <ele>521.652587890625</ele>
        <time>2005-09-23T07:32:19Z</time>
      </trkpt>
      <trkpt lat="44.767055511474609" lon="8.989713191986084">
        <ele>521.1719970703125</ele>
        <time>2005-09-23T07:32:22Z</time>
      </trkpt>
      <trkpt lat="44.767098426818848" lon="8.989992141723633">
        <ele>520.6912841796875</ele>
        <time>2005-09-23T07:32:27Z</time>
      </trkpt>
      <trkpt lat="44.767055511474609" lon="8.990507125854492">
        <ele>519.7298583984375</ele>
        <time>2005-09-23T07:32:36Z</time>
      </trkpt>
      <trkpt lat="44.76703405380249" lon="8.990614414215088">
        <ele>519.249267578125</ele>
        <time>2005-09-23T07:32:38Z</time>
      </trkpt>
      <trkpt lat="44.766819477081299" lon="8.991258144378662">
        <ele>518.7685546875</ele>
        <time>2005-09-23T07:32:49Z</time>
      </trkpt>
      <trkpt lat="44.766690731048584" lon="8.99155855178833">
        <ele>517.32666015625</ele>
        <time>2005-09-23T07:32:54Z</time>
      </trkpt>
      <trkpt lat="44.766476154327393" lon="8.992245197296143">
        <ele>515.404052734375</ele>
        <time>2005-09-23T07:33:04Z</time>
      </trkpt>
      <trkpt lat="44.766175746917725" lon="8.992631435394287">
        <ele>513.9620361328125</ele>
        <time>2005-09-23T07:33:12Z</time>
      </trkpt>
      <trkpt lat="44.76604700088501" lon="8.99280309677124">
        <ele>514.92333984375</ele>
        <time>2005-09-23T07:33:16Z</time>
      </trkpt>
      <trkpt lat="44.766004085540771" lon="8.992910385131836">
        <ele>514.92333984375</ele>
        <time>2005-09-23T07:33:18Z</time>
      </trkpt>
      <trkpt lat="44.765961170196533" lon="8.993103504180908">
        <ele>514.92333984375</ele>
        <time>2005-09-23T07:33:21Z</time>
      </trkpt>
      <trkpt lat="44.765918254852295" lon="8.993210792541504">
        <ele>514.442626953125</ele>
        <time>2005-09-23T07:33:23Z</time>
      </trkpt>
      <trkpt lat="44.765939712524414" lon="8.99355411529541">
        <ele>513.4814453125</ele>
        <time>2005-09-23T07:33:27Z</time>
      </trkpt>
      <trkpt lat="44.766089916229248" lon="8.99381160736084">
        <ele>512.0394287109375</ele>
        <time>2005-09-23T07:33:31Z</time>
      </trkpt>
      <trkpt lat="44.766197204589844" lon="8.994004726409912">
        <ele>511.0780029296875</ele>
        <time>2005-09-23T07:33:34Z</time>
      </trkpt>
      <trkpt lat="44.766476154327393" lon="8.994455337524414">
        <ele>508.6746826171875</ele>
        <time>2005-09-23T07:33:41Z</time>
      </trkpt>
      <trkpt lat="44.76654052734375" lon="8.994605541229248">
        <ele>507.7135009765625</ele>
        <time>2005-09-23T07:33:43Z</time>
      </trkpt>
      <trkpt lat="44.766690731048584" lon="8.995227813720703">
        <ele>506.271484375</ele>
        <time>2005-09-23T07:33:51Z</time>
      </trkpt>
      <trkpt lat="44.766755104064941" lon="8.995506763458252">
        <ele>506.271484375</ele>
        <time>2005-09-23T07:33:55Z</time>
      </trkpt>
      <trkpt lat="44.766819477081299" lon="8.995678424835205">
        <ele>506.7520751953125</ele>
        <time>2005-09-23T07:33:58Z</time>
      </trkpt>
      <trkpt lat="44.766776561737061" lon="8.995978832244873">
        <ele>506.7520751953125</ele>
        <time>2005-09-23T07:34:04Z</time>
      </trkpt>
      <trkpt lat="44.766647815704346" lon="8.996386528015137">
        <ele>506.7520751953125</ele>
        <time>2005-09-23T07:34:12Z</time>
      </trkpt>
      <trkpt lat="44.766454696655273" lon="8.996665477752686">
        <ele>506.7520751953125</ele>
        <time>2005-09-23T07:34:20Z</time>
      </trkpt>
      <trkpt lat="44.766197204589844" lon="8.996880054473877">
        <ele>508.6746826171875</ele>
        <time>2005-09-23T07:34:30Z</time>
      </trkpt>
      <trkpt lat="44.765832424163818" lon="8.997159004211426">
        <ele>509.6361083984375</ele>
        <time>2005-09-23T07:34:44Z</time>
      </trkpt>
      <trkpt lat="44.765510559082031" lon="8.997395038604736">
        <ele>510.5972900390625</ele>
        <time>2005-09-23T07:34:57Z</time>
      </trkpt>
      <trkpt lat="44.765317440032959" lon="8.997523784637451">
        <ele>511.0780029296875</ele>
        <time>2005-09-23T07:35:06Z</time>
      </trkpt>
      <trkpt lat="44.765167236328125" lon="8.997781276702881">
        <ele>511.0780029296875</ele>
        <time>2005-09-23T07:35:17Z</time>
      </trkpt>
      <trkpt lat="44.765059947967529" lon="8.997974395751953">
        <ele>511.5587158203125</ele>
        <time>2005-09-23T07:35:30Z</time>
      </trkpt>
      <trkpt lat="44.764995574951172" lon="8.998253345489502">
        <ele>516.365234375</ele>
        <time>2005-09-23T07:35:45Z</time>
      </trkpt>
      <trkpt lat="44.764888286590576" lon="8.998425006866455">
        <ele>517.8072509765625</ele>
        <time>2005-09-23T07:35:59Z</time>
      </trkpt>
      <trkpt lat="44.764738082885742" lon="8.99855375289917">
        <ele>520.6912841796875</ele>
        <time>2005-09-23T07:36:13Z</time>
      </trkpt>
      <trkpt lat="44.764673709869385" lon="8.998618125915527">
        <ele>520.2105712890625</ele>
        <time>2005-09-23T07:36:17Z</time>
      </trkpt>
      <trkpt lat="44.764523506164551" lon="8.999004364013672">
        <ele>520.2105712890625</ele>
        <time>2005-09-23T07:36:21Z</time>
      </trkpt>
      <trkpt lat="44.764416217803955" lon="8.999605178833008">
        <ele>519.249267578125</ele>
        <time>2005-09-23T07:36:27Z</time>
      </trkpt>
      <trkpt lat="44.764394760131836" lon="8.999733924865723">
        <ele>519.249267578125</ele>
        <time>2005-09-23T07:36:29Z</time>
      </trkpt>
      <trkpt lat="44.764201641082764" lon="9.000012874603272">
        <ele>518.7685546875</ele>
        <time>2005-09-23T07:36:34Z</time>
      </trkpt>
      <trkpt lat="44.764137268066406" lon="9.000077247619629">
        <ele>518.287841796875</ele>
        <time>2005-09-23T07:36:35Z</time>
      </trkpt>
      <trkpt lat="44.763729572296143" lon="9.00054931640625">
        <ele>515.8846435546875</ele>
        <time>2005-09-23T07:36:42Z</time>
      </trkpt>
      <trkpt lat="44.763364791870117" lon="9.001021385192871">
        <ele>513.9620361328125</ele>
        <time>2005-09-23T07:36:49Z</time>
      </trkpt>
      <trkpt lat="44.763107299804688" lon="9.001343250274658">
        <ele>513.9620361328125</ele>
        <time>2005-09-23T07:36:55Z</time>
      </trkpt>
      <trkpt lat="44.763064384460449" lon="9.001407623291016">
        <ele>513.4814453125</ele>
        <time>2005-09-23T07:36:56Z</time>
      </trkpt>
      <trkpt lat="44.762957096099854" lon="9.001750946044922">
        <ele>513.9620361328125</ele>
        <time>2005-09-23T07:37:01Z</time>
      </trkpt>
      <trkpt lat="44.762914180755615" lon="9.002244472503662">
        <ele>513.9620361328125</ele>
        <time>2005-09-23T07:37:11Z</time>
      </trkpt>
      <trkpt lat="44.7627854347229" lon="9.002523422241211">
        <ele>513.4814453125</ele>
        <time>2005-09-23T07:37:18Z</time>
      </trkpt>
      <trkpt lat="44.762613773345947" lon="9.00303840637207">
        <ele>513.4814453125</ele>
        <time>2005-09-23T07:37:28Z</time>
      </trkpt>
      <trkpt lat="44.762570858001709" lon="9.003252983093262">
        <ele>511.5587158203125</ele>
        <time>2005-09-23T07:37:31Z</time>
      </trkpt>
      <trkpt lat="44.762527942657471" lon="9.003467559814453">
        <ele>511.0780029296875</ele>
        <time>2005-09-23T07:37:35Z</time>
      </trkpt>
      <trkpt lat="44.762527942657471" lon="9.003510475158691">
        <ele>509.1553955078125</ele>
        <time>2005-09-23T07:37:40Z</time>
      </trkpt>
      <trkpt lat="44.762506484985352" lon="9.003617763519287">
        <ele>505.7908935546875</ele>
        <time>2005-09-23T07:37:52Z</time>
      </trkpt>
      <trkpt lat="44.762506484985352" lon="9.003703594207764">
        <ele>504.348876953125</ele>
        <time>2005-09-23T07:37:57Z</time>
      </trkpt>
      <trkpt lat="44.762442111968994" lon="9.003961086273193">
        <ele>502.4261474609375</ele>
        <time>2005-09-23T07:38:07Z</time>
      </trkpt>
      <trkpt lat="44.762420654296875" lon="9.004411697387695">
        <ele>501.46484375</ele>
        <time>2005-09-23T07:38:15Z</time>
      </trkpt>
      <trkpt lat="44.762399196624756" lon="9.00505542755127">
        <ele>499.0615234375</ele>
        <time>2005-09-23T07:38:26Z</time>
      </trkpt>
      <trkpt lat="44.762442111968994" lon="9.005441665649414">
        <ele>499.0615234375</ele>
        <time>2005-09-23T07:38:35Z</time>
      </trkpt>
      <trkpt lat="44.762463569641113" lon="9.005677700042725">
        <ele>499.0615234375</ele>
        <time>2005-09-23T07:38:44Z</time>
      </trkpt>
      <trkpt lat="44.762485027313232" lon="9.005849361419678">
        <ele>500.5035400390625</ele>
        <time>2005-09-23T07:38:54Z</time>
      </trkpt>
      <trkpt lat="44.762527942657471" lon="9.006063938140869">
        <ele>499.0615234375</ele>
        <time>2005-09-23T07:39:00Z</time>
      </trkpt>
      <trkpt lat="44.762527942657471" lon="9.006149768829346">
        <ele>498.5809326171875</ele>
        <time>2005-09-23T07:39:02Z</time>
      </trkpt>
      <trkpt lat="44.762506484985352" lon="9.006450176239014">
        <ele>498.5809326171875</ele>
        <time>2005-09-23T07:39:07Z</time>
      </trkpt>
      <trkpt lat="44.762485027313232" lon="9.00653600692749">
        <ele>498.100341796875</ele>
        <time>2005-09-23T07:39:09Z</time>
      </trkpt>
      <trkpt lat="44.762485027313232" lon="9.007008075714111">
        <ele>497.61962890625</ele>
        <time>2005-09-23T07:39:19Z</time>
      </trkpt>
      <trkpt lat="44.762485027313232" lon="9.007115364074707">
        <ele>497.138916015625</ele>
        <time>2005-09-23T07:39:21Z</time>
      </trkpt>
      <trkpt lat="44.762592315673828" lon="9.007501602172852">
        <ele>495.6968994140625</ele>
        <time>2005-09-23T07:39:31Z</time>
      </trkpt>
      <trkpt lat="44.762613773345947" lon="9.00754451751709">
        <ele>495.2161865234375</ele>
        <time>2005-09-23T07:39:32Z</time>
      </trkpt>
      <trkpt lat="44.762871265411377" lon="9.007823467254639">
        <ele>492.81298828125</ele>
        <time>2005-09-23T07:39:38Z</time>
      </trkpt>
      <trkpt lat="44.762914180755615" lon="9.007866382598877">
        <ele>492.3323974609375</ele>
        <time>2005-09-23T07:39:42Z</time>
      </trkpt>
      <trkpt lat="44.762914180755615" lon="9.007866382598877">
        <ele>492.3323974609375</ele>
        <time>2005-09-23T07:39:53Z</time>
      </trkpt>
      <trkpt lat="44.762935638427734" lon="9.007887840270996">
        <ele>491.8516845703125</ele>
        <time>2005-09-23T07:40:01Z</time>
      </trkpt>
      <trkpt lat="44.762871265411377" lon="9.007952213287354">
        <ele>492.3323974609375</ele>
        <time>2005-09-23T07:40:05Z</time>
      </trkpt>
      <trkpt lat="44.762849807739258" lon="9.007930755615234">
        <ele>492.3323974609375</ele>
        <time>2005-09-23T07:40:06Z</time>
      </trkpt>
      <trkpt lat="44.762485027313232" lon="9.007930755615234">
        <ele>489.9290771484375</ele>
        <time>2005-09-23T07:40:12Z</time>
      </trkpt>
      <trkpt lat="44.762227535247803" lon="9.0077805519104">
        <ele>488.9677734375</ele>
        <time>2005-09-23T07:40:16Z</time>
      </trkpt>
      <trkpt lat="44.762098789215088" lon="9.007759094238281">
        <ele>488.4871826171875</ele>
        <time>2005-09-23T07:40:18Z</time>
      </trkpt>
      <trkpt lat="44.761691093444824" lon="9.00780200958252">
        <ele>488.0064697265625</ele>
        <time>2005-09-23T07:40:26Z</time>
      </trkpt>
      <trkpt lat="44.761412143707275" lon="9.007952213287354">
        <ele>487.525634765625</ele>
        <time>2005-09-23T07:40:33Z</time>
      </trkpt>
      <trkpt lat="44.761197566986084" lon="9.008059501647949">
        <ele>485.1224365234375</ele>
        <time>2005-09-23T07:40:40Z</time>
      </trkpt>
      <trkpt lat="44.761004447937012" lon="9.008209705352783">
        <ele>480.796630859375</ele>
        <time>2005-09-23T07:40:46Z</time>
      </trkpt>
      <trkpt lat="44.760982990264893" lon="9.008252620697022">
        <ele>480.31591796875</ele>
        <time>2005-09-23T07:40:47Z</time>
      </trkpt>
      <trkpt lat="44.760704040527344" lon="9.008402824401856">
        <ele>476.4705810546875</ele>
        <time>2005-09-23T07:40:53Z</time>
      </trkpt>
      <trkpt lat="44.760575294494629" lon="9.008617401123047">
        <ele>475.50927734375</ele>
        <time>2005-09-23T07:40:59Z</time>
      </trkpt>
      <trkpt lat="44.760575294494629" lon="9.0087890625">
        <ele>474.0672607421875</ele>
        <time>2005-09-23T07:41:05Z</time>
      </trkpt>
      <trkpt lat="44.76055383682251" lon="9.008810520172119">
        <ele>473.586669921875</ele>
        <time>2005-09-23T07:41:07Z</time>
      </trkpt>
      <trkpt lat="44.760489463806152" lon="9.008939266204834">
        <ele>472.1446533203125</ele>
        <time>2005-09-23T07:41:21Z</time>
      </trkpt>
      <trkpt lat="44.760468006134033" lon="9.009068012237549">
        <ele>471.6639404296875</ele>
        <time>2005-09-23T07:41:31Z</time>
      </trkpt>
      <trkpt lat="44.760425090789795" lon="9.009175300598145">
        <ele>472.6253662109375</ele>
        <time>2005-09-23T07:41:42Z</time>
      </trkpt>
      <trkpt lat="44.760360717773438" lon="9.009218215942383">
        <ele>473.586669921875</ele>
        <time>2005-09-23T07:41:52Z</time>
      </trkpt>
      <trkpt lat="44.760317802429199" lon="9.009218215942383">
        <ele>474.5479736328125</ele>
        <time>2005-09-23T07:41:59Z</time>
      </trkpt>
      <trkpt lat="44.760210514068604" lon="9.009175300598145">
        <ele>475.0286865234375</ele>
        <time>2005-09-23T07:42:11Z</time>
      </trkpt>
      <trkpt lat="44.760167598724365" lon="9.009132385253906">
        <ele>476.4705810546875</ele>
        <time>2005-09-23T07:42:20Z</time>
      </trkpt>
      <trkpt lat="44.760081768035889" lon="9.00904655456543">
        <ele>479.8350830078125</ele>
        <time>2005-09-23T07:42:33Z</time>
      </trkpt>
      <trkpt lat="44.760017395019531" lon="9.009003639221191">
        <ele>481.7578125</ele>
        <time>2005-09-23T07:42:44Z</time>
      </trkpt>
      <trkpt lat="44.759953022003174" lon="9.008982181549072">
        <ele>483.1998291015625</ele>
        <time>2005-09-23T07:42:54Z</time>
      </trkpt>
      <trkpt lat="44.759867191314697" lon="9.008939266204834">
        <ele>485.1224365234375</ele>
        <time>2005-09-23T07:43:05Z</time>
      </trkpt>
      <trkpt lat="44.75980281829834" lon="9.008917808532715">
        <ele>486.564453125</ele>
        <time>2005-09-23T07:43:15Z</time>
      </trkpt>
      <trkpt lat="44.759781360626221" lon="9.008896350860596">
        <ele>487.525634765625</ele>
        <time>2005-09-23T07:43:25Z</time>
      </trkpt>
      <trkpt lat="44.759738445281982" lon="9.008853435516357">
        <ele>488.9677734375</ele>
        <time>2005-09-23T07:43:36Z</time>
      </trkpt>
      <trkpt lat="44.759695529937744" lon="9.008810520172119">
        <ele>489.9290771484375</ele>
        <time>2005-09-23T07:43:45Z</time>
      </trkpt>
      <trkpt lat="44.759631156921387" lon="9.008746147155762">
        <ele>490.4097900390625</ele>
        <time>2005-09-23T07:43:56Z</time>
      </trkpt>
      <trkpt lat="44.75954532623291" lon="9.008703231811523">
        <ele>492.3323974609375</ele>
        <time>2005-09-23T07:44:08Z</time>
      </trkpt>
      <trkpt lat="44.759459495544434" lon="9.008638858795166">
        <ele>493.7742919921875</ele>
        <time>2005-09-23T07:44:22Z</time>
      </trkpt>
      <trkpt lat="44.759373664855957" lon="9.008660316467285">
        <ele>495.2161865234375</ele>
        <time>2005-09-23T07:44:34Z</time>
      </trkpt>
      <trkpt lat="44.759373664855957" lon="9.008724689483643">
        <ele>496.177734375</ele>
        <time>2005-09-23T07:44:42Z</time>
      </trkpt>
      <trkpt lat="44.759416580200195" lon="9.008810520172119">
        <ele>497.61962890625</ele>
        <time>2005-09-23T07:44:52Z</time>
      </trkpt>
      <trkpt lat="44.759459495544434" lon="9.008874893188477">
        <ele>498.5809326171875</ele>
        <time>2005-09-23T07:45:02Z</time>
      </trkpt>
      <trkpt lat="44.759480953216553" lon="9.008939266204834">
        <ele>499.542236328125</ele>
        <time>2005-09-23T07:45:10Z</time>
      </trkpt>
      <trkpt lat="44.759459495544434" lon="9.009025096893311">
        <ele>500.5035400390625</ele>
        <time>2005-09-23T07:45:21Z</time>
      </trkpt>
      <trkpt lat="44.759438037872314" lon="9.009068012237549">
        <ele>499.542236328125</ele>
        <time>2005-09-23T07:45:39Z</time>
      </trkpt>
      <trkpt lat="44.759352207183838" lon="9.009025096893311">
        <ele>500.5035400390625</ele>
        <time>2005-09-23T07:45:49Z</time>
      </trkpt>
      <trkpt lat="44.759266376495361" lon="9.009003639221191">
        <ele>503.387451171875</ele>
        <time>2005-09-23T07:46:01Z</time>
      </trkpt>
      <trkpt lat="44.759180545806885" lon="9.00904655456543">
        <ele>504.8294677734375</ele>
        <time>2005-09-23T07:46:15Z</time>
      </trkpt>
      <trkpt lat="44.759137630462646" lon="9.009175300598145">
        <ele>505.3101806640625</ele>
        <time>2005-09-23T07:46:26Z</time>
      </trkpt>
      <trkpt lat="44.759116172790527" lon="9.009304046630859">
        <ele>506.7520751953125</ele>
        <time>2005-09-23T07:46:38Z</time>
      </trkpt>
      <trkpt lat="44.759094715118408" lon="9.009432792663574">
        <ele>507.7135009765625</ele>
        <time>2005-09-23T07:46:51Z</time>
      </trkpt>
      <trkpt lat="44.75905179977417" lon="9.009561538696289">
        <ele>510.11669921875</ele>
        <time>2005-09-23T07:47:04Z</time>
      </trkpt>
      <trkpt lat="44.758987426757813" lon="9.009668827056885">
        <ele>512.0394287109375</ele>
        <time>2005-09-23T07:47:17Z</time>
      </trkpt>
      <trkpt lat="44.758944511413574" lon="9.009754657745361">
        <ele>513.9620361328125</ele>
        <time>2005-09-23T07:47:29Z</time>
      </trkpt>
      <trkpt lat="44.758858680725098" lon="9.009819030761719">
        <ele>516.365234375</ele>
        <time>2005-09-23T07:47:42Z</time>
      </trkpt>
      <trkpt lat="44.75879430770874" lon="9.009861946105957">
        <ele>518.7685546875</ele>
        <time>2005-09-23T07:47:54Z</time>
      </trkpt>
      <trkpt lat="44.758751392364502" lon="9.009883403778076">
        <ele>520.6912841796875</ele>
        <time>2005-09-23T07:48:03Z</time>
      </trkpt>
      <trkpt lat="44.758687019348145" lon="9.009883403778076">
        <ele>522.1331787109375</ele>
        <time>2005-09-23T07:48:13Z</time>
      </trkpt>
      <trkpt lat="44.758622646331787" lon="9.009840488433838">
        <ele>524.0557861328125</ele>
        <time>2005-09-23T07:48:23Z</time>
      </trkpt>
      <trkpt lat="44.758536815643311" lon="9.009819030761719">
        <ele>525.497802734375</ele>
        <time>2005-09-23T07:48:34Z</time>
      </trkpt>
      <trkpt lat="44.758472442626953" lon="9.009819030761719">
        <ele>527.9010009765625</ele>
        <time>2005-09-23T07:48:45Z</time>
      </trkpt>
      <trkpt lat="44.758408069610596" lon="9.009861946105957">
        <ele>529.82373046875</ele>
        <time>2005-09-23T07:48:57Z</time>
      </trkpt>
      <trkpt lat="44.758322238922119" lon="9.009840488433838">
        <ele>530.78515625</ele>
        <time>2005-09-23T07:49:08Z</time>
      </trkpt>
      <trkpt lat="44.758279323577881" lon="9.009776115417481">
        <ele>532.22705078125</ele>
        <time>2005-09-23T07:49:17Z</time>
      </trkpt>
      <trkpt lat="44.758236408233643" lon="9.009690284729004">
        <ele>533.1883544921875</ele>
        <time>2005-09-23T07:49:28Z</time>
      </trkpt>
      <trkpt lat="44.758193492889404" lon="9.009625911712647">
        <ele>535.1109619140625</ele>
        <time>2005-09-23T07:49:40Z</time>
      </trkpt>
      <trkpt lat="44.758107662200928" lon="9.009625911712647">
        <ele>536.5531005859375</ele>
        <time>2005-09-23T07:49:51Z</time>
      </trkpt>
      <trkpt lat="44.758107662200928" lon="9.009625911712647">
        <ele>535.591552734375</ele>
        <time>2005-09-23T07:49:59Z</time>
      </trkpt>
      <trkpt lat="44.758086204528809" lon="9.009668827056885">
        <ele>536.5531005859375</ele>
        <time>2005-09-23T07:50:17Z</time>
      </trkpt>
      <trkpt lat="44.75804328918457" lon="9.009754657745361">
        <ele>537.03369140625</ele>
        <time>2005-09-23T07:50:28Z</time>
      </trkpt>
      <trkpt lat="44.758000373840332" lon="9.009840488433838">
        <ele>537.9949951171875</ele>
        <time>2005-09-23T07:50:38Z</time>
      </trkpt>
      <trkpt lat="44.757936000823975" lon="9.009904861450195">
        <ele>539.9176025390625</ele>
        <time>2005-09-23T07:50:50Z</time>
      </trkpt>
      <trkpt lat="44.757871627807617" lon="9.009969234466553">
        <ele>541.8402099609375</ele>
        <time>2005-09-23T07:51:00Z</time>
      </trkpt>
      <trkpt lat="44.75780725479126" lon="9.009990692138672">
        <ele>544.7242431640625</ele>
        <time>2005-09-23T07:51:11Z</time>
      </trkpt>
      <trkpt lat="44.757699966430664" lon="9.009990692138672">
        <ele>546.6468505859375</ele>
        <time>2005-09-23T07:51:24Z</time>
      </trkpt>
      <trkpt lat="44.757614135742187" lon="9.009969234466553">
        <ele>548.0888671875</ele>
        <time>2005-09-23T07:51:34Z</time>
      </trkpt>
      <trkpt lat="44.757506847381592" lon="9.009926319122315">
        <ele>549.53076171875</ele>
        <time>2005-09-23T07:51:48Z</time>
      </trkpt>
      <trkpt lat="44.757399559020996" lon="9.009926319122315">
        <ele>551.453369140625</ele>
        <time>2005-09-23T07:52:01Z</time>
      </trkpt>
      <trkpt lat="44.7572922706604" lon="9.009926319122315">
        <ele>552.41455078125</ele>
        <time>2005-09-23T07:52:14Z</time>
      </trkpt>
      <trkpt lat="44.757184982299805" lon="9.009947776794434">
        <ele>553.856689453125</ele>
        <time>2005-09-23T07:52:27Z</time>
      </trkpt>
      <trkpt lat="44.757099151611328" lon="9.010012149810791">
        <ele>554.81787109375</ele>
        <time>2005-09-23T07:52:41Z</time>
      </trkpt>
      <trkpt lat="44.757034778594971" lon="9.010097980499268">
        <ele>554.81787109375</ele>
        <time>2005-09-23T07:52:53Z</time>
      </trkpt>
      <trkpt lat="44.756970405578613" lon="9.010183811187744">
        <ele>556.260009765625</ele>
        <time>2005-09-23T07:53:07Z</time>
      </trkpt>
      <trkpt lat="44.756906032562256" lon="9.010248184204102">
        <ele>557.7021484375</ele>
        <time>2005-09-23T07:53:20Z</time>
      </trkpt>
      <trkpt lat="44.756841659545898" lon="9.010334014892578">
        <ele>559.14404296875</ele>
        <time>2005-09-23T07:53:32Z</time>
      </trkpt>
      <trkpt lat="44.756841659545898" lon="9.010355472564697">
        <ele>558.663330078125</ele>
        <time>2005-09-23T07:53:42Z</time>
      </trkpt>
      <trkpt lat="44.756820201873779" lon="9.010355472564697">
        <ele>559.14404296875</ele>
        <time>2005-09-23T07:53:50Z</time>
      </trkpt>
      <trkpt lat="44.756777286529541" lon="9.010398387908936">
        <ele>559.624755859375</ele>
        <time>2005-09-23T07:53:58Z</time>
      </trkpt>
      <trkpt lat="44.756755828857422" lon="9.010441303253174">
        <ele>560.105224609375</ele>
        <time>2005-09-23T07:54:01Z</time>
      </trkpt>
      <trkpt lat="44.756627082824707" lon="9.010505676269531">
        <ele>562.028076171875</ele>
        <time>2005-09-23T07:54:13Z</time>
      </trkpt>
      <trkpt lat="44.75654125213623" lon="9.010505676269531">
        <ele>563.469970703125</ele>
        <time>2005-09-23T07:54:20Z</time>
      </trkpt>
      <trkpt lat="44.756391048431396" lon="9.010398387908936">
        <ele>565.873291015625</ele>
        <time>2005-09-23T07:54:33Z</time>
      </trkpt>
      <trkpt lat="44.756262302398682" lon="9.010269641876221">
        <ele>568.2763671875</ele>
        <time>2005-09-23T07:54:46Z</time>
      </trkpt>
      <trkpt lat="44.756155014038086" lon="9.010162353515625">
        <ele>569.718505859375</ele>
        <time>2005-09-23T07:54:58Z</time>
      </trkpt>
      <trkpt lat="44.756026268005371" lon="9.010076522827148">
        <ele>569.718505859375</ele>
        <time>2005-09-23T07:55:09Z</time>
      </trkpt>
      <trkpt lat="44.755918979644775" lon="9.01003360748291">
        <ele>570.6796875</ele>
        <time>2005-09-23T07:55:18Z</time>
      </trkpt>
      <trkpt lat="44.755704402923584" lon="9.009969234466553">
        <ele>572.121826171875</ele>
        <time>2005-09-23T07:55:32Z</time>
      </trkpt>
      <trkpt lat="44.755532741546631" lon="9.009947776794434">
        <ele>573.56396484375</ele>
        <time>2005-09-23T07:55:44Z</time>
      </trkpt>
      <trkpt lat="44.755339622497559" lon="9.009904861450195">
        <ele>575.486328125</ele>
        <time>2005-09-23T07:55:58Z</time>
      </trkpt>
      <trkpt lat="44.755189418792725" lon="9.009904861450195">
        <ele>578.85107421875</ele>
        <time>2005-09-23T07:56:09Z</time>
      </trkpt>
      <trkpt lat="44.754996299743652" lon="9.009883403778076">
        <ele>581.25439453125</ele>
        <time>2005-09-23T07:56:23Z</time>
      </trkpt>
      <trkpt lat="44.754867553710938" lon="9.009840488433838">
        <ele>581.73486328125</ele>
        <time>2005-09-23T07:56:33Z</time>
      </trkpt>
      <trkpt lat="44.754738807678223" lon="9.0097975730896">
        <ele>582.215576171875</ele>
        <time>2005-09-23T07:56:42Z</time>
      </trkpt>
      <trkpt lat="44.754588603973389" lon="9.009668827056885">
        <ele>583.1767578125</ele>
        <time>2005-09-23T07:56:54Z</time>
      </trkpt>
      <trkpt lat="44.754416942596436" lon="9.009518623352051">
        <ele>585.580078125</ele>
        <time>2005-09-23T07:57:07Z</time>
      </trkpt>
      <trkpt lat="44.754288196563721" lon="9.009389877319336">
        <ele>587.02197265625</ele>
        <time>2005-09-23T07:57:19Z</time>
      </trkpt>
      <trkpt lat="44.754159450531006" lon="9.009411334991455">
        <ele>588.945068359375</ele>
        <time>2005-09-23T07:57:31Z</time>
      </trkpt>
      <trkpt lat="44.754095077514648" lon="9.009518623352051">
        <ele>588.945068359375</ele>
        <time>2005-09-23T07:57:38Z</time>
      </trkpt>
      <trkpt lat="44.754137992858887" lon="9.009668827056885">
        <ele>589.425537109375</ele>
        <time>2005-09-23T07:57:48Z</time>
      </trkpt>
      <trkpt lat="44.754202365875244" lon="9.0097975730896">
        <ele>590.386962890625</ele>
        <time>2005-09-23T07:57:57Z</time>
      </trkpt>
      <trkpt lat="44.75430965423584" lon="9.009990692138672">
        <ele>591.34814453125</ele>
        <time>2005-09-23T07:58:11Z</time>
      </trkpt>
      <trkpt lat="44.754374027252197" lon="9.010140895843506">
        <ele>591.828857421875</ele>
        <time>2005-09-23T07:58:21Z</time>
      </trkpt>
      <trkpt lat="44.754459857940674" lon="9.010334014892578">
        <ele>591.828857421875</ele>
        <time>2005-09-23T07:58:34Z</time>
      </trkpt>
      <trkpt lat="44.75454568862915" lon="9.010462760925293">
        <ele>592.790283203125</ele>
        <time>2005-09-23T07:58:44Z</time>
      </trkpt>
      <trkpt lat="44.754652976989746" lon="9.010612964630127">
        <ele>596.15478515625</ele>
        <time>2005-09-23T07:58:56Z</time>
      </trkpt>
      <trkpt lat="44.754760265350342" lon="9.010720252990723">
        <ele>598.557861328125</ele>
        <time>2005-09-23T07:59:06Z</time>
      </trkpt>
      <trkpt lat="44.754846096038818" lon="9.010848999023438">
        <ele>600.480712890625</ele>
        <time>2005-09-23T07:59:16Z</time>
      </trkpt>
      <trkpt lat="44.754953384399414" lon="9.010999202728272">
        <ele>601.44189453125</ele>
        <time>2005-09-23T07:59:29Z</time>
      </trkpt>
      <trkpt lat="44.75506067276001" lon="9.011127948760986">
        <ele>601.922607421875</ele>
        <time>2005-09-23T07:59:40Z</time>
      </trkpt>
      <trkpt lat="44.755167961120605" lon="9.01129961013794">
        <ele>601.922607421875</ele>
        <time>2005-09-23T07:59:54Z</time>
      </trkpt>
      <trkpt lat="44.755232334136963" lon="9.011363983154297">
        <ele>602.8837890625</ele>
        <time>2005-09-23T08:00:01Z</time>
      </trkpt>
      <trkpt lat="44.755275249481201" lon="9.011471271514893">
        <ele>604.326171875</ele>
        <time>2005-09-23T08:00:08Z</time>
      </trkpt>
      <trkpt lat="44.755253791809082" lon="9.011642932891846">
        <ele>605.76806640625</ele>
        <time>2005-09-23T08:00:18Z</time>
      </trkpt>
      <trkpt lat="44.755125045776367" lon="9.011878967285156">
        <ele>608.17138671875</ele>
        <time>2005-09-23T08:00:32Z</time>
      </trkpt>
      <trkpt lat="44.754996299743652" lon="9.012115001678467">
        <ele>610.09375</ele>
        <time>2005-09-23T08:00:44Z</time>
      </trkpt>
      <trkpt lat="44.754889011383057" lon="9.012329578399658">
        <ele>611.535888671875</ele>
        <time>2005-09-23T08:00:54Z</time>
      </trkpt>
      <trkpt lat="44.754717350006104" lon="9.012629985809326">
        <ele>612.4970703125</ele>
        <time>2005-09-23T08:01:09Z</time>
      </trkpt>
      <trkpt lat="44.754524230957031" lon="9.012737274169922">
        <ele>612.0166015625</ele>
        <time>2005-09-23T08:01:19Z</time>
      </trkpt>
      <trkpt lat="44.754202365875244" lon="9.012758731842041">
        <ele>610.574462890625</ele>
        <time>2005-09-23T08:01:27Z</time>
      </trkpt>
      <trkpt lat="44.754116535186768" lon="9.012801647186279">
        <ele>610.09375</ele>
        <time>2005-09-23T08:01:29Z</time>
      </trkpt>
      <trkpt lat="44.753773212432861" lon="9.013144969940186">
        <ele>609.132568359375</ele>
        <time>2005-09-23T08:01:38Z</time>
      </trkpt>
      <trkpt lat="44.753730297088623" lon="9.013187885284424">
        <ele>609.132568359375</ele>
        <time>2005-09-23T08:01:39Z</time>
      </trkpt>
      <trkpt lat="44.753537178039551" lon="9.0132737159729">
        <ele>608.65185546875</ele>
        <time>2005-09-23T08:01:44Z</time>
      </trkpt>
      <trkpt lat="44.753236770629883" lon="9.013187885284424">
        <ele>608.17138671875</ele>
        <time>2005-09-23T08:01:53Z</time>
      </trkpt>
      <trkpt lat="44.752871990203857" lon="9.012951850891113">
        <ele>607.690673828125</ele>
        <time>2005-09-23T08:02:04Z</time>
      </trkpt>
      <trkpt lat="44.752764701843262" lon="9.012930393218994">
        <ele>607.2099609375</ele>
        <time>2005-09-23T08:02:07Z</time>
      </trkpt>
      <trkpt lat="44.752485752105713" lon="9.013166427612305">
        <ele>606.729248046875</ele>
        <time>2005-09-23T08:02:16Z</time>
      </trkpt>
      <trkpt lat="44.752485752105713" lon="9.013359546661377">
        <ele>606.24853515625</ele>
        <time>2005-09-23T08:02:20Z</time>
      </trkpt>
      <trkpt lat="44.752614498138428" lon="9.013638496398926">
        <ele>606.24853515625</ele>
        <time>2005-09-23T08:02:28Z</time>
      </trkpt>
      <trkpt lat="44.752700328826904" lon="9.014003276824951">
        <ele>607.690673828125</ele>
        <time>2005-09-23T08:02:37Z</time>
      </trkpt>
      <trkpt lat="44.7528076171875" lon="9.014496803283691">
        <ele>610.574462890625</ele>
        <time>2005-09-23T08:02:50Z</time>
      </trkpt>
      <trkpt lat="44.752957820892334" lon="9.014968872070313">
        <ele>612.977783203125</ele>
        <time>2005-09-23T08:03:03Z</time>
      </trkpt>
      <trkpt lat="44.753022193908691" lon="9.015333652496338">
        <ele>613.93896484375</ele>
        <time>2005-09-23T08:03:14Z</time>
      </trkpt>
      <trkpt lat="44.753086566925049" lon="9.015569686889648">
        <ele>615.381103515625</ele>
        <time>2005-09-23T08:03:23Z</time>
      </trkpt>
      <trkpt lat="44.753108024597168" lon="9.015805721282959">
        <ele>617.3037109375</ele>
        <time>2005-09-23T08:03:33Z</time>
      </trkpt>
      <trkpt lat="44.753086566925049" lon="9.015998840332031">
        <ele>619.226318359375</ele>
        <time>2005-09-23T08:03:42Z</time>
      </trkpt>
      <trkpt lat="44.75306510925293" lon="9.016213417053223">
        <ele>621.629638671875</ele>
        <time>2005-09-23T08:03:53Z</time>
      </trkpt>
      <trkpt lat="44.753000736236572" lon="9.016427993774414">
        <ele>623.07177734375</ele>
        <time>2005-09-23T08:04:04Z</time>
      </trkpt>
      <trkpt lat="44.752850532531738" lon="9.016642570495606">
        <ele>623.07177734375</ele>
        <time>2005-09-23T08:04:15Z</time>
      </trkpt>
      <trkpt lat="44.752657413482666" lon="9.016921520233154">
        <ele>623.552490234375</ele>
        <time>2005-09-23T08:04:27Z</time>
      </trkpt>
      <trkpt lat="44.752485752105713" lon="9.01728630065918">
        <ele>624.513671875</ele>
        <time>2005-09-23T08:04:38Z</time>
      </trkpt>
      <trkpt lat="44.752399921417236" lon="9.017629623413086">
        <ele>623.552490234375</ele>
        <time>2005-09-23T08:04:46Z</time>
      </trkpt>
      <trkpt lat="44.752185344696045" lon="9.018123149871826">
        <ele>622.1103515625</ele>
        <time>2005-09-23T08:04:55Z</time>
      </trkpt>
      <trkpt lat="44.752120971679688" lon="9.018230438232422">
        <ele>622.1103515625</ele>
        <time>2005-09-23T08:04:57Z</time>
      </trkpt>
      <trkpt lat="44.751734733581543" lon="9.018466472625732">
        <ele>622.1103515625</ele>
        <time>2005-09-23T08:05:06Z</time>
      </trkpt>
      <trkpt lat="44.751434326171875" lon="9.018681049346924">
        <ele>622.1103515625</ele>
        <time>2005-09-23T08:05:15Z</time>
      </trkpt>
      <trkpt lat="44.75130558013916" lon="9.019002914428711">
        <ele>621.629638671875</ele>
        <time>2005-09-23T08:05:22Z</time>
      </trkpt>
      <trkpt lat="44.751284122467041" lon="9.01951789855957">
        <ele>620.66845703125</ele>
        <time>2005-09-23T08:05:31Z</time>
      </trkpt>
      <trkpt lat="44.751284122467041" lon="9.019904136657715">
        <ele>620.187744140625</ele>
        <time>2005-09-23T08:05:38Z</time>
      </trkpt>
      <trkpt lat="44.751284122467041" lon="9.019947052001953">
        <ele>619.226318359375</ele>
        <time>2005-09-23T08:05:43Z</time>
      </trkpt>
      <trkpt lat="44.751284122467041" lon="9.019989967346191">
        <ele>622.591064453125</ele>
        <time>2005-09-23T08:06:28Z</time>
      </trkpt>
      <trkpt lat="44.751262664794922" lon="9.02003288269043">
        <ele>613.93896484375</ele>
        <time>2005-09-23T08:07:34Z</time>
      </trkpt>
      <trkpt lat="44.751327037811279" lon="9.020204544067383">
        <ele>615.381103515625</ele>
        <time>2005-09-23T08:07:41Z</time>
      </trkpt>
      <trkpt lat="44.751455783843994" lon="9.020633697509766">
        <ele>616.822998046875</ele>
        <time>2005-09-23T08:07:52Z</time>
      </trkpt>
      <trkpt lat="44.751584529876709" lon="9.021105766296387">
        <ele>619.70703125</ele>
        <time>2005-09-23T08:08:04Z</time>
      </trkpt>
      <trkpt lat="44.7517991065979" lon="9.021577835083008">
        <ele>622.1103515625</ele>
        <time>2005-09-23T08:08:17Z</time>
      </trkpt>
      <trkpt lat="44.752035140991211" lon="9.021835327148438">
        <ele>624.032958984375</ele>
        <time>2005-09-23T08:08:27Z</time>
      </trkpt>
      <trkpt lat="44.752271175384521" lon="9.022071361541748">
        <ele>625.474853515625</ele>
        <time>2005-09-23T08:08:37Z</time>
      </trkpt>
      <trkpt lat="44.752593040466309" lon="9.02252197265625">
        <ele>625.95556640625</ele>
        <time>2005-09-23T08:08:52Z</time>
      </trkpt>
      <trkpt lat="44.752764701843262" lon="9.022758007049561">
        <ele>625.474853515625</ele>
        <time>2005-09-23T08:08:59Z</time>
      </trkpt>
      <trkpt lat="44.753022193908691" lon="9.023187160491943">
        <ele>624.032958984375</ele>
        <time>2005-09-23T08:09:07Z</time>
      </trkpt>
      <trkpt lat="44.753258228302002" lon="9.023723602294922">
        <ele>624.032958984375</ele>
        <time>2005-09-23T08:09:14Z</time>
      </trkpt>
      <trkpt lat="44.753408432006836" lon="9.024410247802734">
        <ele>623.552490234375</ele>
        <time>2005-09-23T08:09:23Z</time>
      </trkpt>
      <trkpt lat="44.753494262695313" lon="9.024817943572998">
        <ele>624.032958984375</ele>
        <time>2005-09-23T08:09:30Z</time>
      </trkpt>
      <trkpt lat="44.75355863571167" lon="9.025139808654785">
        <ele>623.552490234375</ele>
        <time>2005-09-23T08:09:36Z</time>
      </trkpt>
      <trkpt lat="44.753837585449219" lon="9.02552604675293">
        <ele>619.70703125</ele>
        <time>2005-09-23T08:09:42Z</time>
      </trkpt>
      <trkpt lat="44.754009246826172" lon="9.025783538818359">
        <ele>617.7841796875</ele>
        <time>2005-09-23T08:09:45Z</time>
      </trkpt>
      <trkpt lat="44.754137992858887" lon="9.0262770652771">
        <ele>614.419677734375</ele>
        <time>2005-09-23T08:09:49Z</time>
      </trkpt>
      <trkpt lat="44.754223823547363" lon="9.026706218719482">
        <ele>611.05517578125</ele>
        <time>2005-09-23T08:09:52Z</time>
      </trkpt>
      <trkpt lat="44.754223823547363" lon="9.027307033538818">
        <ele>604.806640625</ele>
        <time>2005-09-23T08:09:57Z</time>
      </trkpt>
      <trkpt lat="44.754009246826172" lon="9.027478694915772">
        <ele>600</ele>
        <time>2005-09-23T08:10:00Z</time>
      </trkpt>
      <trkpt lat="44.753773212432861" lon="9.027285575866699">
        <ele>597.115966796875</ele>
        <time>2005-09-23T08:10:03Z</time>
      </trkpt>
      <trkpt lat="44.753644466400146" lon="9.027049541473389">
        <ele>595.674072265625</ele>
        <time>2005-09-23T08:10:05Z</time>
      </trkpt>
      <trkpt lat="44.753537178039551" lon="9.026792049407959">
        <ele>594.712646484375</ele>
        <time>2005-09-23T08:10:07Z</time>
      </trkpt>
      <trkpt lat="44.753322601318359" lon="9.026706218719482">
        <ele>592.790283203125</ele>
        <time>2005-09-23T08:10:10Z</time>
      </trkpt>
      <trkpt lat="44.753129482269287" lon="9.026963710784912">
        <ele>589.425537109375</ele>
        <time>2005-09-23T08:10:13Z</time>
      </trkpt>
      <trkpt lat="44.752614498138428" lon="9.027693271636963">
        <ele>585.580078125</ele>
        <time>2005-09-23T08:10:19Z</time>
      </trkpt>
      <trkpt lat="44.752292633056641" lon="9.028079509735107">
        <ele>585.099609375</ele>
        <time>2005-09-23T08:10:22Z</time>
      </trkpt>
      <trkpt lat="44.751627445220947" lon="9.02850866317749">
        <ele>584.618896484375</ele>
        <time>2005-09-23T08:10:27Z</time>
      </trkpt>
      <trkpt lat="44.751369953155518" lon="9.029045104980469">
        <ele>582.215576171875</ele>
        <time>2005-09-23T08:10:31Z</time>
      </trkpt>
      <trkpt lat="44.751327037811279" lon="9.029366970062256">
        <ele>581.73486328125</ele>
        <time>2005-09-23T08:10:33Z</time>
      </trkpt>
      <trkpt lat="44.751198291778564" lon="9.030117988586426">
        <ele>581.25439453125</ele>
        <time>2005-09-23T08:10:39Z</time>
      </trkpt>
      <trkpt lat="44.751091003417969" lon="9.030396938323975">
        <ele>582.6962890625</ele>
        <time>2005-09-23T08:10:44Z</time>
      </trkpt>
      <trkpt lat="44.750983715057373" lon="9.030632972717285">
        <ele>584.618896484375</ele>
        <time>2005-09-23T08:10:52Z</time>
      </trkpt>
      <trkpt lat="44.750897884368896" lon="9.030890464782715">
        <ele>583.657470703125</ele>
        <time>2005-09-23T08:11:02Z</time>
      </trkpt>
      <trkpt lat="44.750876426696777" lon="9.03125524520874">
        <ele>581.73486328125</ele>
        <time>2005-09-23T08:11:16Z</time>
      </trkpt>
      <trkpt lat="44.750940799713135" lon="9.03151273727417">
        <ele>582.215576171875</ele>
        <time>2005-09-23T08:11:27Z</time>
      </trkpt>
      <trkpt lat="44.750962257385254" lon="9.0317702293396">
        <ele>582.215576171875</ele>
        <time>2005-09-23T08:11:37Z</time>
      </trkpt>
      <trkpt lat="44.75081205368042" lon="9.031963348388672">
        <ele>581.73486328125</ele>
        <time>2005-09-23T08:11:47Z</time>
      </trkpt>
      <trkpt lat="44.750597476959229" lon="9.032177925109863">
        <ele>581.25439453125</ele>
        <time>2005-09-23T08:11:57Z</time>
      </trkpt>
      <trkpt lat="44.750404357910156" lon="9.032564163208008">
        <ele>581.25439453125</ele>
        <time>2005-09-23T08:12:07Z</time>
      </trkpt>
      <trkpt lat="44.750382900238037" lon="9.032864570617676">
        <ele>581.25439453125</ele>
        <time>2005-09-23T08:12:13Z</time>
      </trkpt>
      <trkpt lat="44.750533103942871" lon="9.033143520355225">
        <ele>581.73486328125</ele>
        <time>2005-09-23T08:12:20Z</time>
      </trkpt>
      <trkpt lat="44.750769138336182" lon="9.033293724060059">
        <ele>581.73486328125</ele>
        <time>2005-09-23T08:12:28Z</time>
      </trkpt>
      <trkpt lat="44.750983715057373" lon="9.033336639404297">
        <ele>582.6962890625</ele>
        <time>2005-09-23T08:12:36Z</time>
      </trkpt>
      <trkpt lat="44.751219749450684" lon="9.033379554748535">
        <ele>583.657470703125</ele>
        <time>2005-09-23T08:12:46Z</time>
      </trkpt>
      <trkpt lat="44.751434326171875" lon="9.033486843109131">
        <ele>586.54150390625</ele>
        <time>2005-09-23T08:12:57Z</time>
      </trkpt>
      <trkpt lat="44.751648902893066" lon="9.033615589141846">
        <ele>587.502685546875</ele>
        <time>2005-09-23T08:13:08Z</time>
      </trkpt>
      <trkpt lat="44.751884937286377" lon="9.033679962158203">
        <ele>589.425537109375</ele>
        <time>2005-09-23T08:13:19Z</time>
      </trkpt>
      <trkpt lat="44.752013683319092" lon="9.033808708190918">
        <ele>589.90625</ele>
        <time>2005-09-23T08:13:27Z</time>
      </trkpt>
      <trkpt lat="44.752142429351807" lon="9.034109115600586">
        <ele>589.90625</ele>
        <time>2005-09-23T08:13:38Z</time>
      </trkpt>
      <trkpt lat="44.75231409072876" lon="9.03425931930542">
        <ele>589.90625</ele>
        <time>2005-09-23T08:13:47Z</time>
      </trkpt>
      <trkpt lat="44.752571582794189" lon="9.034323692321777">
        <ele>591.828857421875</ele>
        <time>2005-09-23T08:13:57Z</time>
      </trkpt>
      <trkpt lat="44.752700328826904" lon="9.034495353698731">
        <ele>591.828857421875</ele>
        <time>2005-09-23T08:14:04Z</time>
      </trkpt>
      <trkpt lat="44.752871990203857" lon="9.034774303436279">
        <ele>591.828857421875</ele>
        <time>2005-09-23T08:14:12Z</time>
      </trkpt>
      <trkpt lat="44.753172397613525" lon="9.035117626190186">
        <ele>590.386962890625</ele>
        <time>2005-09-23T08:14:18Z</time>
      </trkpt>
      <trkpt lat="44.753408432006836" lon="9.035675525665283">
        <ele>587.9833984375</ele>
        <time>2005-09-23T08:14:23Z</time>
      </trkpt>
      <trkpt lat="44.75355863571167" lon="9.036190509796143">
        <ele>586.54150390625</ele>
        <time>2005-09-23T08:14:27Z</time>
      </trkpt>
      <trkpt lat="44.753880500793457" lon="9.036576747894287">
        <ele>587.02197265625</ele>
        <time>2005-09-23T08:14:31Z</time>
      </trkpt>
      <trkpt lat="44.754116535186768" lon="9.036791324615479">
        <ele>587.502685546875</ele>
        <time>2005-09-23T08:14:34Z</time>
      </trkpt>
      <trkpt lat="44.754352569580078" lon="9.037220478057861">
        <ele>588.945068359375</ele>
        <time>2005-09-23T08:14:40Z</time>
      </trkpt>
      <trkpt lat="44.754481315612793" lon="9.037606716156006">
        <ele>588.945068359375</ele>
        <time>2005-09-23T08:14:47Z</time>
      </trkpt>
      <trkpt lat="44.754652976989746" lon="9.037907123565674">
        <ele>589.425537109375</ele>
        <time>2005-09-23T08:14:55Z</time>
      </trkpt>
      <trkpt lat="44.754910469055176" lon="9.038207530975342">
        <ele>589.90625</ele>
        <time>2005-09-23T08:15:05Z</time>
      </trkpt>
      <trkpt lat="44.755275249481201" lon="9.038422107696533">
        <ele>591.34814453125</ele>
        <time>2005-09-23T08:15:18Z</time>
      </trkpt>
      <trkpt lat="44.755682945251465" lon="9.038593769073486">
        <ele>592.3095703125</ele>
        <time>2005-09-23T08:15:34Z</time>
      </trkpt>
      <trkpt lat="44.755854606628418" lon="9.038851261138916">
        <ele>593.75146484375</ele>
        <time>2005-09-23T08:15:44Z</time>
      </trkpt>
      <trkpt lat="44.755961894989014" lon="9.039130210876465">
        <ele>593.75146484375</ele>
        <time>2005-09-23T08:15:54Z</time>
      </trkpt>
      <trkpt lat="44.756133556365967" lon="9.039473533630371">
        <ele>592.790283203125</ele>
        <time>2005-09-23T08:16:06Z</time>
      </trkpt>
      <trkpt lat="44.756455421447754" lon="9.040052890777588">
        <ele>592.3095703125</ele>
        <time>2005-09-23T08:16:18Z</time>
      </trkpt>
      <trkpt lat="44.756648540496826" lon="9.040417671203613">
        <ele>592.790283203125</ele>
        <time>2005-09-23T08:16:27Z</time>
      </trkpt>
      <trkpt lat="44.756841659545898" lon="9.040889739990234">
        <ele>591.34814453125</ele>
        <time>2005-09-23T08:16:37Z</time>
      </trkpt>
      <trkpt lat="44.756884574890137" lon="9.041039943695068">
        <ele>590.867431640625</ele>
        <time>2005-09-23T08:16:39Z</time>
      </trkpt>
      <trkpt lat="44.75705623626709" lon="9.041361808776856">
        <ele>588.46435546875</ele>
        <time>2005-09-23T08:16:43Z</time>
      </trkpt>
      <trkpt lat="44.757249355316162" lon="9.041769504547119">
        <ele>584.13818359375</ele>
        <time>2005-09-23T08:16:47Z</time>
      </trkpt>
      <trkpt lat="44.757485389709473" lon="9.041962623596191">
        <ele>581.25439453125</ele>
        <time>2005-09-23T08:16:51Z</time>
      </trkpt>
      <trkpt lat="44.757785797119141" lon="9.042069911956787">
        <ele>580.773681640625</ele>
        <time>2005-09-23T08:16:55Z</time>
      </trkpt>
      <trkpt lat="44.757828712463379" lon="9.042155742645264">
        <ele>580.773681640625</ele>
        <time>2005-09-23T08:16:56Z</time>
      </trkpt>
      <trkpt lat="44.758086204528809" lon="9.042584896087647">
        <ele>581.73486328125</ele>
        <time>2005-09-23T08:17:03Z</time>
      </trkpt>
      <trkpt lat="44.758343696594238" lon="9.043164253234863">
        <ele>582.6962890625</ele>
        <time>2005-09-23T08:17:13Z</time>
      </trkpt>
      <trkpt lat="44.758622646331787" lon="9.043893814086914">
        <ele>582.6962890625</ele>
        <time>2005-09-23T08:17:26Z</time>
      </trkpt>
      <trkpt lat="44.758837223052979" lon="9.044451713562012">
        <ele>583.1767578125</ele>
        <time>2005-09-23T08:17:36Z</time>
      </trkpt>
      <trkpt lat="44.759116172790527" lon="9.045138359069824">
        <ele>585.099609375</ele>
        <time>2005-09-23T08:17:49Z</time>
      </trkpt>
      <trkpt lat="44.759416580200195" lon="9.045653343200684">
        <ele>586.54150390625</ele>
        <time>2005-09-23T08:18:00Z</time>
      </trkpt>
      <trkpt lat="44.75954532623291" lon="9.045803546905518">
        <ele>587.502685546875</ele>
        <time>2005-09-23T08:18:04Z</time>
      </trkpt>
      <trkpt lat="44.759910106658936" lon="9.046039581298828">
        <ele>587.9833984375</ele>
        <time>2005-09-23T08:18:13Z</time>
      </trkpt>
      <trkpt lat="44.76029634475708" lon="9.046468734741211">
        <ele>588.46435546875</ele>
        <time>2005-09-23T08:18:25Z</time>
      </trkpt>
      <trkpt lat="44.760746955871582" lon="9.04674768447876">
        <ele>588.46435546875</ele>
        <time>2005-09-23T08:18:36Z</time>
      </trkpt>
      <trkpt lat="44.760940074920654" lon="9.046919345855713">
        <ele>588.46435546875</ele>
        <time>2005-09-23T08:18:41Z</time>
      </trkpt>
      <trkpt lat="44.76104736328125" lon="9.047112464904785">
        <ele>588.945068359375</ele>
        <time>2005-09-23T08:18:45Z</time>
      </trkpt>
      <trkpt lat="44.761261940002441" lon="9.047777652740479">
        <ele>589.425537109375</ele>
        <time>2005-09-23T08:18:57Z</time>
      </trkpt>
      <trkpt lat="44.761519432067871" lon="9.048206806182861">
        <ele>587.9833984375</ele>
        <time>2005-09-23T08:19:06Z</time>
      </trkpt>
      <trkpt lat="44.761862754821777" lon="9.048550128936768">
        <ele>587.9833984375</ele>
        <time>2005-09-23T08:19:15Z</time>
      </trkpt>
      <trkpt lat="44.761970043182373" lon="9.048657417297363">
        <ele>588.46435546875</ele>
        <time>2005-09-23T08:19:18Z</time>
      </trkpt>
      <trkpt lat="44.762120246887207" lon="9.04900074005127">
        <ele>587.9833984375</ele>
        <time>2005-09-23T08:19:24Z</time>
      </trkpt>
      <trkpt lat="44.762227535247803" lon="9.049322605133057">
        <ele>588.46435546875</ele>
        <time>2005-09-23T08:19:29Z</time>
      </trkpt>
      <trkpt lat="44.762592315673828" lon="9.049901962280273">
        <ele>588.46435546875</ele>
        <time>2005-09-23T08:19:40Z</time>
      </trkpt>
      <trkpt lat="44.762978553771973" lon="9.050545692443848">
        <ele>588.945068359375</ele>
        <time>2005-09-23T08:19:53Z</time>
      </trkpt>
      <trkpt lat="44.763257503509521" lon="9.050824642181397">
        <ele>589.425537109375</ele>
        <time>2005-09-23T08:20:00Z</time>
      </trkpt>
      <trkpt lat="44.76353645324707" lon="9.050910472869873">
        <ele>589.425537109375</ele>
        <time>2005-09-23T08:20:06Z</time>
      </trkpt>
      <trkpt lat="44.763879776000977" lon="9.050931930541992">
        <ele>590.867431640625</ele>
        <time>2005-09-23T08:20:13Z</time>
      </trkpt>
      <trkpt lat="44.763987064361572" lon="9.050867557525635">
        <ele>590.386962890625</ele>
        <time>2005-09-23T08:20:15Z</time>
      </trkpt>
      <trkpt lat="44.764351844787598" lon="9.050438404083252">
        <ele>589.90625</ele>
        <time>2005-09-23T08:20:24Z</time>
      </trkpt>
      <trkpt lat="44.764716625213623" lon="9.050009250640869">
        <ele>589.90625</ele>
        <time>2005-09-23T08:20:33Z</time>
      </trkpt>
      <trkpt lat="44.764909744262695" lon="9.049923419952393">
        <ele>589.90625</ele>
        <time>2005-09-23T08:20:37Z</time>
      </trkpt>
      <trkpt lat="44.765017032623291" lon="9.049923419952393">
        <ele>589.90625</ele>
        <time>2005-09-23T08:20:39Z</time>
      </trkpt>
      <trkpt lat="44.765639305114746" lon="9.050223827362061">
        <ele>590.386962890625</ele>
        <time>2005-09-23T08:20:52Z</time>
      </trkpt>
      <trkpt lat="44.765875339508057" lon="9.050395488739014">
        <ele>590.867431640625</ele>
        <time>2005-09-23T08:21:00Z</time>
      </trkpt>
      <trkpt lat="44.765918254852295" lon="9.050438404083252">
        <ele>591.34814453125</ele>
        <time>2005-09-23T08:21:05Z</time>
      </trkpt>
      <trkpt lat="44.765918254852295" lon="9.050610065460205">
        <ele>594.232177734375</ele>
        <time>2005-09-23T08:51:34Z</time>
      </trkpt>
      <trkpt lat="44.765810966491699" lon="9.050438404083252">
        <ele>592.790283203125</ele>
        <time>2005-09-23T08:53:53Z</time>
      </trkpt>
      <trkpt lat="44.765853881835938" lon="9.050395488739014">
        <ele>592.790283203125</ele>
        <time>2005-09-23T08:54:54Z</time>
      </trkpt>
      <trkpt lat="44.765918254852295" lon="9.050395488739014">
        <ele>593.75146484375</ele>
        <time>2005-09-23T08:55:00Z</time>
      </trkpt>
      <trkpt lat="44.765982627868652" lon="9.050438404083252">
        <ele>594.232177734375</ele>
        <time>2005-09-23T08:55:05Z</time>
      </trkpt>
      <trkpt lat="44.766154289245605" lon="9.050674438476563">
        <ele>594.232177734375</ele>
        <time>2005-09-23T08:55:18Z</time>
      </trkpt>
      <trkpt lat="44.76628303527832" lon="9.05073881149292">
        <ele>593.75146484375</ele>
        <time>2005-09-23T08:55:26Z</time>
      </trkpt>
      <trkpt lat="44.76628303527832" lon="9.050824642181397">
        <ele>594.232177734375</ele>
        <time>2005-09-23T08:55:31Z</time>
      </trkpt>
      <trkpt lat="44.766218662261963" lon="9.050803184509277">
        <ele>594.712646484375</ele>
        <time>2005-09-23T08:55:35Z</time>
      </trkpt>
      <trkpt lat="44.76604700088501" lon="9.050803184509277">
        <ele>597.115966796875</ele>
        <time>2005-09-23T08:55:48Z</time>
      </trkpt>
      <trkpt lat="44.765896797180176" lon="9.050846099853516">
        <ele>598.557861328125</ele>
        <time>2005-09-23T08:55:59Z</time>
      </trkpt>
      <trkpt lat="44.765768051147461" lon="9.050889015197754">
        <ele>600</ele>
        <time>2005-09-23T08:56:08Z</time>
      </trkpt>
      <trkpt lat="44.765660762786865" lon="9.05099630355835">
        <ele>602.8837890625</ele>
        <time>2005-09-23T08:56:19Z</time>
      </trkpt>
      <trkpt lat="44.76553201675415" lon="9.051060676574707">
        <ele>602.403076171875</ele>
        <time>2005-09-23T08:56:27Z</time>
      </trkpt>
      <trkpt lat="44.765188694000244" lon="9.051167964935303">
        <ele>602.403076171875</ele>
        <time>2005-09-23T08:56:35Z</time>
      </trkpt>
      <trkpt lat="44.764909744262695" lon="9.051275253295898">
        <ele>602.403076171875</ele>
        <time>2005-09-23T08:56:44Z</time>
      </trkpt>
      <trkpt lat="44.764587879180908" lon="9.051446914672852">
        <ele>603.84521484375</ele>
        <time>2005-09-23T08:56:58Z</time>
      </trkpt>
      <trkpt lat="44.764330387115479" lon="9.051597118377686">
        <ele>605.76806640625</ele>
        <time>2005-09-23T08:57:10Z</time>
      </trkpt>
      <trkpt lat="44.764094352722168" lon="9.0517258644104">
        <ele>609.61328125</ele>
        <time>2005-09-23T08:57:22Z</time>
      </trkpt>
      <trkpt lat="44.763836860656738" lon="9.051918983459473">
        <ele>613.93896484375</ele>
        <time>2005-09-23T08:57:36Z</time>
      </trkpt>
      <trkpt lat="44.76353645324707" lon="9.052090644836426">
        <ele>617.3037109375</ele>
        <time>2005-09-23T08:57:51Z</time>
      </trkpt>
      <trkpt lat="44.763236045837402" lon="9.052262306213379">
        <ele>619.226318359375</ele>
        <time>2005-09-23T08:58:06Z</time>
      </trkpt>
      <trkpt lat="44.763000011444092" lon="9.052326679229736">
        <ele>620.66845703125</ele>
        <time>2005-09-23T08:58:18Z</time>
      </trkpt>
      <trkpt lat="44.7627854347229" lon="9.052391052246094">
        <ele>620.187744140625</ele>
        <time>2005-09-23T08:58:28Z</time>
      </trkpt>
      <trkpt lat="44.76254940032959" lon="9.052455425262451">
        <ele>620.66845703125</ele>
        <time>2005-09-23T08:58:33Z</time>
      </trkpt>
      <trkpt lat="44.762141704559326" lon="9.052584171295166">
        <ele>620.66845703125</ele>
        <time>2005-09-23T08:58:38Z</time>
      </trkpt>
      <trkpt lat="44.761970043182373" lon="9.052627086639404">
        <ele>620.66845703125</ele>
        <time>2005-09-23T08:58:40Z</time>
      </trkpt>
      <trkpt lat="44.76130485534668" lon="9.052670001983643">
        <ele>619.226318359375</ele>
        <time>2005-09-23T08:58:46Z</time>
      </trkpt>
      <trkpt lat="44.760832786560059" lon="9.052712917327881">
        <ele>614.900390625</ele>
        <time>2005-09-23T08:58:50Z</time>
      </trkpt>
      <trkpt lat="44.760403633117676" lon="9.052670001983643">
        <ele>611.05517578125</ele>
        <time>2005-09-23T08:58:54Z</time>
      </trkpt>
      <trkpt lat="44.760017395019531" lon="9.052863121032715">
        <ele>607.690673828125</ele>
        <time>2005-09-23T08:58:58Z</time>
      </trkpt>
      <trkpt lat="44.759781360626221" lon="9.053163528442383">
        <ele>604.806640625</ele>
        <time>2005-09-23T08:59:01Z</time>
      </trkpt>
      <trkpt lat="44.759480953216553" lon="9.053635597229004">
        <ele>601.44189453125</ele>
        <time>2005-09-23T08:59:05Z</time>
      </trkpt>
      <trkpt lat="44.759030342102051" lon="9.05397891998291">
        <ele>599.519287109375</ele>
        <time>2005-09-23T08:59:10Z</time>
      </trkpt>
      <trkpt lat="44.758322238922119" lon="9.054257869720459">
        <ele>596.15478515625</ele>
        <time>2005-09-23T08:59:18Z</time>
      </trkpt>
      <trkpt lat="44.757936000823975" lon="9.054579734802246">
        <ele>594.712646484375</ele>
        <time>2005-09-23T08:59:24Z</time>
      </trkpt>
      <trkpt lat="44.757399559020996" lon="9.055137634277344">
        <ele>592.3095703125</ele>
        <time>2005-09-23T08:59:33Z</time>
      </trkpt>
      <trkpt lat="44.757077693939209" lon="9.055609703063965">
        <ele>592.3095703125</ele>
        <time>2005-09-23T08:59:40Z</time>
      </trkpt>
      <trkpt lat="44.756906032562256" lon="9.055867195129395">
        <ele>592.790283203125</ele>
        <time>2005-09-23T08:59:46Z</time>
      </trkpt>
      <trkpt lat="44.756712913513184" lon="9.056210517883301">
        <ele>591.828857421875</ele>
        <time>2005-09-23T08:59:55Z</time>
      </trkpt>
      <trkpt lat="44.756627082824707" lon="9.056382179260254">
        <ele>590.867431640625</ele>
        <time>2005-09-23T08:59:59Z</time>
      </trkpt>
      <trkpt lat="44.756412506103516" lon="9.056575298309326">
        <ele>589.425537109375</ele>
        <time>2005-09-23T09:00:04Z</time>
      </trkpt>
      <trkpt lat="44.755790233612061" lon="9.056940078735352">
        <ele>587.502685546875</ele>
        <time>2005-09-23T09:00:16Z</time>
      </trkpt>
      <trkpt lat="44.755511283874512" lon="9.057197570800781">
        <ele>585.099609375</ele>
        <time>2005-09-23T09:00:21Z</time>
      </trkpt>
      <trkpt lat="44.755167961120605" lon="9.057819843292236">
        <ele>582.215576171875</ele>
        <time>2005-09-23T09:00:27Z</time>
      </trkpt>
      <trkpt lat="44.754889011383057" lon="9.0582275390625">
        <ele>585.099609375</ele>
        <time>2005-09-23T09:00:32Z</time>
      </trkpt>
      <trkpt lat="44.754652976989746" lon="9.058570861816406">
        <ele>587.02197265625</ele>
        <time>2005-09-23T09:00:38Z</time>
      </trkpt>
      <trkpt lat="44.754459857940674" lon="9.059150218963623">
        <ele>587.502685546875</ele>
        <time>2005-09-23T09:00:47Z</time>
      </trkpt>
      <trkpt lat="44.754352569580078" lon="9.059536457061768">
        <ele>587.9833984375</ele>
        <time>2005-09-23T09:00:53Z</time>
      </trkpt>
      <trkpt lat="44.754116535186768" lon="9.059815406799316">
        <ele>585.099609375</ele>
        <time>2005-09-23T09:00:59Z</time>
      </trkpt>
      <trkpt lat="44.753580093383789" lon="9.060158729553223">
        <ele>581.73486328125</ele>
        <time>2005-09-23T09:01:06Z</time>
      </trkpt>
      <trkpt lat="44.753129482269287" lon="9.060330390930176">
        <ele>580.773681640625</ele>
        <time>2005-09-23T09:01:12Z</time>
      </trkpt>
      <trkpt lat="44.752635955810547" lon="9.060437679290772">
        <ele>581.73486328125</ele>
        <time>2005-09-23T09:01:19Z</time>
      </trkpt>
      <trkpt lat="44.752571582794189" lon="9.060437679290772">
        <ele>581.73486328125</ele>
        <time>2005-09-23T09:01:20Z</time>
      </trkpt>
      <trkpt lat="44.752421379089355" lon="9.060502052307129">
        <ele>583.1767578125</ele>
        <time>2005-09-23T09:01:23Z</time>
      </trkpt>
      <trkpt lat="44.752163887023926" lon="9.060759544372559">
        <ele>585.580078125</ele>
        <time>2005-09-23T09:01:31Z</time>
      </trkpt>
      <trkpt lat="44.752078056335449" lon="9.060823917388916">
        <ele>585.099609375</ele>
        <time>2005-09-23T09:01:33Z</time>
      </trkpt>
      <trkpt lat="44.751670360565186" lon="9.061038494110107">
        <ele>583.657470703125</ele>
        <time>2005-09-23T09:01:41Z</time>
      </trkpt>
      <trkpt lat="44.751520156860352" lon="9.06123161315918">
        <ele>585.099609375</ele>
        <time>2005-09-23T09:01:45Z</time>
      </trkpt>
      <trkpt lat="44.751412868499756" lon="9.06146764755249">
        <ele>587.02197265625</ele>
        <time>2005-09-23T09:01:52Z</time>
      </trkpt>
      <trkpt lat="44.751369953155518" lon="9.061617851257324">
        <ele>587.502685546875</ele>
        <time>2005-09-23T09:01:59Z</time>
      </trkpt>
      <trkpt lat="44.751176834106445" lon="9.061939716339111">
        <ele>589.90625</ele>
        <time>2005-09-23T09:02:11Z</time>
      </trkpt>
      <trkpt lat="44.75106954574585" lon="9.062111377716065">
        <ele>591.34814453125</ele>
        <time>2005-09-23T09:02:20Z</time>
      </trkpt>
      <trkpt lat="44.750940799713135" lon="9.062325954437256">
        <ele>592.790283203125</ele>
        <time>2005-09-23T09:02:32Z</time>
      </trkpt>
      <trkpt lat="44.750790596008301" lon="9.062497615814209">
        <ele>594.712646484375</ele>
        <time>2005-09-23T09:02:42Z</time>
      </trkpt>
      <trkpt lat="44.750640392303467" lon="9.062647819519043">
        <ele>596.15478515625</ele>
        <time>2005-09-23T09:02:53Z</time>
      </trkpt>
      <trkpt lat="44.750533103942871" lon="9.062862396240234">
        <ele>598.557861328125</ele>
        <time>2005-09-23T09:03:03Z</time>
      </trkpt>
      <trkpt lat="44.750404357910156" lon="9.063141345977783">
        <ele>600</ele>
        <time>2005-09-23T09:03:15Z</time>
      </trkpt>
      <trkpt lat="44.750254154205322" lon="9.063355922698975">
        <ele>601.44189453125</ele>
        <time>2005-09-23T09:03:28Z</time>
      </trkpt>
      <trkpt lat="44.750146865844727" lon="9.063527584075928">
        <ele>602.403076171875</ele>
        <time>2005-09-23T09:03:38Z</time>
      </trkpt>
      <trkpt lat="44.750039577484131" lon="9.063742160797119">
        <ele>602.403076171875</ele>
        <time>2005-09-23T09:03:45Z</time>
      </trkpt>
      <trkpt lat="44.749825000762939" lon="9.064257144927979">
        <ele>602.403076171875</ele>
        <time>2005-09-23T09:03:55Z</time>
      </trkpt>
      <trkpt lat="44.749610424041748" lon="9.064879417419434">
        <ele>601.922607421875</ele>
        <time>2005-09-23T09:04:08Z</time>
      </trkpt>
      <trkpt lat="44.749546051025391" lon="9.065394401550293">
        <ele>600</ele>
        <time>2005-09-23T09:04:18Z</time>
      </trkpt>
      <trkpt lat="44.749460220336914" lon="9.065995216369629">
        <ele>602.403076171875</ele>
        <time>2005-09-23T09:04:29Z</time>
      </trkpt>
      <trkpt lat="44.749288558959961" lon="9.066488742828369">
        <ele>606.729248046875</ele>
        <time>2005-09-23T09:04:40Z</time>
      </trkpt>
      <trkpt lat="44.74907398223877" lon="9.066810607910156">
        <ele>609.132568359375</ele>
        <time>2005-09-23T09:04:50Z</time>
      </trkpt>
      <trkpt lat="44.748859405517578" lon="9.067153930664063">
        <ele>611.05517578125</ele>
        <time>2005-09-23T09:05:01Z</time>
      </trkpt>
      <trkpt lat="44.748795032501221" lon="9.067389965057373">
        <ele>612.977783203125</ele>
        <time>2005-09-23T09:05:10Z</time>
      </trkpt>
      <trkpt lat="44.748730659484863" lon="9.067776203155518">
        <ele>613.45849609375</ele>
        <time>2005-09-23T09:05:20Z</time>
      </trkpt>
      <trkpt lat="44.748666286468506" lon="9.068098068237305">
        <ele>613.45849609375</ele>
        <time>2005-09-23T09:05:29Z</time>
      </trkpt>
      <trkpt lat="44.748601913452148" lon="9.068419933319092">
        <ele>614.900390625</ele>
        <time>2005-09-23T09:05:39Z</time>
      </trkpt>
      <trkpt lat="44.748494625091553" lon="9.068570137023926">
        <ele>615.86181640625</ele>
        <time>2005-09-23T09:05:46Z</time>
      </trkpt>
      <trkpt lat="44.748344421386719" lon="9.068677425384522">
        <ele>617.7841796875</ele>
        <time>2005-09-23T09:05:57Z</time>
      </trkpt>
      <trkpt lat="44.748237133026123" lon="9.068784713745117">
        <ele>619.226318359375</ele>
        <time>2005-09-23T09:06:07Z</time>
      </trkpt>
      <trkpt lat="44.748129844665527" lon="9.06895637512207">
        <ele>619.70703125</ele>
        <time>2005-09-23T09:06:17Z</time>
      </trkpt>
      <trkpt lat="44.748044013977051" lon="9.069128036499023">
        <ele>621.629638671875</ele>
        <time>2005-09-23T09:06:27Z</time>
      </trkpt>
      <trkpt lat="44.747958183288574" lon="9.069385528564453">
        <ele>621.149169921875</ele>
        <time>2005-09-23T09:06:35Z</time>
      </trkpt>
      <trkpt lat="44.747850894927979" lon="9.069600105285645">
        <ele>622.1103515625</ele>
        <time>2005-09-23T09:06:42Z</time>
      </trkpt>
      <trkpt lat="44.747679233551025" lon="9.069921970367432">
        <ele>623.552490234375</ele>
        <time>2005-09-23T09:06:52Z</time>
      </trkpt>
      <trkpt lat="44.747529029846191" lon="9.0702223777771">
        <ele>624.513671875</ele>
        <time>2005-09-23T09:07:02Z</time>
      </trkpt>
      <trkpt lat="44.747464656829834" lon="9.07045841217041">
        <ele>623.552490234375</ele>
        <time>2005-09-23T09:07:09Z</time>
      </trkpt>
      <trkpt lat="44.747378826141357" lon="9.070758819580078">
        <ele>624.513671875</ele>
        <time>2005-09-23T09:07:17Z</time>
      </trkpt>
      <trkpt lat="44.747292995452881" lon="9.071037769317627">
        <ele>626.9169921875</ele>
        <time>2005-09-23T09:07:24Z</time>
      </trkpt>
      <trkpt lat="44.747207164764404" lon="9.071402549743652">
        <ele>626.9169921875</ele>
        <time>2005-09-23T09:07:34Z</time>
      </trkpt>
      <trkpt lat="44.747164249420166" lon="9.071681499481201">
        <ele>626.9169921875</ele>
        <time>2005-09-23T09:07:44Z</time>
      </trkpt>
      <trkpt lat="44.747099876403809" lon="9.071810245513916">
        <ele>625.95556640625</ele>
        <time>2005-09-23T09:07:49Z</time>
      </trkpt>
      <trkpt lat="44.747121334075928" lon="9.072132110595703">
        <ele>624.513671875</ele>
        <time>2005-09-23T09:07:53Z</time>
      </trkpt>
      <trkpt lat="44.747207164764404" lon="9.072368144989014">
        <ele>624.513671875</ele>
        <time>2005-09-23T09:07:56Z</time>
      </trkpt>
      <trkpt lat="44.747314453125" lon="9.072625637054443">
        <ele>626.436279296875</ele>
        <time>2005-09-23T09:08:02Z</time>
      </trkpt>
      <trkpt lat="44.747335910797119" lon="9.072883129119873">
        <ele>625.95556640625</ele>
        <time>2005-09-23T09:08:09Z</time>
      </trkpt>
      <trkpt lat="44.747400283813477" lon="9.073140621185303">
        <ele>624.994384765625</ele>
        <time>2005-09-23T09:08:15Z</time>
      </trkpt>
      <trkpt lat="44.747593402862549" lon="9.073569774627686">
        <ele>624.994384765625</ele>
        <time>2005-09-23T09:08:25Z</time>
      </trkpt>
      <trkpt lat="44.747786521911621" lon="9.074106216430664">
        <ele>625.95556640625</ele>
        <time>2005-09-23T09:08:34Z</time>
      </trkpt>
      <trkpt lat="44.74780797958374" lon="9.074342250823975">
        <ele>626.436279296875</ele>
        <time>2005-09-23T09:08:41Z</time>
      </trkpt>
      <trkpt lat="44.747786521911621" lon="9.074578285217285">
        <ele>625.95556640625</ele>
        <time>2005-09-23T09:08:49Z</time>
      </trkpt>
      <trkpt lat="44.747743606567383" lon="9.074749946594238">
        <ele>626.436279296875</ele>
        <time>2005-09-23T09:08:57Z</time>
      </trkpt>
      <trkpt lat="44.747700691223145" lon="9.07496452331543">
        <ele>627.397705078125</ele>
        <time>2005-09-23T09:09:07Z</time>
      </trkpt>
      <trkpt lat="44.747614860534668" lon="9.075264930725098">
        <ele>624.994384765625</ele>
        <time>2005-09-23T09:09:15Z</time>
      </trkpt>
      <trkpt lat="44.747679233551025" lon="9.075608253479004">
        <ele>623.552490234375</ele>
        <time>2005-09-23T09:09:21Z</time>
      </trkpt>
      <trkpt lat="44.747529029846191" lon="9.075994491577148">
        <ele>622.591064453125</ele>
        <time>2005-09-23T09:09:28Z</time>
      </trkpt>
      <trkpt lat="44.747486114501953" lon="9.076402187347412">
        <ele>624.513671875</ele>
        <time>2005-09-23T09:09:37Z</time>
      </trkpt>
      <trkpt lat="44.747486114501953" lon="9.076616764068604">
        <ele>624.994384765625</ele>
        <time>2005-09-23T09:09:46Z</time>
      </trkpt>
      <trkpt lat="44.747486114501953" lon="9.076745510101318">
        <ele>625.95556640625</ele>
        <time>2005-09-23T09:09:57Z</time>
      </trkpt>
      <trkpt lat="44.747486114501953" lon="9.076938629150391">
        <ele>630.281494140625</ele>
        <time>2005-09-23T09:10:12Z</time>
      </trkpt>
      <trkpt lat="44.747507572174072" lon="9.077088832855225">
        <ele>634.607421875</ele>
        <time>2005-09-23T09:10:25Z</time>
      </trkpt>
      <trkpt lat="44.74757194519043" lon="9.077260494232178">
        <ele>638.93359375</ele>
        <time>2005-09-23T09:10:38Z</time>
      </trkpt>
      <trkpt lat="44.747636318206787" lon="9.077346324920654">
        <ele>637.97216796875</ele>
        <time>2005-09-23T09:10:45Z</time>
      </trkpt>
      <trkpt lat="44.74780797958374" lon="9.077689647674561">
        <ele>636.049560546875</ele>
        <time>2005-09-23T09:10:55Z</time>
      </trkpt>
      <trkpt lat="44.747915267944336" lon="9.077990055084229">
        <ele>637.97216796875</ele>
        <time>2005-09-23T09:11:06Z</time>
      </trkpt>
      <trkpt lat="44.748022556304932" lon="9.078183174133301">
        <ele>637.0107421875</ele>
        <time>2005-09-23T09:11:18Z</time>
      </trkpt>
      <trkpt lat="44.748044013977051" lon="9.07820463180542">
        <ele>637.491455078125</ele>
        <time>2005-09-23T09:11:21Z</time>
      </trkpt>
      <trkpt lat="44.748129844665527" lon="9.078376293182373">
        <ele>639.4140625</ele>
        <time>2005-09-23T09:11:34Z</time>
      </trkpt>
      <trkpt lat="44.748151302337646" lon="9.078397750854492">
        <ele>640.37548828125</ele>
        <time>2005-09-23T09:11:41Z</time>
      </trkpt>
      <trkpt lat="44.748172760009766" lon="9.078526496887207">
        <ele>643.25927734375</ele>
        <time>2005-09-23T09:11:52Z</time>
      </trkpt>
      <trkpt lat="44.748194217681885" lon="9.078655242919922">
        <ele>645.181884765625</ele>
        <time>2005-09-23T09:12:05Z</time>
      </trkpt>
      <trkpt lat="44.748215675354004" lon="9.078783988952637">
        <ele>646.143310546875</ele>
        <time>2005-09-23T09:12:16Z</time>
      </trkpt>
      <trkpt lat="44.748215675354004" lon="9.078869819641113">
        <ele>644.220703125</ele>
        <time>2005-09-23T09:12:26Z</time>
      </trkpt>
      <trkpt lat="44.748258590698242" lon="9.079020023345947">
        <ele>645.66259765625</ele>
        <time>2005-09-23T09:12:39Z</time>
      </trkpt>
      <trkpt lat="44.748344421386719" lon="9.079127311706543">
        <ele>648.54638671875</ele>
        <time>2005-09-23T09:12:50Z</time>
      </trkpt>
      <trkpt lat="44.748451709747314" lon="9.079234600067139">
        <ele>651.9111328125</ele>
        <time>2005-09-23T09:13:04Z</time>
      </trkpt>
      <trkpt lat="44.748537540435791" lon="9.079363346099854">
        <ele>653.833984375</ele>
        <time>2005-09-23T09:13:18Z</time>
      </trkpt>
      <trkpt lat="44.748580455780029" lon="9.079492092132568">
        <ele>655.27587890625</ele>
        <time>2005-09-23T09:13:31Z</time>
      </trkpt>
      <trkpt lat="44.748623371124268" lon="9.079599380493164">
        <ele>655.27587890625</ele>
        <time>2005-09-23T09:13:43Z</time>
      </trkpt>
      <trkpt lat="44.748644828796387" lon="9.07970666885376">
        <ele>656.7177734375</ele>
        <time>2005-09-23T09:13:53Z</time>
      </trkpt>
      <trkpt lat="44.748666286468506" lon="9.079771041870117">
        <ele>657.67919921875</ele>
        <time>2005-09-23T09:13:59Z</time>
      </trkpt>
      <trkpt lat="44.748687744140625" lon="9.079899787902832">
        <ele>660.082275390625</ele>
        <time>2005-09-23T09:14:10Z</time>
      </trkpt>
      <trkpt lat="44.748687744140625" lon="9.080071449279785">
        <ele>661.043701171875</ele>
        <time>2005-09-23T09:14:22Z</time>
      </trkpt>
      <trkpt lat="44.748709201812744" lon="9.080178737640381">
        <ele>662.485595703125</ele>
        <time>2005-09-23T09:14:33Z</time>
      </trkpt>
      <trkpt lat="44.748752117156982" lon="9.080307483673096">
        <ele>663.927490234375</ele>
        <time>2005-09-23T09:14:46Z</time>
      </trkpt>
      <trkpt lat="44.748773574829102" lon="9.080436229705811">
        <ele>666.330810546875</ele>
        <time>2005-09-23T09:14:58Z</time>
      </trkpt>
      <trkpt lat="44.748795032501221" lon="9.080522060394287">
        <ele>666.8115234375</ele>
        <time>2005-09-23T09:15:09Z</time>
      </trkpt>
      <trkpt lat="44.74881649017334" lon="9.080607891082764">
        <ele>667.772705078125</ele>
        <time>2005-09-23T09:15:21Z</time>
      </trkpt>
      <trkpt lat="44.748859405517578" lon="9.080758094787598">
        <ele>669.215087890625</ele>
        <time>2005-09-23T09:15:34Z</time>
      </trkpt>
      <trkpt lat="44.748859405517578" lon="9.080908298492432">
        <ele>666.330810546875</ele>
        <time>2005-09-23T09:15:47Z</time>
      </trkpt>
      <trkpt lat="44.748859405517578" lon="9.08095121383667">
        <ele>665.36962890625</ele>
        <time>2005-09-23T09:15:50Z</time>
      </trkpt>
      <trkpt lat="44.74881649017334" lon="9.081079959869385">
        <ele>665.36962890625</ele>
        <time>2005-09-23T09:15:58Z</time>
      </trkpt>
      <trkpt lat="44.74881649017334" lon="9.0812087059021">
        <ele>665.850341796875</ele>
        <time>2005-09-23T09:16:04Z</time>
      </trkpt>
      <trkpt lat="44.748795032501221" lon="9.081380367279053">
        <ele>667.772705078125</ele>
        <time>2005-09-23T09:16:14Z</time>
      </trkpt>
      <trkpt lat="44.748795032501221" lon="9.081573486328125">
        <ele>670.656982421875</ele>
        <time>2005-09-23T09:16:24Z</time>
      </trkpt>
      <trkpt lat="44.748859405517578" lon="9.081745147705078">
        <ele>670.656982421875</ele>
        <time>2005-09-23T09:16:31Z</time>
      </trkpt>
      <trkpt lat="44.748859405517578" lon="9.081981182098389">
        <ele>672.57958984375</ele>
        <time>2005-09-23T09:16:42Z</time>
      </trkpt>
      <trkpt lat="44.748880863189697" lon="9.08219575881958">
        <ele>674.502197265625</ele>
        <time>2005-09-23T09:16:52Z</time>
      </trkpt>
      <trkpt lat="44.748945236206055" lon="9.082367420196533">
        <ele>675.46337890625</ele>
        <time>2005-09-23T09:17:02Z</time>
      </trkpt>
      <trkpt lat="44.74905252456665" lon="9.082560539245606">
        <ele>675.944091796875</ele>
        <time>2005-09-23T09:17:12Z</time>
      </trkpt>
      <trkpt lat="44.749116897583008" lon="9.082753658294678">
        <ele>675.944091796875</ele>
        <time>2005-09-23T09:17:22Z</time>
      </trkpt>
      <trkpt lat="44.749138355255127" lon="9.083011150360107">
        <ele>676.905517578125</ele>
        <time>2005-09-23T09:17:33Z</time>
      </trkpt>
      <trkpt lat="44.749181270599365" lon="9.083247184753418">
        <ele>678.347412109375</ele>
        <time>2005-09-23T09:17:43Z</time>
      </trkpt>
      <trkpt lat="44.749245643615723" lon="9.083526134490967">
        <ele>679.789306640625</ele>
        <time>2005-09-23T09:17:55Z</time>
      </trkpt>
      <trkpt lat="44.749245643615723" lon="9.083762168884277">
        <ele>680.750732421875</ele>
        <time>2005-09-23T09:18:05Z</time>
      </trkpt>
      <trkpt lat="44.749245643615723" lon="9.084019660949707">
        <ele>681.2314453125</ele>
        <time>2005-09-23T09:18:14Z</time>
      </trkpt>
      <trkpt lat="44.749288558959961" lon="9.084277153015137">
        <ele>682.67333984375</ele>
        <time>2005-09-23T09:18:25Z</time>
      </trkpt>
      <trkpt lat="44.749288558959961" lon="9.084513187408447">
        <ele>685.076904296875</ele>
        <time>2005-09-23T09:18:35Z</time>
      </trkpt>
      <trkpt lat="44.749245643615723" lon="9.084663391113281">
        <ele>686.999267578125</ele>
        <time>2005-09-23T09:18:43Z</time>
      </trkpt>
      <trkpt lat="44.749202728271484" lon="9.084856510162354">
        <ele>688.44140625</ele>
        <time>2005-09-23T09:18:53Z</time>
      </trkpt>
      <trkpt lat="44.749202728271484" lon="9.085071086883545">
        <ele>688.44140625</ele>
        <time>2005-09-23T09:19:04Z</time>
      </trkpt>
      <trkpt lat="44.749202728271484" lon="9.085221290588379">
        <ele>689.402587890625</ele>
        <time>2005-09-23T09:19:15Z</time>
      </trkpt>
      <trkpt lat="44.749202728271484" lon="9.085392951965332">
        <ele>689.402587890625</ele>
        <time>2005-09-23T09:19:26Z</time>
      </trkpt>
      <trkpt lat="44.749181270599365" lon="9.085607528686523">
        <ele>689.88330078125</ele>
        <time>2005-09-23T09:19:38Z</time>
      </trkpt>
      <trkpt lat="44.749138355255127" lon="9.085822105407715">
        <ele>690.364013671875</ele>
        <time>2005-09-23T09:19:48Z</time>
      </trkpt>
      <trkpt lat="44.749095439910889" lon="9.086122512817383">
        <ele>690.844482421875</ele>
        <time>2005-09-23T09:20:00Z</time>
      </trkpt>
      <trkpt lat="44.74907398223877" lon="9.086422920227051">
        <ele>688.44140625</ele>
        <time>2005-09-23T09:20:14Z</time>
      </trkpt>
      <trkpt lat="44.749095439910889" lon="9.086680412292481">
        <ele>687.47998046875</ele>
        <time>2005-09-23T09:20:25Z</time>
      </trkpt>
      <trkpt lat="44.749138355255127" lon="9.086916446685791">
        <ele>689.88330078125</ele>
        <time>2005-09-23T09:20:35Z</time>
      </trkpt>
      <trkpt lat="44.749159812927246" lon="9.087131023406982">
        <ele>692.28662109375</ele>
        <time>2005-09-23T09:20:47Z</time>
      </trkpt>
      <trkpt lat="44.749116897583008" lon="9.087388515472412">
        <ele>693.728515625</ele>
        <time>2005-09-23T09:21:01Z</time>
      </trkpt>
      <trkpt lat="44.749095439910889" lon="9.087581634521484">
        <ele>694.209228515625</ele>
        <time>2005-09-23T09:21:11Z</time>
      </trkpt>
      <trkpt lat="44.74907398223877" lon="9.087774753570557">
        <ele>696.612548828125</ele>
        <time>2005-09-23T09:21:22Z</time>
      </trkpt>
      <trkpt lat="44.749031066894531" lon="9.088010787963867">
        <ele>699.496337890625</ele>
        <time>2005-09-23T09:21:33Z</time>
      </trkpt>
      <trkpt lat="44.749031066894531" lon="9.08820390701294">
        <ele>701.419189453125</ele>
        <time>2005-09-23T09:21:43Z</time>
      </trkpt>
      <trkpt lat="44.749009609222412" lon="9.088418483734131">
        <ele>703.822509765625</ele>
        <time>2005-09-23T09:21:54Z</time>
      </trkpt>
      <trkpt lat="44.748945236206055" lon="9.088654518127441">
        <ele>706.706298828125</ele>
        <time>2005-09-23T09:22:05Z</time>
      </trkpt>
      <trkpt lat="44.748923778533936" lon="9.088847637176514">
        <ele>706.706298828125</ele>
        <time>2005-09-23T09:22:12Z</time>
      </trkpt>
      <trkpt lat="44.748859405517578" lon="9.089062213897705">
        <ele>707.18701171875</ele>
        <time>2005-09-23T09:22:18Z</time>
      </trkpt>
      <trkpt lat="44.748773574829102" lon="9.089233875274658">
        <ele>707.667724609375</ele>
        <time>2005-09-23T09:22:25Z</time>
      </trkpt>
      <trkpt lat="44.748644828796387" lon="9.089405536651611">
        <ele>709.109619140625</ele>
        <time>2005-09-23T09:22:34Z</time>
      </trkpt>
      <trkpt lat="44.748537540435791" lon="9.089555740356445">
        <ele>710.551513671875</ele>
        <time>2005-09-23T09:22:44Z</time>
      </trkpt>
      <trkpt lat="44.748387336730957" lon="9.089727401733398">
        <ele>711.0322265625</ele>
        <time>2005-09-23T09:22:55Z</time>
      </trkpt>
      <trkpt lat="44.748215675354004" lon="9.089856147766113">
        <ele>714.396728515625</ele>
        <time>2005-09-23T09:23:06Z</time>
      </trkpt>
      <trkpt lat="44.748129844665527" lon="9.089963436126709">
        <ele>716.80029296875</ele>
        <time>2005-09-23T09:23:15Z</time>
      </trkpt>
      <trkpt lat="44.748108386993408" lon="9.089984893798828">
        <ele>716.80029296875</ele>
        <time>2005-09-23T09:23:18Z</time>
      </trkpt>
      <trkpt lat="44.748001098632813" lon="9.090070724487305">
        <ele>716.319580078125</ele>
        <time>2005-09-23T09:23:26Z</time>
      </trkpt>
      <trkpt lat="44.747979640960693" lon="9.090113639831543">
        <ele>716.319580078125</ele>
        <time>2005-09-23T09:23:27Z</time>
      </trkpt>
      <trkpt lat="44.747786521911621" lon="9.090499877929688">
        <ele>715.8388671875</ele>
        <time>2005-09-23T09:23:33Z</time>
      </trkpt>
      <trkpt lat="44.747593402862549" lon="9.090757369995117">
        <ele>717.281005859375</ele>
        <time>2005-09-23T09:23:38Z</time>
      </trkpt>
      <trkpt lat="44.747421741485596" lon="9.091036319732666">
        <ele>718.2421875</ele>
        <time>2005-09-23T09:23:45Z</time>
      </trkpt>
      <trkpt lat="44.747314453125" lon="9.091143608093262">
        <ele>717.761474609375</ele>
        <time>2005-09-23T09:23:52Z</time>
      </trkpt>
      <trkpt lat="44.747121334075928" lon="9.091315269470215">
        <ele>717.761474609375</ele>
        <time>2005-09-23T09:24:01Z</time>
      </trkpt>
      <trkpt lat="44.746992588043213" lon="9.091379642486572">
        <ele>717.281005859375</ele>
        <time>2005-09-23T09:24:08Z</time>
      </trkpt>
      <trkpt lat="44.74682092666626" lon="9.091465473175049">
        <ele>715.8388671875</ele>
        <time>2005-09-23T09:24:17Z</time>
      </trkpt>
      <trkpt lat="44.746692180633545" lon="9.091529846191406">
        <ele>716.80029296875</ele>
        <time>2005-09-23T09:24:26Z</time>
      </trkpt>
      <trkpt lat="44.74656343460083" lon="9.091594219207764">
        <ele>717.281005859375</ele>
        <time>2005-09-23T09:24:35Z</time>
      </trkpt>
      <trkpt lat="44.746434688568115" lon="9.091658592224121">
        <ele>716.319580078125</ele>
        <time>2005-09-23T09:24:48Z</time>
      </trkpt>
      <trkpt lat="44.746348857879639" lon="9.09168004989624">
        <ele>716.319580078125</ele>
        <time>2005-09-23T09:24:56Z</time>
      </trkpt>
      <trkpt lat="44.746241569519043" lon="9.09168004989624">
        <ele>717.761474609375</ele>
        <time>2005-09-23T09:25:06Z</time>
      </trkpt>
      <trkpt lat="44.746177196502686" lon="9.091722965240479">
        <ele>722.08740234375</ele>
        <time>2005-09-23T09:25:16Z</time>
      </trkpt>
      <trkpt lat="44.746134281158447" lon="9.091830253601074">
        <ele>723.529541015625</ele>
        <time>2005-09-23T09:25:24Z</time>
      </trkpt>
      <trkpt lat="44.746112823486328" lon="9.092001914978027">
        <ele>725.451904296875</ele>
        <time>2005-09-23T09:25:37Z</time>
      </trkpt>
      <trkpt lat="44.746091365814209" lon="9.092173576354981">
        <ele>724.010009765625</ele>
        <time>2005-09-23T09:25:50Z</time>
      </trkpt>
      <trkpt lat="44.746048450469971" lon="9.092366695404053">
        <ele>727.855224609375</ele>
        <time>2005-09-23T09:26:03Z</time>
      </trkpt>
      <trkpt lat="44.746005535125732" lon="9.092538356781006">
        <ele>724.971435546875</ele>
        <time>2005-09-23T09:26:13Z</time>
      </trkpt>
      <trkpt lat="44.745898246765137" lon="9.092795848846436">
        <ele>727.374755859375</ele>
        <time>2005-09-23T09:26:26Z</time>
      </trkpt>
      <trkpt lat="44.745769500732422" lon="9.092988967895508">
        <ele>728.816650390625</ele>
        <time>2005-09-23T09:26:39Z</time>
      </trkpt>
      <trkpt lat="44.745597839355469" lon="9.093225002288818">
        <ele>729.77783203125</ele>
        <time>2005-09-23T09:26:52Z</time>
      </trkpt>
      <trkpt lat="44.745404720306396" lon="9.093375205993652">
        <ele>729.297119140625</ele>
        <time>2005-09-23T09:27:02Z</time>
      </trkpt>
      <trkpt lat="44.745147228240967" lon="9.093503952026367">
        <ele>731.700439453125</ele>
        <time>2005-09-23T09:27:15Z</time>
      </trkpt>
      <trkpt lat="44.744975566864014" lon="9.093568325042725">
        <ele>733.623291015625</ele>
        <time>2005-09-23T09:27:26Z</time>
      </trkpt>
      <trkpt lat="44.744803905487061" lon="9.093589782714844">
        <ele>734.584716796875</ele>
        <time>2005-09-23T09:27:36Z</time>
      </trkpt>
      <trkpt lat="44.744739532470703" lon="9.093654155731201">
        <ele>735.5458984375</ele>
        <time>2005-09-23T09:27:43Z</time>
      </trkpt>
      <trkpt lat="44.744803905487061" lon="9.09367561340332">
        <ele>735.5458984375</ele>
        <time>2005-09-23T09:27:49Z</time>
      </trkpt>
      <trkpt lat="44.744954109191895" lon="9.093718528747559">
        <ele>735.5458984375</ele>
        <time>2005-09-23T09:28:01Z</time>
      </trkpt>
      <trkpt lat="44.745104312896729" lon="9.093804359436035">
        <ele>737.468505859375</ele>
        <time>2005-09-23T09:28:14Z</time>
      </trkpt>
      <trkpt lat="44.745254516601563" lon="9.093868732452393">
        <ele>738.91064453125</ele>
        <time>2005-09-23T09:28:25Z</time>
      </trkpt>
      <trkpt lat="44.745383262634277" lon="9.09393310546875">
        <ele>740.8330078125</ele>
        <time>2005-09-23T09:28:35Z</time>
      </trkpt>
      <trkpt lat="44.745512008666992" lon="9.093997478485107">
        <ele>743.236328125</ele>
        <time>2005-09-23T09:28:46Z</time>
      </trkpt>
      <trkpt lat="44.745597839355469" lon="9.094061851501465">
        <ele>744.67822265625</ele>
        <time>2005-09-23T09:28:56Z</time>
      </trkpt>
      <trkpt lat="44.745640754699707" lon="9.094104766845703">
        <ele>745.158935546875</ele>
        <time>2005-09-23T09:29:04Z</time>
      </trkpt>
      <trkpt lat="44.745705127716064" lon="9.09419059753418">
        <ele>746.60107421875</ele>
        <time>2005-09-23T09:29:17Z</time>
      </trkpt>
      <trkpt lat="44.745726585388184" lon="9.094233512878418">
        <ele>744.67822265625</ele>
        <time>2005-09-23T09:29:33Z</time>
      </trkpt>
      <trkpt lat="44.745790958404541" lon="9.094362258911133">
        <ele>745.158935546875</ele>
        <time>2005-09-23T09:29:48Z</time>
      </trkpt>
      <trkpt lat="44.745855331420898" lon="9.094533920288086">
        <ele>746.60107421875</ele>
        <time>2005-09-23T09:30:05Z</time>
      </trkpt>
      <trkpt lat="44.745962619781494" lon="9.09468412399292">
        <ele>749.485107421875</ele>
        <time>2005-09-23T09:30:20Z</time>
      </trkpt>
      <trkpt lat="44.746048450469971" lon="9.094791412353516">
        <ele>750.927001953125</ele>
        <time>2005-09-23T09:30:33Z</time>
      </trkpt>
      <trkpt lat="44.746134281158447" lon="9.094920158386231">
        <ele>752.849609375</ele>
        <time>2005-09-23T09:30:49Z</time>
      </trkpt>
      <trkpt lat="44.746220111846924" lon="9.095048904418945">
        <ele>753.330322265625</ele>
        <time>2005-09-23T09:31:05Z</time>
      </trkpt>
      <trkpt lat="44.746284484863281" lon="9.095199108123779">
        <ele>753.330322265625</ele>
        <time>2005-09-23T09:31:20Z</time>
      </trkpt>
      <trkpt lat="44.74632740020752" lon="9.095306396484375">
        <ele>753.81103515625</ele>
        <time>2005-09-23T09:31:33Z</time>
      </trkpt>
      <trkpt lat="44.746370315551758" lon="9.095349311828613">
        <ele>760.5400390625</ele>
        <time>2005-09-23T09:33:44Z</time>
      </trkpt>
      <trkpt lat="44.746370315551758" lon="9.095563888549805">
        <ele>761.50146484375</ele>
        <time>2005-09-23T09:33:59Z</time>
      </trkpt>
      <trkpt lat="44.74632740020752" lon="9.095778465270996">
        <ele>762.462646484375</ele>
        <time>2005-09-23T09:34:14Z</time>
      </trkpt>
      <trkpt lat="44.746263027191162" lon="9.095971584320068">
        <ele>763.904541015625</ele>
        <time>2005-09-23T09:34:29Z</time>
      </trkpt>
      <trkpt lat="44.746177196502686" lon="9.096164703369141">
        <ele>764.8662109375</ele>
        <time>2005-09-23T09:34:44Z</time>
      </trkpt>
      <trkpt lat="44.746134281158447" lon="9.096293449401856">
        <ele>765.82763671875</ele>
        <time>2005-09-23T09:34:51Z</time>
      </trkpt>
      <trkpt lat="44.746048450469971" lon="9.096529483795166">
        <ele>766.30810546875</ele>
        <time>2005-09-23T09:35:00Z</time>
      </trkpt>
      <trkpt lat="44.746091365814209" lon="9.096829891204834">
        <ele>765.346923828125</ele>
        <time>2005-09-23T09:35:08Z</time>
      </trkpt>
      <trkpt lat="44.746241569519043" lon="9.097194671630859">
        <ele>764.8662109375</ele>
        <time>2005-09-23T09:35:14Z</time>
      </trkpt>
      <trkpt lat="44.746520519256592" lon="9.097816944122315">
        <ele>761.982177734375</ele>
        <time>2005-09-23T09:35:22Z</time>
      </trkpt>
      <trkpt lat="44.746799468994141" lon="9.098482131958008">
        <ele>760.059326171875</ele>
        <time>2005-09-23T09:35:31Z</time>
      </trkpt>
      <trkpt lat="44.746885299682617" lon="9.098696708679199">
        <ele>760.059326171875</ele>
        <time>2005-09-23T09:35:37Z</time>
      </trkpt>
      <trkpt lat="44.746971130371094" lon="9.099125862121582">
        <ele>761.020751953125</ele>
        <time>2005-09-23T09:35:49Z</time>
      </trkpt>
      <trkpt lat="44.74705696105957" lon="9.099533557891846">
        <ele>760.5400390625</ele>
        <time>2005-09-23T09:35:59Z</time>
      </trkpt>
      <trkpt lat="44.747185707092285" lon="9.099855422973633">
        <ele>759.578857421875</ele>
        <time>2005-09-23T09:36:10Z</time>
      </trkpt>
      <trkpt lat="44.747335910797119" lon="9.100134372711182">
        <ele>759.578857421875</ele>
        <time>2005-09-23T09:36:21Z</time>
      </trkpt>
      <trkpt lat="44.747357368469238" lon="9.10043478012085">
        <ele>760.059326171875</ele>
        <time>2005-09-23T09:36:30Z</time>
      </trkpt>
      <trkpt lat="44.747400283813477" lon="9.100885391235352">
        <ele>759.09814453125</ele>
        <time>2005-09-23T09:36:41Z</time>
      </trkpt>
      <trkpt lat="44.747486114501953" lon="9.101271629333496">
        <ele>760.059326171875</ele>
        <time>2005-09-23T09:36:50Z</time>
      </trkpt>
      <trkpt lat="44.747529029846191" lon="9.101722240447998">
        <ele>761.982177734375</ele>
        <time>2005-09-23T09:37:01Z</time>
      </trkpt>
      <trkpt lat="44.747529029846191" lon="9.102194309234619">
        <ele>762.462646484375</ele>
        <time>2005-09-23T09:37:13Z</time>
      </trkpt>
      <trkpt lat="44.74757194519043" lon="9.10266637802124">
        <ele>763.424072265625</ele>
        <time>2005-09-23T09:37:23Z</time>
      </trkpt>
      <trkpt lat="44.747657775878906" lon="9.103095531463623">
        <ele>764.8662109375</ele>
        <time>2005-09-23T09:37:33Z</time>
      </trkpt>
      <trkpt lat="44.747829437255859" lon="9.103310108184815">
        <ele>764.8662109375</ele>
        <time>2005-09-23T09:37:41Z</time>
      </trkpt>
      <trkpt lat="44.748151302337646" lon="9.103524684906006">
        <ele>765.346923828125</ele>
        <time>2005-09-23T09:37:54Z</time>
      </trkpt>
      <trkpt lat="44.748537540435791" lon="9.103717803955078">
        <ele>764.8662109375</ele>
        <time>2005-09-23T09:38:08Z</time>
      </trkpt>
      <trkpt lat="44.748902320861816" lon="9.103782176971436">
        <ele>768.71142578125</ele>
        <time>2005-09-23T09:38:21Z</time>
      </trkpt>
      <trkpt lat="44.749116897583008" lon="9.10391092300415">
        <ele>769.6728515625</ele>
        <time>2005-09-23T09:38:31Z</time>
      </trkpt>
      <trkpt lat="44.749267101287842" lon="9.104082584381104">
        <ele>770.1533203125</ele>
        <time>2005-09-23T09:38:41Z</time>
      </trkpt>
      <trkpt lat="44.749374389648438" lon="9.104211330413818">
        <ele>770.634033203125</ele>
        <time>2005-09-23T09:38:52Z</time>
      </trkpt>
      <trkpt lat="44.749352931976318" lon="9.104211330413818">
        <ele>770.634033203125</ele>
        <time>2005-09-23T09:38:59Z</time>
      </trkpt>
      <trkpt lat="44.749460220336914" lon="9.104297161102295">
        <ele>771.11474609375</ele>
        <time>2005-09-23T09:40:19Z</time>
      </trkpt>
      <trkpt lat="44.749653339385986" lon="9.104490280151367">
        <ele>772.556640625</ele>
        <time>2005-09-23T09:40:33Z</time>
      </trkpt>
      <trkpt lat="44.749825000762939" lon="9.104704856872559">
        <ele>775.4404296875</ele>
        <time>2005-09-23T09:40:47Z</time>
      </trkpt>
      <trkpt lat="44.749932289123535" lon="9.104855060577393">
        <ele>777.36328125</ele>
        <time>2005-09-23T09:40:56Z</time>
      </trkpt>
      <trkpt lat="44.750082492828369" lon="9.105069637298584">
        <ele>779.766357421875</ele>
        <time>2005-09-23T09:41:09Z</time>
      </trkpt>
      <trkpt lat="44.750211238861084" lon="9.105241298675537">
        <ele>782.169921875</ele>
        <time>2005-09-23T09:41:21Z</time>
      </trkpt>
      <trkpt lat="44.750382900238037" lon="9.105370044708252">
        <ele>783.131103515625</ele>
        <time>2005-09-23T09:41:33Z</time>
      </trkpt>
      <trkpt lat="44.75055456161499" lon="9.105477333068848">
        <ele>784.092529296875</ele>
        <time>2005-09-23T09:41:45Z</time>
      </trkpt>
      <trkpt lat="44.750747680664062" lon="9.105584621429443">
        <ele>784.5732421875</ele>
        <time>2005-09-23T09:41:58Z</time>
      </trkpt>
      <trkpt lat="44.750940799713135" lon="9.105691909790039">
        <ele>785.053955078125</ele>
        <time>2005-09-23T09:42:10Z</time>
      </trkpt>
      <trkpt lat="44.751112461090088" lon="9.105777740478516">
        <ele>785.053955078125</ele>
        <time>2005-09-23T09:42:22Z</time>
      </trkpt>
      <trkpt lat="44.75130558013916" lon="9.105906486511231">
        <ele>786.01513671875</ele>
        <time>2005-09-23T09:42:34Z</time>
      </trkpt>
      <trkpt lat="44.751455783843994" lon="9.106056690216065">
        <ele>787.45703125</ele>
        <time>2005-09-23T09:42:45Z</time>
      </trkpt>
      <trkpt lat="44.751605987548828" lon="9.106185436248779">
        <ele>789.8603515625</ele>
        <time>2005-09-23T09:42:56Z</time>
      </trkpt>
      <trkpt lat="44.7517991065979" lon="9.106292724609375">
        <ele>794.186279296875</ele>
        <time>2005-09-23T09:43:10Z</time>
      </trkpt>
      <trkpt lat="44.751970767974854" lon="9.106357097625732">
        <ele>796.109130859375</ele>
        <time>2005-09-23T09:43:22Z</time>
      </trkpt>
      <trkpt lat="44.752163887023926" lon="9.106485843658447">
        <ele>797.551025390625</ele>
        <time>2005-09-23T09:43:36Z</time>
      </trkpt>
      <trkpt lat="44.752357006072998" lon="9.106593132019043">
        <ele>798.992919921875</ele>
        <time>2005-09-23T09:43:49Z</time>
      </trkpt>
      <trkpt lat="44.752528667449951" lon="9.106614589691162">
        <ele>799.954345703125</ele>
        <time>2005-09-23T09:44:00Z</time>
      </trkpt>
      <trkpt lat="44.752678871154785" lon="9.106593132019043">
        <ele>801.876953125</ele>
        <time>2005-09-23T09:44:09Z</time>
      </trkpt>
      <trkpt lat="44.752871990203857" lon="9.106636047363281">
        <ele>805.241455078125</ele>
        <time>2005-09-23T09:44:22Z</time>
      </trkpt>
      <trkpt lat="44.752936363220215" lon="9.106721878051758">
        <ele>806.20263671875</ele>
        <time>2005-09-23T09:44:30Z</time>
      </trkpt>
      <trkpt lat="44.753043651580811" lon="9.106893539428711">
        <ele>806.683349609375</ele>
        <time>2005-09-23T09:44:42Z</time>
      </trkpt>
      <trkpt lat="44.753129482269287" lon="9.107108116149902">
        <ele>807.1640625</ele>
        <time>2005-09-23T09:44:55Z</time>
      </trkpt>
      <trkpt lat="44.753279685974121" lon="9.107322692871094">
        <ele>808.12548828125</ele>
        <time>2005-09-23T09:45:09Z</time>
      </trkpt>
      <trkpt lat="44.753344058990479" lon="9.107494354248047">
        <ele>808.60595703125</ele>
        <time>2005-09-23T09:45:19Z</time>
      </trkpt>
      <trkpt lat="44.753408432006836" lon="9.107751846313477">
        <ele>810.0478515625</ele>
        <time>2005-09-23T09:45:32Z</time>
      </trkpt>
      <trkpt lat="44.753408432006836" lon="9.108009338378906">
        <ele>810.528564453125</ele>
        <time>2005-09-23T09:45:44Z</time>
      </trkpt>
      <trkpt lat="44.753408432006836" lon="9.108331203460693">
        <ele>812.451416015625</ele>
        <time>2005-09-23T09:45:59Z</time>
      </trkpt>
      <trkpt lat="44.753386974334717" lon="9.108567237854004">
        <ele>813.893310546875</ele>
        <time>2005-09-23T09:46:10Z</time>
      </trkpt>
      <trkpt lat="44.75330114364624" lon="9.10891056060791">
        <ele>814.3740234375</ele>
        <time>2005-09-23T09:46:26Z</time>
      </trkpt>
      <trkpt lat="44.753258228302002" lon="9.109232425689697">
        <ele>815.33544921875</ele>
        <time>2005-09-23T09:46:36Z</time>
      </trkpt>
      <trkpt lat="44.753129482269287" lon="9.109683036804199">
        <ele>816.296630859375</ele>
        <time>2005-09-23T09:46:49Z</time>
      </trkpt>
      <trkpt lat="44.752957820892334" lon="9.110090732574463">
        <ele>815.33544921875</ele>
        <time>2005-09-23T09:46:57Z</time>
      </trkpt>
      <trkpt lat="44.752657413482666" lon="9.110541343688965">
        <ele>813.893310546875</ele>
        <time>2005-09-23T09:47:05Z</time>
      </trkpt>
      <trkpt lat="44.752614498138428" lon="9.110605716705322">
        <ele>813.412841796875</ele>
        <time>2005-09-23T09:47:06Z</time>
      </trkpt>
      <trkpt lat="44.752507209777832" lon="9.110970497131348">
        <ele>812.451416015625</ele>
        <time>2005-09-23T09:47:11Z</time>
      </trkpt>
      <trkpt lat="44.752528667449951" lon="9.111378192901611">
        <ele>813.412841796875</ele>
        <time>2005-09-23T09:47:20Z</time>
      </trkpt>
      <trkpt lat="44.752464294433594" lon="9.111721515655518">
        <ele>812.93212890625</ele>
        <time>2005-09-23T09:47:27Z</time>
      </trkpt>
      <trkpt lat="44.752399921417236" lon="9.1121506690979">
        <ele>814.854736328125</ele>
        <time>2005-09-23T09:47:36Z</time>
      </trkpt>
      <trkpt lat="44.752399921417236" lon="9.112493991851807">
        <ele>814.854736328125</ele>
        <time>2005-09-23T09:47:46Z</time>
      </trkpt>
      <trkpt lat="44.752421379089355" lon="9.112794399261475">
        <ele>815.33544921875</ele>
        <time>2005-09-23T09:47:55Z</time>
      </trkpt>
      <trkpt lat="44.752485752105713" lon="9.113051891326904">
        <ele>814.854736328125</ele>
        <time>2005-09-23T09:48:03Z</time>
      </trkpt>
      <trkpt lat="44.752485752105713" lon="9.113073348999023">
        <ele>814.854736328125</ele>
        <time>2005-09-23T09:48:09Z</time>
      </trkpt>
      <trkpt lat="44.752485752105713" lon="9.113073348999023">
        <ele>815.816162109375</ele>
        <time>2005-09-23T09:48:14Z</time>
      </trkpt>
      <trkpt lat="44.752464294433594" lon="9.113030433654785">
        <ele>817.738525390625</ele>
        <time>2005-09-23T09:48:21Z</time>
      </trkpt>
      <trkpt lat="44.752442836761475" lon="9.113030433654785">
        <ele>820.62255859375</ele>
        <time>2005-09-23T09:48:30Z</time>
      </trkpt>
      <trkpt lat="44.752399921417236" lon="9.113030433654785">
        <ele>822.064453125</ele>
        <time>2005-09-23T09:48:39Z</time>
      </trkpt>
      <trkpt lat="44.752335548400879" lon="9.113030433654785">
        <ele>822.064453125</ele>
        <time>2005-09-23T09:48:48Z</time>
      </trkpt>
      <trkpt lat="44.752271175384521" lon="9.113008975982666">
        <ele>822.064453125</ele>
        <time>2005-09-23T09:48:58Z</time>
      </trkpt>
      <trkpt lat="44.752249717712402" lon="9.113051891326904">
        <ele>824.4677734375</ele>
        <time>2005-09-23T09:49:07Z</time>
      </trkpt>
      <trkpt lat="44.752271175384521" lon="9.113202095031738">
        <ele>824.4677734375</ele>
        <time>2005-09-23T09:49:21Z</time>
      </trkpt>
      <trkpt lat="44.752249717712402" lon="9.113287925720215">
        <ele>825.428955078125</ele>
        <time>2005-09-23T09:49:30Z</time>
      </trkpt>
      <trkpt lat="44.752249717712402" lon="9.113287925720215">
        <ele>826.87109375</ele>
        <time>2005-09-23T09:49:41Z</time>
      </trkpt>
      <trkpt lat="44.752185344696045" lon="9.113309383392334">
        <ele>828.7939453125</ele>
        <time>2005-09-23T09:51:55Z</time>
      </trkpt>
      <trkpt lat="44.752120971679688" lon="9.113395214080811">
        <ele>830.716552734375</ele>
        <time>2005-09-23T09:52:07Z</time>
      </trkpt>
      <trkpt lat="44.751992225646973" lon="9.113395214080811">
        <ele>833.11962890625</ele>
        <time>2005-09-23T09:52:23Z</time>
      </trkpt>
      <trkpt lat="44.751906394958496" lon="9.113352298736572">
        <ele>835.52294921875</ele>
        <time>2005-09-23T09:52:37Z</time>
      </trkpt>
      <trkpt lat="44.751842021942139" lon="9.113309383392334">
        <ele>837.92626953125</ele>
        <time>2005-09-23T09:52:52Z</time>
      </trkpt>
      <trkpt lat="44.751777648925781" lon="9.113266468048096">
        <ele>838.406982421875</ele>
        <time>2005-09-23T09:53:08Z</time>
      </trkpt>
      <trkpt lat="44.751691818237305" lon="9.113202095031738">
        <ele>840.32958984375</ele>
        <time>2005-09-23T09:53:21Z</time>
      </trkpt>
      <trkpt lat="44.751627445220947" lon="9.113116264343262">
        <ele>841.290771484375</ele>
        <time>2005-09-23T09:53:34Z</time>
      </trkpt>
      <trkpt lat="44.751541614532471" lon="9.113030433654785">
        <ele>841.771484375</ele>
        <time>2005-09-23T09:53:46Z</time>
      </trkpt>
      <trkpt lat="44.751477241516113" lon="9.112987518310547">
        <ele>843.21337890625</ele>
        <time>2005-09-23T09:54:00Z</time>
      </trkpt>
      <trkpt lat="44.751455783843994" lon="9.11292314529419">
        <ele>843.21337890625</ele>
        <time>2005-09-23T09:54:12Z</time>
      </trkpt>
      <trkpt lat="44.751369953155518" lon="9.112815856933594">
        <ele>843.21337890625</ele>
        <time>2005-09-23T09:54:24Z</time>
      </trkpt>
      <trkpt lat="44.751284122467041" lon="9.112708568572998">
        <ele>844.175048828125</ele>
        <time>2005-09-23T09:54:36Z</time>
      </trkpt>
      <trkpt lat="44.751198291778564" lon="9.112601280212402">
        <ele>845.616943359375</ele>
        <time>2005-09-23T09:54:49Z</time>
      </trkpt>
      <trkpt lat="44.751091003417969" lon="9.112493991851807">
        <ele>847.53955078125</ele>
        <time>2005-09-23T09:55:02Z</time>
      </trkpt>
      <trkpt lat="44.751026630401611" lon="9.112429618835449">
        <ele>850.904052734375</ele>
        <time>2005-09-23T09:55:12Z</time>
      </trkpt>
      <trkpt lat="44.750983715057373" lon="9.112386703491211">
        <ele>852.345947265625</ele>
        <time>2005-09-23T09:55:20Z</time>
      </trkpt>
      <trkpt lat="44.750897884368896" lon="9.112257957458496">
        <ele>855.710693359375</ele>
        <time>2005-09-23T09:55:35Z</time>
      </trkpt>
      <trkpt lat="44.75081205368042" lon="9.1121506690979">
        <ele>859.0751953125</ele>
        <time>2005-09-23T09:55:47Z</time>
      </trkpt>
      <trkpt lat="44.750747680664062" lon="9.112043380737305">
        <ele>861.478759765625</ele>
        <time>2005-09-23T09:56:01Z</time>
      </trkpt>
      <trkpt lat="44.750683307647705" lon="9.111893177032471">
        <ele>863.4013671875</ele>
        <time>2005-09-23T09:56:15Z</time>
      </trkpt>
      <trkpt lat="44.750640392303467" lon="9.111742973327637">
        <ele>865.8046875</ele>
        <time>2005-09-23T09:56:30Z</time>
      </trkpt>
      <trkpt lat="44.750597476959229" lon="9.111614227294922">
        <ele>867.24658203125</ele>
        <time>2005-09-23T09:56:42Z</time>
      </trkpt>
      <trkpt lat="44.750597476959229" lon="9.111571311950684">
        <ele>867.72705078125</ele>
        <time>2005-09-23T09:56:54Z</time>
      </trkpt>
      <trkpt lat="44.75055456161499" lon="9.111506938934326">
        <ele>869.169189453125</ele>
        <time>2005-09-23T09:57:11Z</time>
      </trkpt>
      <trkpt lat="44.750468730926514" lon="9.11142110824585">
        <ele>871.091796875</ele>
        <time>2005-09-23T09:57:25Z</time>
      </trkpt>
      <trkpt lat="44.750361442565918" lon="9.111378192901611">
        <ele>874.456298828125</ele>
        <time>2005-09-23T09:57:42Z</time>
      </trkpt>
      <trkpt lat="44.750254154205322" lon="9.111356735229492">
        <ele>876.85986328125</ele>
        <time>2005-09-23T09:57:56Z</time>
      </trkpt>
      <trkpt lat="44.750189781188965" lon="9.111335277557373">
        <ele>878.782470703125</ele>
        <time>2005-09-23T09:58:12Z</time>
      </trkpt>
      <trkpt lat="44.750125408172607" lon="9.111292362213135">
        <ele>880.705078125</ele>
        <time>2005-09-23T09:58:29Z</time>
      </trkpt>
      <trkpt lat="44.750018119812012" lon="9.111227989196777">
        <ele>883.108154296875</ele>
        <time>2005-09-23T09:58:45Z</time>
      </trkpt>
      <trkpt lat="44.749932289123535" lon="9.11116361618042">
        <ele>885.511474609375</ele>
        <time>2005-09-23T09:59:01Z</time>
      </trkpt>
      <trkpt lat="44.749932289123535" lon="9.11116361618042">
        <ele>882.627685546875</ele>
        <time>2005-09-23T09:59:26Z</time>
      </trkpt>
      <trkpt lat="44.749910831451416" lon="9.111120700836182">
        <ele>880.224365234375</ele>
        <time>2005-09-23T10:00:23Z</time>
      </trkpt>
      <trkpt lat="44.74980354309082" lon="9.111013412475586">
        <ele>882.14697265625</ele>
        <time>2005-09-23T10:00:40Z</time>
      </trkpt>
      <trkpt lat="44.749674797058105" lon="9.110884666442871">
        <ele>885.511474609375</ele>
        <time>2005-09-23T10:00:58Z</time>
      </trkpt>
      <trkpt lat="44.749610424041748" lon="9.110798835754395">
        <ele>885.031005859375</ele>
        <time>2005-09-23T10:01:09Z</time>
      </trkpt>
      <trkpt lat="44.749460220336914" lon="9.110691547393799">
        <ele>889.356689453125</ele>
        <time>2005-09-23T10:01:26Z</time>
      </trkpt>
      <trkpt lat="44.749288558959961" lon="9.11067008972168">
        <ele>894.64404296875</ele>
        <time>2005-09-23T10:01:43Z</time>
      </trkpt>
      <trkpt lat="44.749181270599365" lon="9.110627174377441">
        <ele>897.04736328125</ele>
        <time>2005-09-23T10:01:58Z</time>
      </trkpt>
      <trkpt lat="44.749031066894531" lon="9.110584259033203">
        <ele>897.528076171875</ele>
        <time>2005-09-23T10:02:15Z</time>
      </trkpt>
      <trkpt lat="44.748880863189697" lon="9.110562801361084">
        <ele>898.0087890625</ele>
        <time>2005-09-23T10:02:31Z</time>
      </trkpt>
      <trkpt lat="44.748752117156982" lon="9.110562801361084">
        <ele>898.969970703125</ele>
        <time>2005-09-23T10:02:46Z</time>
      </trkpt>
      <trkpt lat="44.748623371124268" lon="9.110584259033203">
        <ele>899.931396484375</ele>
        <time>2005-09-23T10:03:00Z</time>
      </trkpt>
      <trkpt lat="44.748494625091553" lon="9.110605716705322">
        <ele>899.931396484375</ele>
        <time>2005-09-23T10:03:16Z</time>
      </trkpt>
      <trkpt lat="44.748365879058838" lon="9.110648632049561">
        <ele>901.85400390625</ele>
        <time>2005-09-23T10:03:32Z</time>
      </trkpt>
      <trkpt lat="44.748280048370361" lon="9.11067008972168">
        <ele>903.2958984375</ele>
        <time>2005-09-23T10:03:42Z</time>
      </trkpt>
      <trkpt lat="44.748151302337646" lon="9.110691547393799">
        <ele>906.660400390625</ele>
        <time>2005-09-23T10:03:56Z</time>
      </trkpt>
      <trkpt lat="44.74806547164917" lon="9.110691547393799">
        <ele>909.06396484375</ele>
        <time>2005-09-23T10:04:10Z</time>
      </trkpt>
      <trkpt lat="44.747958183288574" lon="9.110691547393799">
        <ele>910.986572265625</ele>
        <time>2005-09-23T10:04:23Z</time>
      </trkpt>
      <trkpt lat="44.747915267944336" lon="9.110691547393799">
        <ele>911.947998046875</ele>
        <time>2005-09-23T10:04:35Z</time>
      </trkpt>
      <trkpt lat="44.747872352600098" lon="9.11067008972168">
        <ele>913.389892578125</ele>
        <time>2005-09-23T10:05:08Z</time>
      </trkpt>
      <trkpt lat="44.747765064239502" lon="9.110648632049561">
        <ele>914.831787109375</ele>
        <time>2005-09-23T10:05:21Z</time>
      </trkpt>
      <trkpt lat="44.747657775878906" lon="9.110648632049561">
        <ele>916.75439453125</ele>
        <time>2005-09-23T10:05:37Z</time>
      </trkpt>
      <trkpt lat="44.74757194519043" lon="9.110691547393799">
        <ele>917.715576171875</ele>
        <time>2005-09-23T10:05:49Z</time>
      </trkpt>
      <trkpt lat="44.747507572174072" lon="9.110755920410156">
        <ele>919.15771484375</ele>
        <time>2005-09-23T10:05:59Z</time>
      </trkpt>
      <trkpt lat="44.747421741485596" lon="9.110777378082275">
        <ele>920.118896484375</ele>
        <time>2005-09-23T10:06:09Z</time>
      </trkpt>
      <trkpt lat="44.747357368469238" lon="9.110798835754395">
        <ele>921.080322265625</ele>
        <time>2005-09-23T10:06:20Z</time>
      </trkpt>
      <trkpt lat="44.747357368469238" lon="9.110798835754395">
        <ele>923.0029296875</ele>
        <time>2005-09-23T10:06:50Z</time>
      </trkpt>
      <trkpt lat="44.747292995452881" lon="9.110798835754395">
        <ele>923.483642578125</ele>
        <time>2005-09-23T10:06:56Z</time>
      </trkpt>
      <trkpt lat="44.747185707092285" lon="9.110841751098633">
        <ele>923.964111328125</ele>
        <time>2005-09-23T10:07:08Z</time>
      </trkpt>
      <trkpt lat="44.747099876403809" lon="9.110949039459229">
        <ele>926.36767578125</ele>
        <time>2005-09-23T10:07:19Z</time>
      </trkpt>
      <trkpt lat="44.747035503387451" lon="9.111056327819824">
        <ele>927.8095703125</ele>
        <time>2005-09-23T10:07:29Z</time>
      </trkpt>
      <trkpt lat="44.746992588043213" lon="9.111142158508301">
        <ele>928.77099609375</ele>
        <time>2005-09-23T10:07:38Z</time>
      </trkpt>
      <trkpt lat="44.746949672698975" lon="9.111227989196777">
        <ele>929.732177734375</ele>
        <time>2005-09-23T10:07:47Z</time>
      </trkpt>
      <trkpt lat="44.746842384338379" lon="9.111292362213135">
        <ele>930.212890625</ele>
        <time>2005-09-23T10:07:59Z</time>
      </trkpt>
      <trkpt lat="44.746735095977783" lon="9.111335277557373">
        <ele>931.17431640625</ele>
        <time>2005-09-23T10:08:11Z</time>
      </trkpt>
      <trkpt lat="44.746627807617188" lon="9.111399650573731">
        <ele>932.6162109375</ele>
        <time>2005-09-23T10:08:22Z</time>
      </trkpt>
      <trkpt lat="44.746541976928711" lon="9.111442565917969">
        <ele>935.01953125</ele>
        <time>2005-09-23T10:08:34Z</time>
      </trkpt>
      <trkpt lat="44.746456146240234" lon="9.111485481262207">
        <ele>935.980712890625</ele>
        <time>2005-09-23T10:08:44Z</time>
      </trkpt>
      <trkpt lat="44.746348857879639" lon="9.111528396606445">
        <ele>937.9033203125</ele>
        <time>2005-09-23T10:08:56Z</time>
      </trkpt>
      <trkpt lat="44.746284484863281" lon="9.111571311950684">
        <ele>937.9033203125</ele>
        <time>2005-09-23T10:09:03Z</time>
      </trkpt>
      <trkpt lat="44.746220111846924" lon="9.11165714263916">
        <ele>937.9033203125</ele>
        <time>2005-09-23T10:09:14Z</time>
      </trkpt>
      <trkpt lat="44.746220111846924" lon="9.111678600311279">
        <ele>938.384033203125</ele>
        <time>2005-09-23T10:09:19Z</time>
      </trkpt>
      <trkpt lat="44.746198654174805" lon="9.111807346343994">
        <ele>938.86474609375</ele>
        <time>2005-09-23T10:09:31Z</time>
      </trkpt>
      <trkpt lat="44.746198654174805" lon="9.11191463470459">
        <ele>938.86474609375</ele>
        <time>2005-09-23T10:09:43Z</time>
      </trkpt>
      <trkpt lat="44.746177196502686" lon="9.112021923065186">
        <ele>938.86474609375</ele>
        <time>2005-09-23T10:09:54Z</time>
      </trkpt>
      <trkpt lat="44.746134281158447" lon="9.1121506690979">
        <ele>938.86474609375</ele>
        <time>2005-09-23T10:10:07Z</time>
      </trkpt>
      <trkpt lat="44.746155738830566" lon="9.1121506690979">
        <ele>938.86474609375</ele>
        <time>2005-09-23T10:10:18Z</time>
      </trkpt>
      <trkpt lat="44.746198654174805" lon="9.112279415130615">
        <ele>942.2294921875</ele>
        <time>2005-09-23T10:11:59Z</time>
      </trkpt>
      <trkpt lat="44.746198654174805" lon="9.112322330474854">
        <ele>942.2294921875</ele>
        <time>2005-09-23T10:12:03Z</time>
      </trkpt>
      <trkpt lat="44.746134281158447" lon="9.112493991851807">
        <ele>942.2294921875</ele>
        <time>2005-09-23T10:12:17Z</time>
      </trkpt>
      <trkpt lat="44.746091365814209" lon="9.112622737884522">
        <ele>945.593994140625</ele>
        <time>2005-09-23T10:12:29Z</time>
      </trkpt>
      <trkpt lat="44.74606990814209" lon="9.112730026245117">
        <ele>948.95849609375</ele>
        <time>2005-09-23T10:12:41Z</time>
      </trkpt>
      <trkpt lat="44.746048450469971" lon="9.112815856933594">
        <ele>950.881103515625</ele>
        <time>2005-09-23T10:12:51Z</time>
      </trkpt>
      <trkpt lat="44.746048450469971" lon="9.112858772277832">
        <ele>952.8037109375</ele>
        <time>2005-09-23T10:14:16Z</time>
      </trkpt>
      <trkpt lat="44.745962619781494" lon="9.112944602966309">
        <ele>953.76513671875</ele>
        <time>2005-09-23T10:14:28Z</time>
      </trkpt>
      <trkpt lat="44.745876789093018" lon="9.112987518310547">
        <ele>954.245849609375</ele>
        <time>2005-09-23T10:14:39Z</time>
      </trkpt>
      <trkpt lat="44.745769500732422" lon="9.113030433654785">
        <ele>954.726318359375</ele>
        <time>2005-09-23T10:14:50Z</time>
      </trkpt>
      <trkpt lat="44.745683670043945" lon="9.113051891326904">
        <ele>952.322998046875</ele>
        <time>2005-09-23T10:14:59Z</time>
      </trkpt>
      <trkpt lat="44.745619297027588" lon="9.113116264343262">
        <ele>955.687744140625</ele>
        <time>2005-09-23T10:15:10Z</time>
      </trkpt>
      <trkpt lat="44.74555492401123" lon="9.113094806671143">
        <ele>957.1298828125</ele>
        <time>2005-09-23T10:15:20Z</time>
      </trkpt>
      <trkpt lat="44.745512008666992" lon="9.113008975982666">
        <ele>957.610595703125</ele>
        <time>2005-09-23T10:15:32Z</time>
      </trkpt>
      <trkpt lat="44.745512008666992" lon="9.112880229949951">
        <ele>958.09130859375</ele>
        <time>2005-09-23T10:15:43Z</time>
      </trkpt>
      <trkpt lat="44.74555492401123" lon="9.112730026245117">
        <ele>959.052490234375</ele>
        <time>2005-09-23T10:15:55Z</time>
      </trkpt>
      <trkpt lat="44.745597839355469" lon="9.112601280212402">
        <ele>961.9365234375</ele>
        <time>2005-09-23T10:16:08Z</time>
      </trkpt>
      <trkpt lat="44.745619297027588" lon="9.112451076507568">
        <ele>963.37841796875</ele>
        <time>2005-09-23T10:16:21Z</time>
      </trkpt>
      <trkpt lat="44.745640754699707" lon="9.112343788146973">
        <ele>965.78173828125</ele>
        <time>2005-09-23T10:16:33Z</time>
      </trkpt>
      <trkpt lat="44.745662212371826" lon="9.112193584442139">
        <ele>968.184814453125</ele>
        <time>2005-09-23T10:16:46Z</time>
      </trkpt>
      <trkpt lat="44.745640754699707" lon="9.112086296081543">
        <ele>969.626953125</ele>
        <time>2005-09-23T10:16:57Z</time>
      </trkpt>
      <trkpt lat="44.74557638168335" lon="9.112000465393066">
        <ele>972.0302734375</ele>
        <time>2005-09-23T10:17:09Z</time>
      </trkpt>
      <trkpt lat="44.745512008666992" lon="9.111936092376709">
        <ele>973.952880859375</ele>
        <time>2005-09-23T10:17:21Z</time>
      </trkpt>
      <trkpt lat="44.745490550994873" lon="9.111936092376709">
        <ele>973.952880859375</ele>
        <time>2005-09-23T10:17:30Z</time>
      </trkpt>
      <trkpt lat="44.745340347290039" lon="9.111828804016113">
        <ele>976.356201171875</ele>
        <time>2005-09-23T10:17:45Z</time>
      </trkpt>
      <trkpt lat="44.745254516601563" lon="9.111742973327637">
        <ele>977.798095703125</ele>
        <time>2005-09-23T10:17:56Z</time>
      </trkpt>
      <trkpt lat="44.745125770568848" lon="9.111635684967041">
        <ele>979.239990234375</ele>
        <time>2005-09-23T10:18:09Z</time>
      </trkpt>
      <trkpt lat="44.745039939880371" lon="9.111485481262207">
        <ele>980.68212890625</ele>
        <time>2005-09-23T10:18:22Z</time>
      </trkpt>
      <trkpt lat="44.745018482208252" lon="9.111356735229492">
        <ele>981.643310546875</ele>
        <time>2005-09-23T10:18:32Z</time>
      </trkpt>
      <trkpt lat="44.745018482208252" lon="9.111185073852539">
        <ele>983.085205078125</ele>
        <time>2005-09-23T10:18:43Z</time>
      </trkpt>
      <trkpt lat="44.745018482208252" lon="9.111034870147705">
        <ele>985.008056640625</ele>
        <time>2005-09-23T10:18:54Z</time>
      </trkpt>
      <trkpt lat="44.745018482208252" lon="9.110927581787109">
        <ele>985.96923828125</ele>
        <time>2005-09-23T10:19:03Z</time>
      </trkpt>
      <trkpt lat="44.745018482208252" lon="9.110820293426514">
        <ele>986.930419921875</ele>
        <time>2005-09-23T10:19:12Z</time>
      </trkpt>
      <trkpt lat="44.744975566864014" lon="9.110734462738037">
        <ele>988.372802734375</ele>
        <time>2005-09-23T10:19:20Z</time>
      </trkpt>
      <trkpt lat="44.744975566864014" lon="9.110713005065918">
        <ele>988.372802734375</ele>
        <time>2005-09-23T10:19:22Z</time>
      </trkpt>
      <trkpt lat="44.744889736175537" lon="9.110627174377441">
        <ele>988.372802734375</ele>
        <time>2005-09-23T10:19:32Z</time>
      </trkpt>
      <trkpt lat="44.74482536315918" lon="9.110605716705322">
        <ele>988.853515625</ele>
        <time>2005-09-23T10:19:41Z</time>
      </trkpt>
      <trkpt lat="44.744760990142822" lon="9.110584259033203">
        <ele>987.891845703125</ele>
        <time>2005-09-23T10:19:49Z</time>
      </trkpt>
      <trkpt lat="44.744675159454346" lon="9.110584259033203">
        <ele>989.333984375</ele>
        <time>2005-09-23T10:20:02Z</time>
      </trkpt>
      <trkpt lat="44.744589328765869" lon="9.110605716705322">
        <ele>989.333984375</ele>
        <time>2005-09-23T10:20:15Z</time>
      </trkpt>
      <trkpt lat="44.744524955749512" lon="9.11067008972168">
        <ele>991.256591796875</ele>
        <time>2005-09-23T10:20:27Z</time>
      </trkpt>
      <trkpt lat="44.744439125061035" lon="9.110713005065918">
        <ele>993.659912109375</ele>
        <time>2005-09-23T10:20:40Z</time>
      </trkpt>
      <trkpt lat="44.744353294372559" lon="9.110777378082275">
        <ele>995.101806640625</ele>
        <time>2005-09-23T10:20:54Z</time>
      </trkpt>
      <trkpt lat="44.744288921356201" lon="9.110863208770752">
        <ele>996.5439453125</ele>
        <time>2005-09-23T10:21:05Z</time>
      </trkpt>
      <trkpt lat="44.744246006011963" lon="9.110970497131348">
        <ele>998.46630859375</ele>
        <time>2005-09-23T10:21:17Z</time>
      </trkpt>
      <trkpt lat="44.744267463684082" lon="9.110970497131348">
        <ele>997.98583984375</ele>
        <time>2005-09-23T10:21:28Z</time>
      </trkpt>
      <trkpt lat="44.744246006011963" lon="9.111056327819824">
        <ele>997.98583984375</ele>
        <time>2005-09-23T10:21:55Z</time>
      </trkpt>
      <trkpt lat="44.744224548339844" lon="9.111185073852539">
        <ele>997.98583984375</ele>
        <time>2005-09-23T10:22:07Z</time>
      </trkpt>
      <trkpt lat="44.744203090667725" lon="9.111335277557373">
        <ele>997.98583984375</ele>
        <time>2005-09-23T10:22:22Z</time>
      </trkpt>
      <trkpt lat="44.744181632995605" lon="9.111485481262207">
        <ele>998.46630859375</ele>
        <time>2005-09-23T10:22:35Z</time>
      </trkpt>
      <trkpt lat="44.744160175323486" lon="9.111614227294922">
        <ele>998.46630859375</ele>
        <time>2005-09-23T10:22:47Z</time>
      </trkpt>
      <trkpt lat="44.744117259979248" lon="9.111742973327637">
        <ele>998.46630859375</ele>
        <time>2005-09-23T10:23:01Z</time>
      </trkpt>
      <trkpt lat="44.744095802307129" lon="9.111850261688232">
        <ele>998.947021484375</ele>
        <time>2005-09-23T10:23:11Z</time>
      </trkpt>
      <trkpt lat="44.744117259979248" lon="9.111979007720947">
        <ele>998.947021484375</ele>
        <time>2005-09-23T10:23:24Z</time>
      </trkpt>
      <trkpt lat="44.744117259979248" lon="9.112086296081543">
        <ele>999.427734375</ele>
        <time>2005-09-23T10:23:35Z</time>
      </trkpt>
      <trkpt lat="44.744138717651367" lon="9.112236499786377">
        <ele>999.427734375</ele>
        <time>2005-09-23T10:23:51Z</time>
      </trkpt>
      <trkpt lat="44.744160175323486" lon="9.112365245819092">
        <ele>999.908447265625</ele>
        <time>2005-09-23T10:24:04Z</time>
      </trkpt>
      <trkpt lat="44.744267463684082" lon="9.112472534179688">
        <ele>1005.19580078125</ele>
        <time>2005-09-23T10:24:18Z</time>
      </trkpt>
      <trkpt lat="44.744353294372559" lon="9.112601280212402">
        <ele>1010.963623046875</ele>
        <time>2005-09-23T10:24:32Z</time>
      </trkpt>
      <trkpt lat="44.744353294372559" lon="9.112730026245117">
        <ele>1011.925048828125</ele>
        <time>2005-09-23T10:24:44Z</time>
      </trkpt>
      <trkpt lat="44.74431037902832" lon="9.112815856933594">
        <ele>1012.405517578125</ele>
        <time>2005-09-23T10:24:54Z</time>
      </trkpt>
      <trkpt lat="44.744288921356201" lon="9.11290168762207">
        <ele>1012.405517578125</ele>
        <time>2005-09-23T10:25:04Z</time>
      </trkpt>
      <trkpt lat="44.744224548339844" lon="9.113008975982666">
        <ele>1013.366943359375</ele>
        <time>2005-09-23T10:25:17Z</time>
      </trkpt>
      <trkpt lat="44.744203090667725" lon="9.113094806671143">
        <ele>1016.7314453125</ele>
        <time>2005-09-23T10:25:29Z</time>
      </trkpt>
      <trkpt lat="44.744160175323486" lon="9.113223552703857">
        <ele>1020.576904296875</ele>
        <time>2005-09-23T10:25:44Z</time>
      </trkpt>
      <trkpt lat="44.744095802307129" lon="9.113352298736572">
        <ele>1023.4609375</ele>
        <time>2005-09-23T10:25:58Z</time>
      </trkpt>
      <trkpt lat="44.744009971618652" lon="9.113459587097168">
        <ele>1026.3447265625</ele>
        <time>2005-09-23T10:26:13Z</time>
      </trkpt>
      <trkpt lat="44.743924140930176" lon="9.113523960113525">
        <ele>1028.267333984375</ele>
        <time>2005-09-23T10:26:26Z</time>
      </trkpt>
      <trkpt lat="44.74381685256958" lon="9.113566875457764">
        <ele>1029.709228515625</ele>
        <time>2005-09-23T10:26:42Z</time>
      </trkpt>
      <trkpt lat="44.743731021881104" lon="9.113674163818359">
        <ele>1031.6318359375</ele>
        <time>2005-09-23T10:26:57Z</time>
      </trkpt>
      <trkpt lat="44.743709564208984" lon="9.113781452178955">
        <ele>1032.59326171875</ele>
        <time>2005-09-23T10:27:07Z</time>
      </trkpt>
      <trkpt lat="44.743709564208984" lon="9.113845825195313">
        <ele>1033.554443359375</ele>
        <time>2005-09-23T10:27:17Z</time>
      </trkpt>
      <trkpt lat="44.743709564208984" lon="9.113931655883789">
        <ele>1034.515869140625</ele>
        <time>2005-09-23T10:27:42Z</time>
      </trkpt>
      <trkpt lat="44.743688106536865" lon="9.114060401916504">
        <ele>1035.47705078125</ele>
        <time>2005-09-23T10:27:56Z</time>
      </trkpt>
      <trkpt lat="44.743645191192627" lon="9.114146232604981">
        <ele>1036.438720703125</ele>
        <time>2005-09-23T10:28:08Z</time>
      </trkpt>
      <trkpt lat="44.74358081817627" lon="9.114253520965576">
        <ele>1038.361328125</ele>
        <time>2005-09-23T10:28:21Z</time>
      </trkpt>
      <trkpt lat="44.743516445159912" lon="9.114339351654053">
        <ele>1039.80322265625</ele>
        <time>2005-09-23T10:28:34Z</time>
      </trkpt>
      <trkpt lat="44.743452072143555" lon="9.11440372467041">
        <ele>1041.2451171875</ele>
        <time>2005-09-23T10:28:44Z</time>
      </trkpt>
      <trkpt lat="44.743387699127197" lon="9.114468097686768">
        <ele>1043.167724609375</ele>
        <time>2005-09-23T10:28:55Z</time>
      </trkpt>
      <trkpt lat="44.743344783782959" lon="9.114489555358887">
        <ele>1043.6484375</ele>
        <time>2005-09-23T10:29:07Z</time>
      </trkpt>
      <trkpt lat="44.74332332611084" lon="9.114553928375244">
        <ele>1045.571044921875</ele>
        <time>2005-09-23T10:29:51Z</time>
      </trkpt>
      <trkpt lat="44.743258953094482" lon="9.114639759063721">
        <ele>1047.012939453125</ele>
        <time>2005-09-23T10:30:03Z</time>
      </trkpt>
      <trkpt lat="44.743173122406006" lon="9.114747047424316">
        <ele>1048.935546875</ele>
        <time>2005-09-23T10:30:18Z</time>
      </trkpt>
      <trkpt lat="44.743108749389648" lon="9.114832878112793">
        <ele>1050.377685546875</ele>
        <time>2005-09-23T10:30:28Z</time>
      </trkpt>
      <trkpt lat="44.743087291717529" lon="9.114854335784912">
        <ele>1051.3388671875</ele>
        <time>2005-09-23T10:30:37Z</time>
      </trkpt>
      <trkpt lat="44.743044376373291" lon="9.11489725112915">
        <ele>1050.858154296875</ele>
        <time>2005-09-23T10:31:42Z</time>
      </trkpt>
      <trkpt lat="44.742980003356934" lon="9.114983081817627">
        <ele>1052.30029296875</ele>
        <time>2005-09-23T10:31:54Z</time>
      </trkpt>
      <trkpt lat="44.742915630340576" lon="9.115025997161865">
        <ele>1052.781005859375</ele>
        <time>2005-09-23T10:32:03Z</time>
      </trkpt>
      <trkpt lat="44.7428297996521" lon="9.115025997161865">
        <ele>1053.742431640625</ele>
        <time>2005-09-23T10:32:15Z</time>
      </trkpt>
      <trkpt lat="44.742722511291504" lon="9.114983081817627">
        <ele>1056.626220703125</ele>
        <time>2005-09-23T10:32:27Z</time>
      </trkpt>
      <trkpt lat="44.742615222930908" lon="9.115004539489746">
        <ele>1059.029541015625</ele>
        <time>2005-09-23T10:32:40Z</time>
      </trkpt>
      <trkpt lat="44.742529392242432" lon="9.115025997161865">
        <ele>1060.471435546875</ele>
        <time>2005-09-23T10:32:52Z</time>
      </trkpt>
      <trkpt lat="44.742465019226074" lon="9.115047454833984">
        <ele>1061.91357421875</ele>
        <time>2005-09-23T10:33:01Z</time>
      </trkpt>
      <trkpt lat="44.742379188537598" lon="9.115068912506104">
        <ele>1063.35546875</ele>
        <time>2005-09-23T10:33:14Z</time>
      </trkpt>
      <trkpt lat="44.742293357849121" lon="9.115133285522461">
        <ele>1064.79736328125</ele>
        <time>2005-09-23T10:33:26Z</time>
      </trkpt>
      <trkpt lat="44.742228984832764" lon="9.115176200866699">
        <ele>1065.7587890625</ele>
        <time>2005-09-23T10:33:36Z</time>
      </trkpt>
      <trkpt lat="44.742164611816406" lon="9.115240573883057">
        <ele>1066.719970703125</ele>
        <time>2005-09-23T10:33:47Z</time>
      </trkpt>
      <trkpt lat="44.742100238800049" lon="9.115326404571533">
        <ele>1068.162109375</ele>
        <time>2005-09-23T10:34:00Z</time>
      </trkpt>
      <trkpt lat="44.742014408111572" lon="9.115390777587891">
        <ele>1069.604248046875</ele>
        <time>2005-09-23T10:34:13Z</time>
      </trkpt>
      <trkpt lat="44.741971492767334" lon="9.115390777587891">
        <ele>1069.604248046875</ele>
        <time>2005-09-23T10:34:24Z</time>
      </trkpt>
      <trkpt lat="44.741885662078857" lon="9.115433692932129">
        <ele>1071.046142578125</ele>
        <time>2005-09-23T10:35:30Z</time>
      </trkpt>
      <trkpt lat="44.741735458374023" lon="9.11541223526001">
        <ele>1071.526611328125</ele>
        <time>2005-09-23T10:35:44Z</time>
      </trkpt>
      <trkpt lat="44.741628170013428" lon="9.115390777587891">
        <ele>1072.488037109375</ele>
        <time>2005-09-23T10:35:55Z</time>
      </trkpt>
      <trkpt lat="44.741585254669189" lon="9.115369319915772">
        <ele>1072.488037109375</ele>
        <time>2005-09-23T10:35:59Z</time>
      </trkpt>
      <trkpt lat="44.741435050964355" lon="9.115390777587891">
        <ele>1073.929931640625</ele>
        <time>2005-09-23T10:36:13Z</time>
      </trkpt>
      <trkpt lat="44.741306304931641" lon="9.11541223526001">
        <ele>1075.371826171875</ele>
        <time>2005-09-23T10:36:24Z</time>
      </trkpt>
      <trkpt lat="44.741177558898926" lon="9.11541223526001">
        <ele>1076.81396484375</ele>
        <time>2005-09-23T10:36:36Z</time>
      </trkpt>
      <trkpt lat="44.74107027053833" lon="9.11541223526001">
        <ele>1077.775146484375</ele>
        <time>2005-09-23T10:36:47Z</time>
      </trkpt>
      <trkpt lat="44.740962982177734" lon="9.115369319915772">
        <ele>1079.217041015625</ele>
        <time>2005-09-23T10:37:00Z</time>
      </trkpt>
      <trkpt lat="44.740855693817139" lon="9.115326404571533">
        <ele>1080.178466796875</ele>
        <time>2005-09-23T10:37:11Z</time>
      </trkpt>
      <trkpt lat="44.740791320800781" lon="9.115326404571533">
        <ele>1080.6591796875</ele>
        <time>2005-09-23T10:37:18Z</time>
      </trkpt>
      <trkpt lat="44.740705490112305" lon="9.115369319915772">
        <ele>1081.620361328125</ele>
        <time>2005-09-23T10:37:29Z</time>
      </trkpt>
      <trkpt lat="44.740662574768066" lon="9.11541223526001">
        <ele>1082.581787109375</ele>
        <time>2005-09-23T10:37:35Z</time>
      </trkpt>
      <trkpt lat="44.740641117095947" lon="9.115455150604248">
        <ele>1082.10107421875</ele>
        <time>2005-09-23T10:37:42Z</time>
      </trkpt>
      <trkpt lat="44.740641117095947" lon="9.115476608276367">
        <ele>1084.02392578125</ele>
        <time>2005-09-23T10:43:42Z</time>
      </trkpt>
      <trkpt lat="44.740641117095947" lon="9.115605354309082">
        <ele>1086.42724609375</ele>
        <time>2005-09-23T10:43:53Z</time>
      </trkpt>
      <trkpt lat="44.740641117095947" lon="9.115755558013916">
        <ele>1087.388427734375</ele>
        <time>2005-09-23T10:44:04Z</time>
      </trkpt>
      <trkpt lat="44.740641117095947" lon="9.115777015686035">
        <ele>1087.388427734375</ele>
        <time>2005-09-23T10:44:05Z</time>
      </trkpt>
      <trkpt lat="44.740641117095947" lon="9.115970134735107">
        <ele>1089.31103515625</ele>
        <time>2005-09-23T10:44:20Z</time>
      </trkpt>
      <trkpt lat="44.740662574768066" lon="9.116141796112061">
        <ele>1091.71435546875</ele>
        <time>2005-09-23T10:44:36Z</time>
      </trkpt>
      <trkpt lat="44.740684032440186" lon="9.116291999816895">
        <ele>1093.636962890625</ele>
        <time>2005-09-23T10:44:49Z</time>
      </trkpt>
      <trkpt lat="44.740684032440186" lon="9.116420745849609">
        <ele>1094.59814453125</ele>
        <time>2005-09-23T10:45:01Z</time>
      </trkpt>
      <trkpt lat="44.740641117095947" lon="9.116592407226563">
        <ele>1097.00146484375</ele>
        <time>2005-09-23T10:45:16Z</time>
      </trkpt>
      <trkpt lat="44.740619659423828" lon="9.116721153259277">
        <ele>1097.962890625</ele>
        <time>2005-09-23T10:45:29Z</time>
      </trkpt>
      <trkpt lat="44.740619659423828" lon="9.116849899291992">
        <ele>1099.40478515625</ele>
        <time>2005-09-23T10:45:40Z</time>
      </trkpt>
      <trkpt lat="44.74057674407959" lon="9.116957187652588">
        <ele>1100.366455078125</ele>
        <time>2005-09-23T10:45:53Z</time>
      </trkpt>
      <trkpt lat="44.740512371063232" lon="9.117064476013184">
        <ele>1101.32763671875</ele>
        <time>2005-09-23T10:46:06Z</time>
      </trkpt>
      <trkpt lat="44.740447998046875" lon="9.117128849029541">
        <ele>1102.76953125</ele>
        <time>2005-09-23T10:46:17Z</time>
      </trkpt>
      <trkpt lat="44.740383625030518" lon="9.117214679718018">
        <ele>1103.73095703125</ele>
        <time>2005-09-23T10:46:30Z</time>
      </trkpt>
      <trkpt lat="44.74031925201416" lon="9.117257595062256">
        <ele>1105.1728515625</ele>
        <time>2005-09-23T10:46:40Z</time>
      </trkpt>
      <trkpt lat="44.740233421325684" lon="9.117321968078613">
        <ele>1106.134033203125</ele>
        <time>2005-09-23T10:46:53Z</time>
      </trkpt>
      <trkpt lat="44.740147590637207" lon="9.117364883422852">
        <ele>1108.056884765625</ele>
        <time>2005-09-23T10:47:07Z</time>
      </trkpt>
      <trkpt lat="44.74006175994873" lon="9.117386341094971">
        <ele>1109.498779296875</ele>
        <time>2005-09-23T10:47:20Z</time>
      </trkpt>
      <trkpt lat="44.739954471588135" lon="9.117429256439209">
        <ele>1110.940673828125</ele>
        <time>2005-09-23T10:47:34Z</time>
      </trkpt>
      <trkpt lat="44.739933013916016" lon="9.117429256439209">
        <ele>1110.940673828125</ele>
        <time>2005-09-23T10:47:44Z</time>
      </trkpt>
      <trkpt lat="44.739933013916016" lon="9.117429256439209">
        <ele>1110.940673828125</ele>
        <time>2005-09-23T10:47:49Z</time>
      </trkpt>
      <trkpt lat="44.73982572555542" lon="9.117472171783447">
        <ele>1111.902099609375</ele>
        <time>2005-09-23T10:48:00Z</time>
      </trkpt>
      <trkpt lat="44.739718437194824" lon="9.117515087127686">
        <ele>1113.343994140625</ele>
        <time>2005-09-23T10:48:12Z</time>
      </trkpt>
      <trkpt lat="44.739611148834229" lon="9.117536544799805">
        <ele>1115.2666015625</ele>
        <time>2005-09-23T10:48:24Z</time>
      </trkpt>
      <trkpt lat="44.739525318145752" lon="9.117579460144043">
        <ele>1116.22802734375</ele>
        <time>2005-09-23T10:48:34Z</time>
      </trkpt>
      <trkpt lat="44.739460945129395" lon="9.117600917816162">
        <ele>1117.189453125</ele>
        <time>2005-09-23T10:48:43Z</time>
      </trkpt>
      <trkpt lat="44.739375114440918" lon="9.117622375488281">
        <ele>1118.63134765625</ele>
        <time>2005-09-23T10:48:53Z</time>
      </trkpt>
      <trkpt lat="44.739289283752441" lon="9.1176438331604">
        <ele>1119.5927734375</ele>
        <time>2005-09-23T10:49:02Z</time>
      </trkpt>
      <trkpt lat="44.739181995391846" lon="9.117686748504639">
        <ele>1120.553955078125</ele>
        <time>2005-09-23T10:49:14Z</time>
      </trkpt>
      <trkpt lat="44.739117622375488" lon="9.117686748504639">
        <ele>1121.51513671875</ele>
        <time>2005-09-23T10:49:24Z</time>
      </trkpt>
      <trkpt lat="44.739031791687012" lon="9.117729663848877">
        <ele>1122.957275390625</ele>
        <time>2005-09-23T10:49:33Z</time>
      </trkpt>
      <trkpt lat="44.738967418670654" lon="9.117751121520996">
        <ele>1123.91845703125</ele>
        <time>2005-09-23T10:49:43Z</time>
      </trkpt>
      <trkpt lat="44.738924503326416" lon="9.117772579193115">
        <ele>1124.399169921875</ele>
        <time>2005-09-23T10:49:51Z</time>
      </trkpt>
      <trkpt lat="44.738881587982178" lon="9.117772579193115">
        <ele>1124.8798828125</ele>
        <time>2005-09-23T10:50:01Z</time>
      </trkpt>
      <trkpt lat="44.73881721496582" lon="9.117772579193115">
        <ele>1125.841064453125</ele>
        <time>2005-09-23T10:50:14Z</time>
      </trkpt>
      <trkpt lat="44.738795757293701" lon="9.117751121520996">
        <ele>1129.20556640625</ele>
        <time>2005-09-23T10:51:30Z</time>
      </trkpt>
      <trkpt lat="44.738752841949463" lon="9.1176438331604">
        <ele>1130.1669921875</ele>
        <time>2005-09-23T10:51:45Z</time>
      </trkpt>
      <trkpt lat="44.738752841949463" lon="9.117515087127686">
        <ele>1131.12841796875</ele>
        <time>2005-09-23T10:51:58Z</time>
      </trkpt>
      <trkpt lat="44.738795757293701" lon="9.117364883422852">
        <ele>1132.08984375</ele>
        <time>2005-09-23T10:52:11Z</time>
      </trkpt>
      <trkpt lat="44.738860130310059" lon="9.117236137390137">
        <ele>1133.051025390625</ele>
        <time>2005-09-23T10:52:25Z</time>
      </trkpt>
      <trkpt lat="44.738924503326416" lon="9.117085933685303">
        <ele>1134.012451171875</ele>
        <time>2005-09-23T10:52:38Z</time>
      </trkpt>
      <trkpt lat="44.738924503326416" lon="9.116957187652588">
        <ele>1134.973876953125</ele>
        <time>2005-09-23T10:52:50Z</time>
      </trkpt>
      <trkpt lat="44.738860130310059" lon="9.116935729980469">
        <ele>1136.415771484375</ele>
        <time>2005-09-23T10:53:00Z</time>
      </trkpt>
      <trkpt lat="44.738774299621582" lon="9.116978645324707">
        <ele>1137.857666015625</ele>
        <time>2005-09-23T10:53:12Z</time>
      </trkpt>
      <trkpt lat="44.738709926605225" lon="9.117000102996826">
        <ele>1139.7802734375</ele>
        <time>2005-09-23T10:53:24Z</time>
      </trkpt>
      <trkpt lat="44.738624095916748" lon="9.117043018341065">
        <ele>1141.22216796875</ele>
        <time>2005-09-23T10:53:36Z</time>
      </trkpt>
      <trkpt lat="44.738538265228271" lon="9.117064476013184">
        <ele>1142.664306640625</ele>
        <time>2005-09-23T10:53:46Z</time>
      </trkpt>
      <trkpt lat="44.738495349884033" lon="9.117085933685303">
        <ele>1143.62548828125</ele>
        <time>2005-09-23T10:53:57Z</time>
      </trkpt>
      <trkpt lat="44.738409519195557" lon="9.117107391357422">
        <ele>1144.106201171875</ele>
        <time>2005-09-23T10:54:20Z</time>
      </trkpt>
      <trkpt lat="44.738280773162842" lon="9.117128849029541">
        <ele>1147.470703125</ele>
        <time>2005-09-23T10:54:34Z</time>
      </trkpt>
      <trkpt lat="44.738152027130127" lon="9.11715030670166">
        <ele>1149.874267578125</ele>
        <time>2005-09-23T10:54:47Z</time>
      </trkpt>
      <trkpt lat="44.73806619644165" lon="9.117214679718018">
        <ele>1151.316162109375</ele>
        <time>2005-09-23T10:54:57Z</time>
      </trkpt>
      <trkpt lat="44.738001823425293" lon="9.117257595062256">
        <ele>1153.23876953125</ele>
        <time>2005-09-23T10:55:07Z</time>
      </trkpt>
      <trkpt lat="44.737915992736816" lon="9.117321968078613">
        <ele>1155.64208984375</ele>
        <time>2005-09-23T10:55:20Z</time>
      </trkpt>
      <trkpt lat="44.73783016204834" lon="9.117386341094971">
        <ele>1157.083984375</ele>
        <time>2005-09-23T10:55:32Z</time>
      </trkpt>
      <trkpt lat="44.737765789031982" lon="9.117429256439209">
        <ele>1158.04541015625</ele>
        <time>2005-09-23T10:55:42Z</time>
      </trkpt>
      <trkpt lat="44.737701416015625" lon="9.117472171783447">
        <ele>1159.006591796875</ele>
        <time>2005-09-23T10:55:51Z</time>
      </trkpt>
      <trkpt lat="44.737615585327148" lon="9.117515087127686">
        <ele>1160.448486328125</ele>
        <time>2005-09-23T10:56:03Z</time>
      </trkpt>
      <trkpt lat="44.737486839294434" lon="9.117536544799805">
        <ele>1162.37109375</ele>
        <time>2005-09-23T10:56:16Z</time>
      </trkpt>
      <trkpt lat="44.737422466278076" lon="9.117558002471924">
        <ele>1163.33251953125</ele>
        <time>2005-09-23T10:56:27Z</time>
      </trkpt>
      <trkpt lat="44.73731517791748" lon="9.117558002471924">
        <ele>1164.774658203125</ele>
        <time>2005-09-23T10:56:38Z</time>
      </trkpt>
      <trkpt lat="44.737186431884766" lon="9.117558002471924">
        <ele>1166.697265625</ele>
        <time>2005-09-23T10:56:51Z</time>
      </trkpt>
      <trkpt lat="44.73707914352417" lon="9.117558002471924">
        <ele>1167.658447265625</ele>
        <time>2005-09-23T10:57:02Z</time>
      </trkpt>
      <trkpt lat="44.736971855163574" lon="9.117558002471924">
        <ele>1169.1005859375</ele>
        <time>2005-09-23T10:57:13Z</time>
      </trkpt>
      <trkpt lat="44.736843109130859" lon="9.117558002471924">
        <ele>1171.023193359375</ele>
        <time>2005-09-23T10:57:26Z</time>
      </trkpt>
      <trkpt lat="44.736692905426025" lon="9.117558002471924">
        <ele>1172.465087890625</ele>
        <time>2005-09-23T10:57:39Z</time>
      </trkpt>
      <trkpt lat="44.736521244049072" lon="9.117515087127686">
        <ele>1172.465087890625</ele>
        <time>2005-09-23T10:59:32Z</time>
      </trkpt>
      <trkpt lat="44.736392498016357" lon="9.117493629455566">
        <ele>1172.94580078125</ele>
        <time>2005-09-23T10:59:41Z</time>
      </trkpt>
      <trkpt lat="44.736242294311523" lon="9.117558002471924">
        <ele>1173.906982421875</ele>
        <time>2005-09-23T10:59:49Z</time>
      </trkpt>
      <trkpt lat="44.73607063293457" lon="9.117686748504639">
        <ele>1176.310302734375</ele>
        <time>2005-09-23T10:59:56Z</time>
      </trkpt>
      <trkpt lat="44.735898971557617" lon="9.117879867553711">
        <ele>1178.713623046875</ele>
        <time>2005-09-23T11:00:04Z</time>
      </trkpt>
      <trkpt lat="44.735770225524902" lon="9.117965698242188">
        <ele>1179.6748046875</ele>
        <time>2005-09-23T11:00:10Z</time>
      </trkpt>
      <trkpt lat="44.735620021820068" lon="9.118094444274902">
        <ele>1181.1171875</ele>
        <time>2005-09-23T11:00:17Z</time>
      </trkpt>
      <trkpt lat="44.735448360443115" lon="9.118266105651856">
        <ele>1182.55908203125</ele>
        <time>2005-09-23T11:00:26Z</time>
      </trkpt>
      <trkpt lat="44.735362529754639" lon="9.11839485168457">
        <ele>1183.03955078125</ele>
        <time>2005-09-23T11:00:33Z</time>
      </trkpt>
      <trkpt lat="44.735255241394043" lon="9.118480682373047">
        <ele>1185.44287109375</ele>
        <time>2005-09-23T11:00:40Z</time>
      </trkpt>
      <trkpt lat="44.735233783721924" lon="9.118566513061523">
        <ele>1186.404296875</ele>
        <time>2005-09-23T11:00:44Z</time>
      </trkpt>
      <trkpt lat="44.735169410705566" lon="9.11865234375">
        <ele>1188.8076171875</ele>
        <time>2005-09-23T11:00:51Z</time>
      </trkpt>
      <trkpt lat="44.735105037689209" lon="9.118716716766357">
        <ele>1203.7080078125</ele>
        <time>2005-09-23T11:19:19Z</time>
      </trkpt>
      <trkpt lat="44.734976291656494" lon="9.118759632110596">
        <ele>1203.7080078125</ele>
        <time>2005-09-23T11:19:31Z</time>
      </trkpt>
      <trkpt lat="44.734869003295898" lon="9.118802547454834">
        <ele>1203.227294921875</ele>
        <time>2005-09-23T11:19:42Z</time>
      </trkpt>
      <trkpt lat="44.734740257263184" lon="9.118888378143311">
        <ele>1204.188720703125</ele>
        <time>2005-09-23T11:19:55Z</time>
      </trkpt>
      <trkpt lat="44.734632968902588" lon="9.118952751159668">
        <ele>1203.227294921875</ele>
        <time>2005-09-23T11:20:06Z</time>
      </trkpt>
      <trkpt lat="44.73456859588623" lon="9.119038581848145">
        <ele>1203.7080078125</ele>
        <time>2005-09-23T11:20:17Z</time>
      </trkpt>
      <trkpt lat="44.734461307525635" lon="9.119167327880859">
        <ele>1205.14990234375</ele>
        <time>2005-09-23T11:20:34Z</time>
      </trkpt>
      <trkpt lat="44.734418392181396" lon="9.119188785552979">
        <ele>1206.111083984375</ele>
        <time>2005-09-23T11:20:45Z</time>
      </trkpt>
      <trkpt lat="44.73433256149292" lon="9.119167327880859">
        <ele>1208.514404296875</ele>
        <time>2005-09-23T11:21:04Z</time>
      </trkpt>
      <trkpt lat="44.734203815460205" lon="9.119210243225098">
        <ele>1210.43701171875</ele>
        <time>2005-09-23T11:21:19Z</time>
      </trkpt>
      <trkpt lat="44.734117984771729" lon="9.119231700897217">
        <ele>1211.3984375</ele>
        <time>2005-09-23T11:21:31Z</time>
      </trkpt>
      <trkpt lat="44.733946323394775" lon="9.119338989257813">
        <ele>1213.3212890625</ele>
        <time>2005-09-23T11:21:53Z</time>
      </trkpt>
      <trkpt lat="44.733946323394775" lon="9.119446277618408">
        <ele>1216.205078125</ele>
        <time>2005-09-23T11:22:04Z</time>
      </trkpt>
      <trkpt lat="44.733946323394775" lon="9.119575023651123">
        <ele>1219.089111328125</ele>
        <time>2005-09-23T11:22:16Z</time>
      </trkpt>
      <trkpt lat="44.733924865722656" lon="9.119703769683838">
        <ele>1221.4921875</ele>
        <time>2005-09-23T11:22:30Z</time>
      </trkpt>
      <trkpt lat="44.733881950378418" lon="9.119789600372315">
        <ele>1223.8955078125</ele>
        <time>2005-09-23T11:22:42Z</time>
      </trkpt>
      <trkpt lat="44.733860492706299" lon="9.119853973388672">
        <ele>1226.779541015625</ele>
        <time>2005-09-23T11:22:53Z</time>
      </trkpt>
      <trkpt lat="44.733817577362061" lon="9.119939804077148">
        <ele>1228.702392578125</ele>
        <time>2005-09-23T11:23:04Z</time>
      </trkpt>
      <trkpt lat="44.733774662017822" lon="9.120025634765625">
        <ele>1231.586181640625</ele>
        <time>2005-09-23T11:23:17Z</time>
      </trkpt>
      <trkpt lat="44.733710289001465" lon="9.120068550109863">
        <ele>1232.547607421875</ele>
        <time>2005-09-23T11:23:30Z</time>
      </trkpt>
      <trkpt lat="44.733624458312988" lon="9.120004177093506">
        <ele>1235.912109375</ele>
        <time>2005-09-23T11:23:43Z</time>
      </trkpt>
      <trkpt lat="44.733603000640869" lon="9.119982719421387">
        <ele>1237.35400390625</ele>
        <time>2005-09-23T11:23:50Z</time>
      </trkpt>
      <trkpt lat="44.733538627624512" lon="9.11989688873291">
        <ele>1238.796142578125</ele>
        <time>2005-09-23T11:24:01Z</time>
      </trkpt>
      <trkpt lat="44.733474254608154" lon="9.119853973388672">
        <ele>1241.19921875</ele>
        <time>2005-09-23T11:24:14Z</time>
      </trkpt>
      <trkpt lat="44.733366966247559" lon="9.119875431060791">
        <ele>1241.679931640625</ele>
        <time>2005-09-23T11:24:26Z</time>
      </trkpt>
      <trkpt lat="44.733345508575439" lon="9.119918346405029">
        <ele>1241.19921875</ele>
        <time>2005-09-23T11:24:29Z</time>
      </trkpt>
      <trkpt lat="44.73332405090332" lon="9.119961261749268">
        <ele>1241.19921875</ele>
        <time>2005-09-23T11:24:32Z</time>
      </trkpt>
      <trkpt lat="44.733388423919678" lon="9.120111465454102">
        <ele>1244.56396484375</ele>
        <time>2005-09-23T11:24:44Z</time>
      </trkpt>
      <trkpt lat="44.733409881591797" lon="9.120261669158936">
        <ele>1246.006103515625</ele>
        <time>2005-09-23T11:24:57Z</time>
      </trkpt>
      <trkpt lat="44.733409881591797" lon="9.12041187286377">
        <ele>1244.56396484375</ele>
        <time>2005-09-23T11:25:09Z</time>
      </trkpt>
      <trkpt lat="44.733345508575439" lon="9.120519161224365">
        <ele>1246.006103515625</ele>
        <time>2005-09-23T11:25:22Z</time>
      </trkpt>
      <trkpt lat="44.733281135559082" lon="9.120540618896484">
        <ele>1247.9287109375</ele>
        <time>2005-09-23T11:25:33Z</time>
      </trkpt>
      <trkpt lat="44.733066558837891" lon="9.120476245880127">
        <ele>1250.8125</ele>
        <time>2005-09-23T11:25:58Z</time>
      </trkpt>
      <trkpt lat="44.732959270477295" lon="9.12041187286377">
        <ele>1255.619140625</ele>
        <time>2005-09-23T11:26:14Z</time>
      </trkpt>
      <trkpt lat="44.732937812805176" lon="9.12041187286377">
        <ele>1256.099609375</ele>
        <time>2005-09-23T11:26:21Z</time>
      </trkpt>
      <trkpt lat="44.732916355133057" lon="9.12039041519165">
        <ele>1259.94482421875</ele>
        <time>2005-09-23T11:26:35Z</time>
      </trkpt>
      <trkpt lat="44.732937812805176" lon="9.12039041519165">
        <ele>1263.790283203125</ele>
        <time>2005-09-23T11:26:52Z</time>
      </trkpt>
      <trkpt lat="44.732873439788818" lon="9.120326042175293">
        <ele>1263.790283203125</ele>
        <time>2005-09-23T11:27:15Z</time>
      </trkpt>
      <trkpt lat="44.732809066772461" lon="9.120283126831055">
        <ele>1264.27099609375</ele>
        <time>2005-09-23T11:27:25Z</time>
      </trkpt>
      <trkpt lat="44.732723236083984" lon="9.120218753814697">
        <ele>1265.232421875</ele>
        <time>2005-09-23T11:27:38Z</time>
      </trkpt>
      <trkpt lat="44.732637405395508" lon="9.120111465454102">
        <ele>1266.193603515625</ele>
        <time>2005-09-23T11:27:54Z</time>
      </trkpt>
      <trkpt lat="44.732551574707031" lon="9.120025634765625">
        <ele>1265.713134765625</ele>
        <time>2005-09-23T11:28:08Z</time>
      </trkpt>
      <trkpt lat="44.732487201690674" lon="9.119982719421387">
        <ele>1265.713134765625</ele>
        <time>2005-09-23T11:28:17Z</time>
      </trkpt>
      <trkpt lat="44.732422828674316" lon="9.119918346405029">
        <ele>1266.67431640625</ele>
        <time>2005-09-23T11:28:26Z</time>
      </trkpt>
      <trkpt lat="44.732379913330078" lon="9.119853973388672">
        <ele>1265.713134765625</ele>
        <time>2005-09-23T11:28:36Z</time>
      </trkpt>
      <trkpt lat="44.732294082641602" lon="9.119768142700195">
        <ele>1267.635498046875</ele>
        <time>2005-09-23T11:28:52Z</time>
      </trkpt>
      <trkpt lat="44.732208251953125" lon="9.119682312011719">
        <ele>1268.1162109375</ele>
        <time>2005-09-23T11:29:07Z</time>
      </trkpt>
      <trkpt lat="44.731993675231934" lon="9.1196608543396">
        <ele>1271.96142578125</ele>
        <time>2005-09-23T11:29:38Z</time>
      </trkpt>
      <trkpt lat="44.731757640838623" lon="9.119746685028076">
        <ele>1273.403564453125</ele>
        <time>2005-09-23T11:30:17Z</time>
      </trkpt>
      <trkpt lat="44.731757640838623" lon="9.119811058044434">
        <ele>1274.36474609375</ele>
        <time>2005-09-23T11:30:27Z</time>
      </trkpt>
      <trkpt lat="44.731736183166504" lon="9.11989688873291">
        <ele>1277.7294921875</ele>
        <time>2005-09-23T11:30:37Z</time>
      </trkpt>
      <trkpt lat="44.731693267822266" lon="9.119982719421387">
        <ele>1280.1328125</ele>
        <time>2005-09-23T11:30:53Z</time>
      </trkpt>
      <trkpt lat="44.731607437133789" lon="9.120047092437744">
        <ele>1280.613525390625</ele>
        <time>2005-09-23T11:31:11Z</time>
      </trkpt>
      <trkpt lat="44.731414318084717" lon="9.120197296142578">
        <ele>1285.419921875</ele>
        <time>2005-09-23T11:31:48Z</time>
      </trkpt>
      <trkpt lat="44.731349945068359" lon="9.120368957519531">
        <ele>1286.38134765625</ele>
        <time>2005-09-23T11:32:12Z</time>
      </trkpt>
      <trkpt lat="44.73132848739624" lon="9.120497703552246">
        <ele>1289.745849609375</ele>
        <time>2005-09-23T11:32:23Z</time>
      </trkpt>
      <trkpt lat="44.731307029724121" lon="9.12064790725708">
        <ele>1292.1494140625</ele>
        <time>2005-09-23T11:32:34Z</time>
      </trkpt>
      <trkpt lat="44.731242656707764" lon="9.120776653289795">
        <ele>1294.072021484375</ele>
        <time>2005-09-23T11:32:47Z</time>
      </trkpt>
      <trkpt lat="44.731199741363525" lon="9.120862483978272">
        <ele>1294.552490234375</ele>
        <time>2005-09-23T11:32:57Z</time>
      </trkpt>
      <trkpt lat="44.731028079986572" lon="9.121034145355225">
        <ele>1295.513916015625</ele>
        <time>2005-09-23T11:33:18Z</time>
      </trkpt>
      <trkpt lat="44.730963706970215" lon="9.12116289138794">
        <ele>1297.917236328125</ele>
        <time>2005-09-23T11:33:31Z</time>
      </trkpt>
      <trkpt lat="44.730942249298096" lon="9.121527671813965">
        <ele>1301.28173828125</ele>
        <time>2005-09-23T11:34:02Z</time>
      </trkpt>
      <trkpt lat="44.730963706970215" lon="9.121720790863037">
        <ele>1302.7236328125</ele>
        <time>2005-09-23T11:34:19Z</time>
      </trkpt>
      <trkpt lat="44.730963706970215" lon="9.12189245223999">
        <ele>1304.646240234375</ele>
        <time>2005-09-23T11:34:36Z</time>
      </trkpt>
      <trkpt lat="44.730942249298096" lon="9.122042655944824">
        <ele>1306.56884765625</ele>
        <time>2005-09-23T11:34:53Z</time>
      </trkpt>
      <trkpt lat="44.730942249298096" lon="9.122171401977539">
        <ele>1307.049560546875</ele>
        <time>2005-09-23T11:35:02Z</time>
      </trkpt>
      <trkpt lat="44.730920791625977" lon="9.122364521026611">
        <ele>1309.93359375</ele>
        <time>2005-09-23T11:35:16Z</time>
      </trkpt>
      <trkpt lat="44.730920791625977" lon="9.122514724731445">
        <ele>1312.3369140625</ele>
        <time>2005-09-23T11:35:27Z</time>
      </trkpt>
      <trkpt lat="44.730985164642334" lon="9.122664928436279">
        <ele>1312.3369140625</ele>
        <time>2005-09-23T11:35:38Z</time>
      </trkpt>
      <trkpt lat="44.731049537658691" lon="9.122836589813232">
        <ele>1314.740234375</ele>
        <time>2005-09-23T11:35:51Z</time>
      </trkpt>
      <trkpt lat="44.73109245300293" lon="9.122943878173828">
        <ele>1317.1435546875</ele>
        <time>2005-09-23T11:36:01Z</time>
      </trkpt>
      <trkpt lat="44.731113910675049" lon="9.122986793518066">
        <ele>1317.6240234375</ele>
        <time>2005-09-23T11:36:12Z</time>
      </trkpt>
      <trkpt lat="44.731113910675049" lon="9.123072624206543">
        <ele>1320.02734375</ele>
        <time>2005-09-23T11:36:39Z</time>
      </trkpt>
      <trkpt lat="44.731156826019287" lon="9.123265743255615">
        <ele>1321.949951171875</ele>
        <time>2005-09-23T11:36:55Z</time>
      </trkpt>
      <trkpt lat="44.731156826019287" lon="9.123373031616211">
        <ele>1320.98876953125</ele>
        <time>2005-09-23T11:37:02Z</time>
      </trkpt>
      <trkpt lat="44.731028079986572" lon="9.123437404632568">
        <ele>1321.949951171875</ele>
        <time>2005-09-23T11:37:15Z</time>
      </trkpt>
      <trkpt lat="44.730877876281738" lon="9.123501777648926">
        <ele>1324.353515625</ele>
        <time>2005-09-23T11:37:32Z</time>
      </trkpt>
      <trkpt lat="44.730770587921143" lon="9.123630523681641">
        <ele>1327.237548828125</ele>
        <time>2005-09-23T11:37:51Z</time>
      </trkpt>
      <trkpt lat="44.73057746887207" lon="9.123823642730713">
        <ele>1328.679443359375</ele>
        <time>2005-09-23T11:38:23Z</time>
      </trkpt>
      <trkpt lat="44.730513095855713" lon="9.123866558074951">
        <ele>1354.634765625</ele>
        <time>2005-09-23T11:38:33Z</time>
      </trkpt>
      <trkpt lat="44.730491638183594" lon="9.12388801574707">
        <ele>1339.253662109375</ele>
        <time>2005-09-23T11:38:43Z</time>
      </trkpt>
      <trkpt lat="44.730405807495117" lon="9.12388801574707">
        <ele>1341.6572265625</ele>
        <time>2005-09-23T11:38:52Z</time>
      </trkpt>
      <trkpt lat="44.73034143447876" lon="9.12390947341919">
        <ele>1342.137939453125</ele>
        <time>2005-09-23T11:39:05Z</time>
      </trkpt>
      <trkpt lat="44.73008394241333" lon="9.123952388763428">
        <ele>1343.09912109375</ele>
        <time>2005-09-23T11:39:43Z</time>
      </trkpt>
      <trkpt lat="44.72984790802002" lon="9.123995304107666">
        <ele>1345.50244140625</ele>
        <time>2005-09-23T11:40:16Z</time>
      </trkpt>
      <trkpt lat="44.729740619659424" lon="9.124102592468262">
        <ele>1350.78955078125</ele>
        <time>2005-09-23T11:40:39Z</time>
      </trkpt>
      <trkpt lat="44.729611873626709" lon="9.124231338500977">
        <ele>1353.673583984375</ele>
        <time>2005-09-23T11:41:04Z</time>
      </trkpt>
      <trkpt lat="44.729526042938232" lon="9.124317169189453">
        <ele>1357.999755859375</ele>
        <time>2005-09-23T11:41:20Z</time>
      </trkpt>
      <trkpt lat="44.729461669921875" lon="9.124424457550049">
        <ele>1361.844970703125</ele>
        <time>2005-09-23T11:41:36Z</time>
      </trkpt>
      <trkpt lat="44.729418754577637" lon="9.124596118927002">
        <ele>1360.883544921875</ele>
        <time>2005-09-23T11:41:50Z</time>
      </trkpt>
      <trkpt lat="44.729418754577637" lon="9.124767780303955">
        <ele>1360.40283203125</ele>
        <time>2005-09-23T11:42:04Z</time>
      </trkpt>
      <trkpt lat="44.729483127593994" lon="9.124939441680908">
        <ele>1361.844970703125</ele>
        <time>2005-09-23T11:42:20Z</time>
      </trkpt>
      <trkpt lat="44.729547500610352" lon="9.125068187713623">
        <ele>1362.325439453125</ele>
        <time>2005-09-23T11:42:32Z</time>
      </trkpt>
      <trkpt lat="44.729547500610352" lon="9.125089645385742">
        <ele>1362.80615234375</ele>
        <time>2005-09-23T11:42:35Z</time>
      </trkpt>
      <trkpt lat="44.72959041595459" lon="9.125282764434815">
        <ele>1364.248046875</ele>
        <time>2005-09-23T11:42:47Z</time>
      </trkpt>
      <trkpt lat="44.729633331298828" lon="9.125454425811768">
        <ele>1365.690185546875</ele>
        <time>2005-09-23T11:42:59Z</time>
      </trkpt>
      <trkpt lat="44.729654788970947" lon="9.125626087188721">
        <ele>1369.0546875</ele>
        <time>2005-09-23T11:43:11Z</time>
      </trkpt>
      <trkpt lat="44.729633331298828" lon="9.125797748565674">
        <ele>1371.9384765625</ele>
        <time>2005-09-23T11:43:24Z</time>
      </trkpt>
      <trkpt lat="44.729568958282471" lon="9.126012325286865">
        <ele>1372.41943359375</ele>
        <time>2005-09-23T11:43:39Z</time>
      </trkpt>
      <trkpt lat="44.729526042938232" lon="9.126205444335938">
        <ele>1370.977294921875</ele>
        <time>2005-09-23T11:43:53Z</time>
      </trkpt>
      <trkpt lat="44.729526042938232" lon="9.126377105712891">
        <ele>1372.900146484375</ele>
        <time>2005-09-23T11:44:05Z</time>
      </trkpt>
      <trkpt lat="44.729483127593994" lon="9.126613140106201">
        <ele>1374.82275390625</ele>
        <time>2005-09-23T11:44:20Z</time>
      </trkpt>
      <trkpt lat="44.729440212249756" lon="9.126806259155273">
        <ele>1377.22607421875</ele>
        <time>2005-09-23T11:44:35Z</time>
      </trkpt>
      <trkpt lat="44.729397296905518" lon="9.126849174499512">
        <ele>1378.187255859375</ele>
        <time>2005-09-23T11:44:45Z</time>
      </trkpt>
      <trkpt lat="44.729268550872803" lon="9.126956462860107">
        <ele>1380.10986328125</ele>
        <time>2005-09-23T11:45:05Z</time>
      </trkpt>
      <trkpt lat="44.72909688949585" lon="9.127106666564941">
        <ele>1380.590576171875</ele>
        <time>2005-09-23T11:45:27Z</time>
      </trkpt>
      <trkpt lat="44.729011058807373" lon="9.127192497253418">
        <ele>1384.435791015625</ele>
        <time>2005-09-23T11:45:40Z</time>
      </trkpt>
      <trkpt lat="44.728925228118896" lon="9.127278327941895">
        <ele>1386.3583984375</ele>
        <time>2005-09-23T11:45:57Z</time>
      </trkpt>
      <trkpt lat="44.728925228118896" lon="9.127299785614014">
        <ele>1387.319580078125</ele>
        <time>2005-09-23T11:46:00Z</time>
      </trkpt>
      <trkpt lat="44.728860855102539" lon="9.127364158630371">
        <ele>1388.761962890625</ele>
        <time>2005-09-23T11:46:10Z</time>
      </trkpt>
      <trkpt lat="44.72883939743042" lon="9.127428531646729">
        <ele>1389.242431640625</ele>
        <time>2005-09-23T11:46:22Z</time>
      </trkpt>
      <trkpt lat="44.728775024414063" lon="9.127600193023682">
        <ele>1393.568359375</ele>
        <time>2005-09-23T11:46:39Z</time>
      </trkpt>
      <trkpt lat="44.728732109069824" lon="9.127728939056397">
        <ele>1392.607177734375</ele>
        <time>2005-09-23T11:46:53Z</time>
      </trkpt>
      <trkpt lat="44.728732109069824" lon="9.12790060043335">
        <ele>1395.9716796875</ele>
        <time>2005-09-23T11:47:13Z</time>
      </trkpt>
      <trkpt lat="44.728753566741943" lon="9.128007888793945">
        <ele>1400.297607421875</ele>
        <time>2005-09-23T11:47:24Z</time>
      </trkpt>
      <trkpt lat="44.728753566741943" lon="9.128050804138184">
        <ele>1404.14306640625</ele>
        <time>2005-09-23T11:47:32Z</time>
      </trkpt>
      <trkpt lat="44.728775024414063" lon="9.128201007843018">
        <ele>1405.104248046875</ele>
        <time>2005-09-23T11:47:50Z</time>
      </trkpt>
      <trkpt lat="44.728753566741943" lon="9.128286838531494">
        <ele>1405.104248046875</ele>
        <time>2005-09-23T11:48:02Z</time>
      </trkpt>
      <trkpt lat="44.728710651397705" lon="9.128329753875732">
        <ele>1405.5849609375</ele>
        <time>2005-09-23T11:48:14Z</time>
      </trkpt>
      <trkpt lat="44.728689193725586" lon="9.128308296203613">
        <ele>1406.0654296875</ele>
        <time>2005-09-23T11:48:23Z</time>
      </trkpt>
      <trkpt lat="44.728624820709229" lon="9.128243923187256">
        <ele>1407.507568359375</ele>
        <time>2005-09-23T11:48:30Z</time>
      </trkpt>
      <trkpt lat="44.728538990020752" lon="9.128265380859375">
        <ele>1408.949462890625</ele>
        <time>2005-09-23T11:48:41Z</time>
      </trkpt>
      <trkpt lat="44.728517532348633" lon="9.128372669219971">
        <ele>1409.91064453125</ele>
        <time>2005-09-23T11:48:56Z</time>
      </trkpt>
      <trkpt lat="44.728474617004395" lon="9.128437042236328">
        <ele>1409.91064453125</ele>
        <time>2005-09-23T11:49:17Z</time>
      </trkpt>
      <trkpt lat="44.728517532348633" lon="9.128522872924805">
        <ele>1412.794677734375</ele>
        <time>2005-09-23T11:49:37Z</time>
      </trkpt>
      <trkpt lat="44.728560447692871" lon="9.1286301612854">
        <ele>1411.83349609375</ele>
        <time>2005-09-23T11:49:51Z</time>
      </trkpt>
      <trkpt lat="44.728646278381348" lon="9.128715991973877">
        <ele>1414.236572265625</ele>
        <time>2005-09-23T11:50:07Z</time>
      </trkpt>
      <trkpt lat="44.728667736053467" lon="9.128823280334473">
        <ele>1416.1591796875</ele>
        <time>2005-09-23T11:50:18Z</time>
      </trkpt>
      <trkpt lat="44.728689193725586" lon="9.128930568695068">
        <ele>1419.52392578125</ele>
        <time>2005-09-23T11:50:28Z</time>
      </trkpt>
      <trkpt lat="44.728710651397705" lon="9.129016399383545">
        <ele>1423.369384765625</ele>
        <time>2005-09-23T11:50:38Z</time>
      </trkpt>
      <trkpt lat="44.728732109069824" lon="9.129123687744141">
        <ele>1426.73388671875</ele>
        <time>2005-09-23T11:50:48Z</time>
      </trkpt>
      <trkpt lat="44.728732109069824" lon="9.129166603088379">
        <ele>1429.136962890625</ele>
        <time>2005-09-23T11:50:56Z</time>
      </trkpt>
      <trkpt lat="44.728732109069824" lon="9.129273891448975">
        <ele>1432.02099609375</ele>
        <time>2005-09-23T11:51:08Z</time>
      </trkpt>
      <trkpt lat="44.728710651397705" lon="9.129359722137451">
        <ele>1432.982177734375</ele>
        <time>2005-09-23T11:51:18Z</time>
      </trkpt>
      <trkpt lat="44.728689193725586" lon="9.129467010498047">
        <ele>1434.42431640625</ele>
        <time>2005-09-23T11:51:30Z</time>
      </trkpt>
      <trkpt lat="44.728667736053467" lon="9.129595756530762">
        <ele>1436.82763671875</ele>
        <time>2005-09-23T11:51:43Z</time>
      </trkpt>
      <trkpt lat="44.728667736053467" lon="9.129703044891357">
        <ele>1438.75048828125</ele>
        <time>2005-09-23T11:51:55Z</time>
      </trkpt>
      <trkpt lat="44.728646278381348" lon="9.129831790924072">
        <ele>1440.6728515625</ele>
        <time>2005-09-23T11:52:08Z</time>
      </trkpt>
      <trkpt lat="44.728624820709229" lon="9.129981994628906">
        <ele>1442.114990234375</ele>
        <time>2005-09-23T11:52:22Z</time>
      </trkpt>
      <trkpt lat="44.728624820709229" lon="9.130175113677979">
        <ele>1444.03759765625</ele>
        <time>2005-09-23T11:52:38Z</time>
      </trkpt>
      <trkpt lat="44.72858190536499" lon="9.130282402038574">
        <ele>1445.960205078125</ele>
        <time>2005-09-23T11:52:50Z</time>
      </trkpt>
      <trkpt lat="44.728496074676514" lon="9.130346775054932">
        <ele>1446.92138671875</ele>
        <time>2005-09-23T11:53:02Z</time>
      </trkpt>
      <trkpt lat="44.728410243988037" lon="9.130282402038574">
        <ele>1447.402099609375</ele>
        <time>2005-09-23T11:53:13Z</time>
      </trkpt>
      <trkpt lat="44.72834587097168" lon="9.130153656005859">
        <ele>1447.402099609375</ele>
        <time>2005-09-23T11:53:25Z</time>
      </trkpt>
      <trkpt lat="44.728324413299561" lon="9.130110740661621">
        <ele>1447.8828125</ele>
        <time>2005-09-23T11:53:30Z</time>
      </trkpt>
      <trkpt lat="44.728238582611084" lon="9.129960536956787">
        <ele>1447.8828125</ele>
        <time>2005-09-23T11:53:44Z</time>
      </trkpt>
      <trkpt lat="44.728174209594727" lon="9.129853248596191">
        <ele>1448.36328125</ele>
        <time>2005-09-23T11:53:55Z</time>
      </trkpt>
      <trkpt lat="44.72808837890625" lon="9.129745960235596">
        <ele>1449.805419921875</ele>
        <time>2005-09-23T11:54:08Z</time>
      </trkpt>
      <trkpt lat="44.728002548217773" lon="9.129660129547119">
        <ele>1450.2861328125</ele>
        <time>2005-09-23T11:54:19Z</time>
      </trkpt>
      <trkpt lat="44.727916717529297" lon="9.129552841186523">
        <ele>1452.208740234375</ele>
        <time>2005-09-23T11:54:31Z</time>
      </trkpt>
      <trkpt lat="44.72783088684082" lon="9.129488468170166">
        <ele>1454.131591796875</ele>
        <time>2005-09-23T11:54:40Z</time>
      </trkpt>
      <trkpt lat="44.727745056152344" lon="9.129424095153809">
        <ele>1455.573486328125</ele>
        <time>2005-09-23T11:54:50Z</time>
      </trkpt>
      <trkpt lat="44.727659225463867" lon="9.129338264465332">
        <ele>1457.015380859375</ele>
        <time>2005-09-23T11:55:01Z</time>
      </trkpt>
      <trkpt lat="44.727573394775391" lon="9.129273891448975">
        <ele>1458.457275390625</ele>
        <time>2005-09-23T11:55:11Z</time>
      </trkpt>
      <trkpt lat="44.727487564086914" lon="9.129209518432617">
        <ele>1460.3798828125</ele>
        <time>2005-09-23T11:55:22Z</time>
      </trkpt>
      <trkpt lat="44.727401733398438" lon="9.129123687744141">
        <ele>1463.744384765625</ele>
        <time>2005-09-23T11:55:35Z</time>
      </trkpt>
      <trkpt lat="44.727315902709961" lon="9.129059314727783">
        <ele>1465.1865234375</ele>
        <time>2005-09-23T11:55:46Z</time>
      </trkpt>
      <trkpt lat="44.727230072021484" lon="9.128973484039307">
        <ele>1467.589599609375</ele>
        <time>2005-09-23T11:55:58Z</time>
      </trkpt>
      <trkpt lat="44.727122783660889" lon="9.128866195678711">
        <ele>1469.9931640625</ele>
        <time>2005-09-23T11:56:11Z</time>
      </trkpt>
      <trkpt lat="44.727015495300293" lon="9.128758907318115">
        <ele>1471.915771484375</ele>
        <time>2005-09-23T11:56:23Z</time>
      </trkpt>
      <trkpt lat="44.726972579956055" lon="9.128737449645996">
        <ele>1470.95458984375</ele>
        <time>2005-09-23T11:56:28Z</time>
      </trkpt>
      <trkpt lat="44.726972579956055" lon="9.128737449645996">
        <ele>1469.031982421875</ele>
        <time>2005-09-23T11:56:36Z</time>
      </trkpt>
      <trkpt lat="44.726951122283936" lon="9.128715991973877">
        <ele>1467.109130859375</ele>
        <time>2005-09-23T11:57:01Z</time>
      </trkpt>
      <trkpt lat="44.726951122283936" lon="9.128694534301758">
        <ele>1462.302490234375</ele>
        <time>2005-09-23T12:11:51Z</time>
      </trkpt>
      <trkpt lat="44.726972579956055" lon="9.128694534301758">
        <ele>1460.860595703125</ele>
        <time>2005-09-23T12:13:39Z</time>
      </trkpt>
      <trkpt lat="44.726972579956055" lon="9.128715991973877">
        <ele>1459.418701171875</ele>
        <time>2005-09-23T12:14:30Z</time>
      </trkpt>
      <trkpt lat="44.726951122283936" lon="9.128737449645996">
        <ele>1459.899169921875</ele>
        <time>2005-09-23T12:17:34Z</time>
      </trkpt>
      <trkpt lat="44.726886749267578" lon="9.128930568695068">
        <ele>1458.457275390625</ele>
        <time>2005-09-23T12:17:41Z</time>
      </trkpt>
      <trkpt lat="44.726779460906982" lon="9.129209518432617">
        <ele>1455.0927734375</ele>
        <time>2005-09-23T12:17:47Z</time>
      </trkpt>
      <trkpt lat="44.726521968841553" lon="9.129467010498047">
        <ele>1448.36328125</ele>
        <time>2005-09-23T12:17:56Z</time>
      </trkpt>
      <trkpt lat="44.72632884979248" lon="9.129681587219238">
        <ele>1442.114990234375</ele>
        <time>2005-09-23T12:18:03Z</time>
      </trkpt>
      <trkpt lat="44.726114273071289" lon="9.129960536956787">
        <ele>1435.8662109375</ele>
        <time>2005-09-23T12:18:09Z</time>
      </trkpt>
      <trkpt lat="44.725728034973145" lon="9.130303859710693">
        <ele>1431.059814453125</ele>
        <time>2005-09-23T12:18:17Z</time>
      </trkpt>
      <trkpt lat="44.725492000579834" lon="9.130496978759766">
        <ele>1431.059814453125</ele>
        <time>2005-09-23T12:18:24Z</time>
      </trkpt>
      <trkpt lat="44.725406169891357" lon="9.130625724792481">
        <ele>1431.059814453125</ele>
        <time>2005-09-23T12:18:30Z</time>
      </trkpt>
      <trkpt lat="44.725320339202881" lon="9.130754470825195">
        <ele>1431.059814453125</ele>
        <time>2005-09-23T12:18:37Z</time>
      </trkpt>
      <trkpt lat="44.725191593170166" lon="9.131054878234863">
        <ele>1429.136962890625</ele>
        <time>2005-09-23T12:18:44Z</time>
      </trkpt>
      <trkpt lat="44.724912643432617" lon="9.131698608398438">
        <ele>1422.888671875</ele>
        <time>2005-09-23T12:18:54Z</time>
      </trkpt>
      <trkpt lat="44.724676609039307" lon="9.132320880889893">
        <ele>1408.46875</ele>
        <time>2005-09-23T12:19:03Z</time>
      </trkpt>
      <trkpt lat="44.724440574645996" lon="9.132792949676514">
        <ele>1405.104248046875</ele>
        <time>2005-09-23T12:19:10Z</time>
      </trkpt>
      <trkpt lat="44.72409725189209" lon="9.133372306823731">
        <ele>1402.70068359375</ele>
        <time>2005-09-23T12:19:18Z</time>
      </trkpt>
      <trkpt lat="44.72383975982666" lon="9.133801460266113">
        <ele>1400.778076171875</ele>
        <time>2005-09-23T12:19:24Z</time>
      </trkpt>
      <trkpt lat="44.72358226776123" lon="9.134166240692139">
        <ele>1401.2587890625</ele>
        <time>2005-09-23T12:19:30Z</time>
      </trkpt>
      <trkpt lat="44.723281860351562" lon="9.134552478790283">
        <ele>1401.2587890625</ele>
        <time>2005-09-23T12:19:40Z</time>
      </trkpt>
      <trkpt lat="44.723002910614014" lon="9.134917259216309">
        <ele>1399.336181640625</ele>
        <time>2005-09-23T12:19:47Z</time>
      </trkpt>
      <trkpt lat="44.722681045532227" lon="9.135260581970215">
        <ele>1396.932861328125</ele>
        <time>2005-09-23T12:19:52Z</time>
      </trkpt>
      <trkpt lat="44.722037315368652" lon="9.13588285446167">
        <ele>1393.568359375</ele>
        <time>2005-09-23T12:20:01Z</time>
      </trkpt>
      <trkpt lat="44.721693992614746" lon="9.136118888854981">
        <ele>1393.087646484375</ele>
        <time>2005-09-23T12:20:07Z</time>
      </trkpt>
      <trkpt lat="44.721479415893555" lon="9.136247634887695">
        <ele>1393.568359375</ele>
        <time>2005-09-23T12:20:13Z</time>
      </trkpt>
      <trkpt lat="44.721329212188721" lon="9.136333465576172">
        <ele>1394.529541015625</ele>
        <time>2005-09-23T12:20:20Z</time>
      </trkpt>
      <trkpt lat="44.721264839172363" lon="9.136354923248291">
        <ele>1395.01025390625</ele>
        <time>2005-09-23T12:20:28Z</time>
      </trkpt>
      <trkpt lat="44.721157550811768" lon="9.136397838592529">
        <ele>1395.01025390625</ele>
        <time>2005-09-23T12:20:39Z</time>
      </trkpt>
      <trkpt lat="44.721050262451172" lon="9.136462211608887">
        <ele>1395.490966796875</ele>
        <time>2005-09-23T12:20:52Z</time>
      </trkpt>
      <trkpt lat="44.720942974090576" lon="9.136548042297363">
        <ele>1395.490966796875</ele>
        <time>2005-09-23T12:21:04Z</time>
      </trkpt>
      <trkpt lat="44.7208571434021" lon="9.136612415313721">
        <ele>1395.9716796875</ele>
        <time>2005-09-23T12:21:14Z</time>
      </trkpt>
      <trkpt lat="44.720771312713623" lon="9.136676788330078">
        <ele>1396.452392578125</ele>
        <time>2005-09-23T12:21:25Z</time>
      </trkpt>
      <trkpt lat="44.720664024353027" lon="9.136762619018555">
        <ele>1396.932861328125</ele>
        <time>2005-09-23T12:21:37Z</time>
      </trkpt>
      <trkpt lat="44.720556735992432" lon="9.136826992034912">
        <ele>1398.374755859375</ele>
        <time>2005-09-23T12:21:49Z</time>
      </trkpt>
      <trkpt lat="44.720449447631836" lon="9.136934280395508">
        <ele>1399.81689453125</ele>
        <time>2005-09-23T12:22:04Z</time>
      </trkpt>
      <trkpt lat="44.720363616943359" lon="9.137063026428223">
        <ele>1397.41357421875</ele>
        <time>2005-09-23T12:22:17Z</time>
      </trkpt>
      <trkpt lat="44.720256328582764" lon="9.137170314788818">
        <ele>1396.452392578125</ele>
        <time>2005-09-23T12:22:25Z</time>
      </trkpt>
      <trkpt lat="44.720234870910645" lon="9.137191772460938">
        <ele>1396.452392578125</ele>
        <time>2005-09-23T12:22:30Z</time>
      </trkpt>
      <trkpt lat="44.720234870910645" lon="9.137191772460938">
        <ele>1397.41357421875</ele>
        <time>2005-09-23T12:22:57Z</time>
      </trkpt>
      <trkpt lat="44.720191955566406" lon="9.137234687805176">
        <ele>1396.932861328125</ele>
        <time>2005-09-23T12:23:08Z</time>
      </trkpt>
      <trkpt lat="44.72010612487793" lon="9.137277603149414">
        <ele>1398.85546875</ele>
        <time>2005-09-23T12:23:18Z</time>
      </trkpt>
      <trkpt lat="44.720063209533691" lon="9.137256145477295">
        <ele>1405.5849609375</ele>
        <time>2005-09-23T12:23:29Z</time>
      </trkpt>
      <trkpt lat="44.720020294189453" lon="9.137320518493652">
        <ele>1403.662109375</ele>
        <time>2005-09-23T12:23:39Z</time>
      </trkpt>
      <trkpt lat="44.719955921173096" lon="9.137406349182129">
        <ele>1401.2587890625</ele>
        <time>2005-09-23T12:23:47Z</time>
      </trkpt>
      <trkpt lat="44.719805717468262" lon="9.137513637542725">
        <ele>1401.739501953125</ele>
        <time>2005-09-23T12:24:02Z</time>
      </trkpt>
      <trkpt lat="44.719634056091309" lon="9.137599468231201">
        <ele>1402.219970703125</ele>
        <time>2005-09-23T12:24:16Z</time>
      </trkpt>
      <trkpt lat="44.719505310058594" lon="9.137685298919678">
        <ele>1402.70068359375</ele>
        <time>2005-09-23T12:24:28Z</time>
      </trkpt>
      <trkpt lat="44.719398021697998" lon="9.137749671936035">
        <ele>1402.70068359375</ele>
        <time>2005-09-23T12:24:40Z</time>
      </trkpt>
      <trkpt lat="44.719333648681641" lon="9.137771129608154">
        <ele>1402.70068359375</ele>
        <time>2005-09-23T12:24:47Z</time>
      </trkpt>
      <trkpt lat="44.719161987304688" lon="9.137856960296631">
        <ele>1402.70068359375</ele>
        <time>2005-09-23T12:25:02Z</time>
      </trkpt>
      <trkpt lat="44.719011783599854" lon="9.137921333312988">
        <ele>1402.219970703125</ele>
        <time>2005-09-23T12:25:16Z</time>
      </trkpt>
      <trkpt lat="44.71886157989502" lon="9.137964248657227">
        <ele>1404.14306640625</ele>
        <time>2005-09-23T12:25:28Z</time>
      </trkpt>
      <trkpt lat="44.718711376190186" lon="9.137985706329346">
        <ele>1406.546142578125</ele>
        <time>2005-09-23T12:25:43Z</time>
      </trkpt>
      <trkpt lat="44.718496799468994" lon="9.137899875640869">
        <ele>1408.949462890625</ele>
        <time>2005-09-23T12:26:01Z</time>
      </trkpt>
      <trkpt lat="44.71834659576416" lon="9.13787841796875">
        <ele>1411.83349609375</ele>
        <time>2005-09-23T12:26:13Z</time>
      </trkpt>
      <trkpt lat="44.718217849731445" lon="9.137899875640869">
        <ele>1411.83349609375</ele>
        <time>2005-09-23T12:26:26Z</time>
      </trkpt>
      <trkpt lat="44.71811056137085" lon="9.137899875640869">
        <ele>1412.31396484375</ele>
        <time>2005-09-23T12:26:39Z</time>
      </trkpt>
      <trkpt lat="44.718003273010254" lon="9.137899875640869">
        <ele>1414.236572265625</ele>
        <time>2005-09-23T12:26:52Z</time>
      </trkpt>
      <trkpt lat="44.717895984649658" lon="9.137921333312988">
        <ele>1416.1591796875</ele>
        <time>2005-09-23T12:27:05Z</time>
      </trkpt>
      <trkpt lat="44.717810153961182" lon="9.137921333312988">
        <ele>1417.12060546875</ele>
        <time>2005-09-23T12:27:15Z</time>
      </trkpt>
      <trkpt lat="44.717745780944824" lon="9.137942790985107">
        <ele>1419.043212890625</ele>
        <time>2005-09-23T12:27:25Z</time>
      </trkpt>
      <trkpt lat="44.717681407928467" lon="9.137942790985107">
        <ele>1420.4853515625</ele>
        <time>2005-09-23T12:27:36Z</time>
      </trkpt>
      <trkpt lat="44.71759557723999" lon="9.137985706329346">
        <ele>1421.446533203125</ele>
        <time>2005-09-23T12:27:46Z</time>
      </trkpt>
      <trkpt lat="44.717509746551514" lon="9.138028621673584">
        <ele>1424.33056640625</ele>
        <time>2005-09-23T12:27:58Z</time>
      </trkpt>
      <trkpt lat="44.717423915863037" lon="9.138071537017822">
        <ele>1426.253173828125</ele>
        <time>2005-09-23T12:28:08Z</time>
      </trkpt>
      <trkpt lat="44.717338085174561" lon="9.13813591003418">
        <ele>1427.695068359375</ele>
        <time>2005-09-23T12:28:19Z</time>
      </trkpt>
      <trkpt lat="44.717273712158203" lon="9.138243198394775">
        <ele>1429.136962890625</ele>
        <time>2005-09-23T12:28:31Z</time>
      </trkpt>
      <trkpt lat="44.717166423797607" lon="9.138307571411133">
        <ele>1429.61767578125</ele>
        <time>2005-09-23T12:28:42Z</time>
      </trkpt>
      <trkpt lat="44.717059135437012" lon="9.138414859771729">
        <ele>1430.098388671875</ele>
        <time>2005-09-23T12:28:57Z</time>
      </trkpt>
      <trkpt lat="44.716973304748535" lon="9.138543605804443">
        <ele>1429.61767578125</ele>
        <time>2005-09-23T12:29:10Z</time>
      </trkpt>
      <trkpt lat="44.716908931732178" lon="9.138672351837158">
        <ele>1429.136962890625</ele>
        <time>2005-09-23T12:29:24Z</time>
      </trkpt>
      <trkpt lat="44.716887474060059" lon="9.138693809509277">
        <ele>1428.17578125</ele>
        <time>2005-09-23T12:29:37Z</time>
      </trkpt>
      <trkpt lat="44.716908931732178" lon="9.138715267181397">
        <ele>1424.33056640625</ele>
        <time>2005-09-23T12:30:46Z</time>
      </trkpt>
      <trkpt lat="44.716866016387939" lon="9.138801097869873">
        <ele>1425.291748046875</ele>
        <time>2005-09-23T12:30:56Z</time>
      </trkpt>
      <trkpt lat="44.716801643371582" lon="9.138951301574707">
        <ele>1426.73388671875</ele>
        <time>2005-09-23T12:31:05Z</time>
      </trkpt>
      <trkpt lat="44.716715812683105" lon="9.139230251312256">
        <ele>1428.17578125</ele>
        <time>2005-09-23T12:31:14Z</time>
      </trkpt>
      <trkpt lat="44.716629981994629" lon="9.139573574066162">
        <ele>1427.695068359375</ele>
        <time>2005-09-23T12:31:22Z</time>
      </trkpt>
      <trkpt lat="44.716629981994629" lon="9.13963794708252">
        <ele>1427.214599609375</ele>
        <time>2005-09-23T12:31:27Z</time>
      </trkpt>
      <trkpt lat="44.71660852432251" lon="9.139680862426758">
        <ele>1427.695068359375</ele>
        <time>2005-09-23T12:31:38Z</time>
      </trkpt>
      <trkpt lat="44.71660852432251" lon="9.139809608459473">
        <ele>1427.695068359375</ele>
        <time>2005-09-23T12:31:49Z</time>
      </trkpt>
      <trkpt lat="44.71660852432251" lon="9.139852523803711">
        <ele>1426.73388671875</ele>
        <time>2005-09-23T12:31:59Z</time>
      </trkpt>
      <trkpt lat="44.71660852432251" lon="9.139895439147949">
        <ele>1426.73388671875</ele>
        <time>2005-09-23T12:32:11Z</time>
      </trkpt>
      <trkpt lat="44.716565608978271" lon="9.140045642852783">
        <ele>1426.253173828125</ele>
        <time>2005-09-23T12:32:22Z</time>
      </trkpt>
      <trkpt lat="44.716501235961914" lon="9.140217304229736">
        <ele>1426.253173828125</ele>
        <time>2005-09-23T12:32:34Z</time>
      </trkpt>
      <trkpt lat="44.716436862945557" lon="9.140431880950928">
        <ele>1426.73388671875</ele>
        <time>2005-09-23T12:32:49Z</time>
      </trkpt>
      <trkpt lat="44.71635103225708" lon="9.140603542327881">
        <ele>1428.17578125</ele>
        <time>2005-09-23T12:33:02Z</time>
      </trkpt>
      <trkpt lat="44.716308116912842" lon="9.140775203704834">
        <ele>1429.61767578125</ele>
        <time>2005-09-23T12:33:10Z</time>
      </trkpt>
      <trkpt lat="44.716265201568604" lon="9.140946865081787">
        <ele>1429.61767578125</ele>
        <time>2005-09-23T12:33:18Z</time>
      </trkpt>
      <trkpt lat="44.716222286224365" lon="9.14111852645874">
        <ele>1430.098388671875</ele>
        <time>2005-09-23T12:33:26Z</time>
      </trkpt>
      <trkpt lat="44.716136455535889" lon="9.141354560852051">
        <ele>1429.136962890625</ele>
        <time>2005-09-23T12:33:35Z</time>
      </trkpt>
      <trkpt lat="44.716007709503174" lon="9.141526222229004">
        <ele>1428.17578125</ele>
        <time>2005-09-23T12:33:43Z</time>
      </trkpt>
      <trkpt lat="44.715878963470459" lon="9.141719341278076">
        <ele>1425.7724609375</ele>
        <time>2005-09-23T12:33:51Z</time>
      </trkpt>
      <trkpt lat="44.715836048126221" lon="9.141933917999268">
        <ele>1422.888671875</ele>
        <time>2005-09-23T12:33:58Z</time>
      </trkpt>
      <trkpt lat="44.715814590454102" lon="9.142105579376221">
        <ele>1421.92724609375</ele>
        <time>2005-09-23T12:34:02Z</time>
      </trkpt>
      <trkpt lat="44.715793132781982" lon="9.142277240753174">
        <ele>1421.92724609375</ele>
        <time>2005-09-23T12:34:05Z</time>
      </trkpt>
      <trkpt lat="44.715793132781982" lon="9.142405986785889">
        <ele>1421.446533203125</ele>
        <time>2005-09-23T12:34:07Z</time>
      </trkpt>
      <trkpt lat="44.715750217437744" lon="9.142642021179199">
        <ele>1420.004638671875</ele>
        <time>2005-09-23T12:34:11Z</time>
      </trkpt>
      <trkpt lat="44.71560001373291" lon="9.143006801605225">
        <ele>1417.60107421875</ele>
        <time>2005-09-23T12:34:17Z</time>
      </trkpt>
      <trkpt lat="44.71534252166748" lon="9.143393039703369">
        <ele>1417.60107421875</ele>
        <time>2005-09-23T12:34:26Z</time>
      </trkpt>
      <trkpt lat="44.714999198913574" lon="9.143843650817871">
        <ele>1416.1591796875</ele>
        <time>2005-09-23T12:34:37Z</time>
      </trkpt>
      <trkpt lat="44.714763164520264" lon="9.144337177276611">
        <ele>1415.6787109375</ele>
        <time>2005-09-23T12:34:48Z</time>
      </trkpt>
      <trkpt lat="44.714634418487549" lon="9.144852161407471">
        <ele>1415.6787109375</ele>
        <time>2005-09-23T12:34:58Z</time>
      </trkpt>
      <trkpt lat="44.714634418487549" lon="9.144916534423828">
        <ele>1415.6787109375</ele>
        <time>2005-09-23T12:35:01Z</time>
      </trkpt>
      <trkpt lat="44.714784622192383" lon="9.145045280456543">
        <ele>1415.6787109375</ele>
        <time>2005-09-23T12:35:08Z</time>
      </trkpt>
      <trkpt lat="44.714527130126953" lon="9.14536714553833">
        <ele>1415.6787109375</ele>
        <time>2005-09-23T12:35:15Z</time>
      </trkpt>
      <trkpt lat="44.713947772979736" lon="9.145774841308594">
        <ele>1415.6787109375</ele>
        <time>2005-09-23T12:35:21Z</time>
      </trkpt>
      <trkpt lat="44.713990688323975" lon="9.145796298980713">
        <ele>1415.6787109375</ele>
        <time>2005-09-23T12:35:28Z</time>
      </trkpt>
      <trkpt lat="44.714269638061523" lon="9.146182537078857">
        <ele>1415.6787109375</ele>
        <time>2005-09-23T12:35:34Z</time>
      </trkpt>
      <trkpt lat="44.714076519012451" lon="9.146890640258789">
        <ele>1415.6787109375</ele>
        <time>2005-09-23T12:35:54Z</time>
      </trkpt>
      <trkpt lat="44.7153639793396" lon="9.14686918258667">
        <ele>1415.6787109375</ele>
        <time>2005-09-23T12:35:56Z</time>
      </trkpt>
      <trkpt lat="44.714484214782715" lon="9.147083759307861">
        <ele>1353.19287109375</ele>
        <time>2005-09-23T12:36:00Z</time>
      </trkpt>
      <trkpt lat="44.714441299438477" lon="9.147233963012695">
        <ele>1353.673583984375</ele>
        <time>2005-09-23T12:36:02Z</time>
      </trkpt>
      <trkpt lat="44.714376926422119" lon="9.147534370422363">
        <ele>1346.4638671875</ele>
        <time>2005-09-23T12:36:07Z</time>
      </trkpt>
      <trkpt lat="44.714419841766357" lon="9.147813320159912">
        <ele>1343.09912109375</ele>
        <time>2005-09-23T12:36:11Z</time>
      </trkpt>
      <trkpt lat="44.714462757110596" lon="9.147963523864746">
        <ele>1341.6572265625</ele>
        <time>2005-09-23T12:36:13Z</time>
      </trkpt>
      <trkpt lat="44.714505672454834" lon="9.148435592651367">
        <ele>1337.3310546875</ele>
        <time>2005-09-23T12:36:18Z</time>
      </trkpt>
      <trkpt lat="44.714462757110596" lon="9.148950576782227">
        <ele>1336.850341796875</ele>
        <time>2005-09-23T12:36:25Z</time>
      </trkpt>
      <trkpt lat="44.714484214782715" lon="9.149186611175537">
        <ele>1334.447265625</ele>
        <time>2005-09-23T12:36:31Z</time>
      </trkpt>
      <trkpt lat="44.714462757110596" lon="9.149830341339111">
        <ele>1331.082763671875</ele>
        <time>2005-09-23T12:36:45Z</time>
      </trkpt>
      <trkpt lat="44.714398384094238" lon="9.15062427520752">
        <ele>1330.121337890625</ele>
        <time>2005-09-23T12:36:59Z</time>
      </trkpt>
      <trkpt lat="44.714398384094238" lon="9.150688648223877">
        <ele>1330.121337890625</ele>
        <time>2005-09-23T12:37:00Z</time>
      </trkpt>
      <trkpt lat="44.714398384094238" lon="9.150645732879639">
        <ele>1328.679443359375</ele>
        <time>2005-09-23T12:37:05Z</time>
      </trkpt>
      <trkpt lat="44.714398384094238" lon="9.150753021240234">
        <ele>1327.718017578125</ele>
        <time>2005-09-23T12:37:12Z</time>
      </trkpt>
      <trkpt lat="44.714376926422119" lon="9.15086030960083">
        <ele>1327.718017578125</ele>
        <time>2005-09-23T12:37:20Z</time>
      </trkpt>
      <trkpt lat="44.714312553405762" lon="9.150946140289307">
        <ele>1327.237548828125</ele>
        <time>2005-09-23T12:37:29Z</time>
      </trkpt>
      <trkpt lat="44.714226722717285" lon="9.151096343994141">
        <ele>1327.718017578125</ele>
        <time>2005-09-23T12:37:42Z</time>
      </trkpt>
      <trkpt lat="44.714140892028809" lon="9.151182174682617">
        <ele>1328.19873046875</ele>
        <time>2005-09-23T12:37:52Z</time>
      </trkpt>
      <trkpt lat="44.714076519012451" lon="9.151246547698975">
        <ele>1328.679443359375</ele>
        <time>2005-09-23T12:38:02Z</time>
      </trkpt>
      <trkpt lat="44.713969230651855" lon="9.15137529373169">
        <ele>1327.718017578125</ele>
        <time>2005-09-23T12:38:14Z</time>
      </trkpt>
      <trkpt lat="44.713883399963379" lon="9.151461124420166">
        <ele>1326.276123046875</ele>
        <time>2005-09-23T12:38:25Z</time>
      </trkpt>
      <trkpt lat="44.713754653930664" lon="9.151632785797119">
        <ele>1326.7568359375</ele>
        <time>2005-09-23T12:38:34Z</time>
      </trkpt>
      <trkpt lat="44.713454246520996" lon="9.151890277862549">
        <ele>1326.7568359375</ele>
        <time>2005-09-23T12:38:47Z</time>
      </trkpt>
      <trkpt lat="44.713261127471924" lon="9.151997566223145">
        <ele>1326.7568359375</ele>
        <time>2005-09-23T12:38:56Z</time>
      </trkpt>
      <trkpt lat="44.713068008422852" lon="9.152061939239502">
        <ele>1327.237548828125</ele>
        <time>2005-09-23T12:39:12Z</time>
      </trkpt>
      <trkpt lat="44.713046550750732" lon="9.152083396911621">
        <ele>1330.60205078125</ele>
        <time>2005-09-23T12:39:21Z</time>
      </trkpt>
      <trkpt lat="44.712982177734375" lon="9.152126312255859">
        <ele>1332.0439453125</ele>
        <time>2005-09-23T12:39:31Z</time>
      </trkpt>
      <trkpt lat="44.71285343170166" lon="9.152212142944336">
        <ele>1333.005126953125</ele>
        <time>2005-09-23T12:39:46Z</time>
      </trkpt>
      <trkpt lat="44.712638854980469" lon="9.152297973632813">
        <ele>1333.005126953125</ele>
        <time>2005-09-23T12:40:17Z</time>
      </trkpt>
      <trkpt lat="44.712467193603516" lon="9.152319431304932">
        <ele>1333.48583984375</ele>
        <time>2005-09-23T12:40:40Z</time>
      </trkpt>
      <trkpt lat="44.712231159210205" lon="9.15236234664917">
        <ele>1333.005126953125</ele>
        <time>2005-09-23T12:41:04Z</time>
      </trkpt>
      <trkpt lat="44.71186637878418" lon="9.152512550354004">
        <ele>1333.005126953125</ele>
        <time>2005-09-23T12:41:47Z</time>
      </trkpt>
      <trkpt lat="44.711780548095703" lon="9.15311336517334">
        <ele>1333.005126953125</ele>
        <time>2005-09-23T12:41:49Z</time>
      </trkpt>
      <trkpt lat="44.71186637878418" lon="9.153156280517578">
        <ele>1333.005126953125</ele>
        <time>2005-09-23T12:42:01Z</time>
      </trkpt>
      <trkpt lat="44.711694717407227" lon="9.153263568878174">
        <ele>1333.005126953125</ele>
        <time>2005-09-23T12:42:13Z</time>
      </trkpt>
      <trkpt lat="44.711844921112061" lon="9.153263568878174">
        <ele>1333.005126953125</ele>
        <time>2005-09-23T12:42:25Z</time>
      </trkpt>
      <trkpt lat="44.711694717407227" lon="9.153542518615723">
        <ele>1333.005126953125</ele>
        <time>2005-09-23T12:42:44Z</time>
      </trkpt>
      <trkpt lat="44.711651802062988" lon="9.153692722320557">
        <ele>1333.005126953125</ele>
        <time>2005-09-23T12:42:54Z</time>
      </trkpt>
      <trkpt lat="44.711630344390869" lon="9.153950214385986">
        <ele>1333.005126953125</ele>
        <time>2005-09-23T12:43:12Z</time>
      </trkpt>
      <trkpt lat="44.711651802062988" lon="9.154014587402344">
        <ele>1333.005126953125</ele>
        <time>2005-09-23T12:43:18Z</time>
      </trkpt>
      <trkpt lat="44.711587429046631" lon="9.15410041809082">
        <ele>1330.60205078125</ele>
        <time>2005-09-23T12:43:29Z</time>
      </trkpt>
      <trkpt lat="44.711523056030273" lon="9.154207706451416">
        <ele>1328.19873046875</ele>
        <time>2005-09-23T12:43:41Z</time>
      </trkpt>
      <trkpt lat="44.711394309997559" lon="9.154400825500488">
        <ele>1328.19873046875</ele>
        <time>2005-09-23T12:43:58Z</time>
      </trkpt>
      <trkpt lat="44.711308479309082" lon="9.154636859893799">
        <ele>1325.314697265625</ele>
        <time>2005-09-23T12:44:19Z</time>
      </trkpt>
      <trkpt lat="44.711287021636963" lon="9.154787063598633">
        <ele>1325.314697265625</ele>
        <time>2005-09-23T12:44:37Z</time>
      </trkpt>
      <trkpt lat="44.711244106292725" lon="9.155023097991943">
        <ele>1325.314697265625</ele>
        <time>2005-09-23T12:44:51Z</time>
      </trkpt>
      <trkpt lat="44.71111536026001" lon="9.155280590057373">
        <ele>1324.834228515625</ele>
        <time>2005-09-23T12:45:15Z</time>
      </trkpt>
      <trkpt lat="44.709634780883789" lon="9.158456325531006">
        <ele>1324.834228515625</ele>
        <time>2005-09-23T12:52:55Z</time>
      </trkpt>
      <trkpt lat="44.709570407867432" lon="9.159722328186035">
        <ele>1324.834228515625</ele>
        <time>2005-09-23T12:52:58Z</time>
      </trkpt>
      <trkpt lat="44.710342884063721" lon="9.159400463104248">
        <ele>1324.834228515625</ele>
        <time>2005-09-23T12:53:04Z</time>
      </trkpt>
      <trkpt lat="44.710257053375244" lon="9.159550666809082">
        <ele>1324.834228515625</ele>
        <time>2005-09-23T12:53:34Z</time>
      </trkpt>
      <trkpt lat="44.710278511047363" lon="9.159765243530273">
        <ele>1324.834228515625</ele>
        <time>2005-09-23T12:54:01Z</time>
      </trkpt>
      <trkpt lat="44.710214138031006" lon="9.160044193267822">
        <ele>1324.834228515625</ele>
        <time>2005-09-23T12:54:30Z</time>
      </trkpt>
      <trkpt lat="44.710149765014648" lon="9.160237312316895">
        <ele>1324.834228515625</ele>
        <time>2005-09-23T12:54:53Z</time>
      </trkpt>
      <trkpt lat="44.709935188293457" lon="9.160451889038086">
        <ele>1324.834228515625</ele>
        <time>2005-09-23T12:55:23Z</time>
      </trkpt>
      <trkpt lat="44.708969593048096" lon="9.161245822906494">
        <ele>1328.19873046875</ele>
        <time>2005-09-23T12:56:02Z</time>
      </trkpt>
      <trkpt lat="44.70911979675293" lon="9.161117076873779">
        <ele>1330.121337890625</ele>
        <time>2005-09-23T12:56:13Z</time>
      </trkpt>
      <trkpt lat="44.708926677703857" lon="9.161138534545898">
        <ele>1337.3310546875</ele>
        <time>2005-09-23T12:56:30Z</time>
      </trkpt>
      <trkpt lat="44.708840847015381" lon="9.161031246185303">
        <ele>1344.541015625</ele>
        <time>2005-09-23T12:56:42Z</time>
      </trkpt>
      <trkpt lat="44.708733558654785" lon="9.160945415496826">
        <ele>1348.38623046875</ele>
        <time>2005-09-23T12:56:54Z</time>
      </trkpt>
      <trkpt lat="44.708669185638428" lon="9.160838127136231">
        <ele>1348.38623046875</ele>
        <time>2005-09-23T12:57:05Z</time>
      </trkpt>
      <trkpt lat="44.708669185638428" lon="9.160816669464111">
        <ele>1348.38623046875</ele>
        <time>2005-09-23T12:57:07Z</time>
      </trkpt>
      <trkpt lat="44.708540439605713" lon="9.160709381103516">
        <ele>1349.34765625</ele>
        <time>2005-09-23T12:57:18Z</time>
      </trkpt>
      <trkpt lat="44.708325862884521" lon="9.160494804382324">
        <ele>1349.828369140625</ele>
        <time>2005-09-23T12:57:26Z</time>
      </trkpt>
      <trkpt lat="44.708025455474854" lon="9.16010856628418">
        <ele>1349.828369140625</ele>
        <time>2005-09-23T12:57:37Z</time>
      </trkpt>
      <trkpt lat="44.70787525177002" lon="9.160022735595703">
        <ele>1352.712158203125</ele>
        <time>2005-09-23T12:57:42Z</time>
      </trkpt>
      <trkpt lat="44.70761775970459" lon="9.159872531890869">
        <ele>1354.634765625</ele>
        <time>2005-09-23T12:57:54Z</time>
      </trkpt>
      <trkpt lat="44.707403182983398" lon="9.159743785858154">
        <ele>1356.076904296875</ele>
        <time>2005-09-23T12:58:05Z</time>
      </trkpt>
      <trkpt lat="44.707210063934326" lon="9.159529209136963">
        <ele>1357.038330078125</ele>
        <time>2005-09-23T12:58:16Z</time>
      </trkpt>
      <trkpt lat="44.707059860229492" lon="9.159421920776367">
        <ele>1357.999755859375</ele>
        <time>2005-09-23T12:58:27Z</time>
      </trkpt>
      <trkpt lat="44.707016944885254" lon="9.159421920776367">
        <ele>1358.480224609375</ele>
        <time>2005-09-23T12:58:33Z</time>
      </trkpt>
      <trkpt lat="44.706845283508301" lon="9.159486293792725">
        <ele>1359.922119140625</ele>
        <time>2005-09-23T12:58:48Z</time>
      </trkpt>
      <trkpt lat="44.706695079803467" lon="9.159550666809082">
        <ele>1360.883544921875</ele>
        <time>2005-09-23T12:58:57Z</time>
      </trkpt>
      <trkpt lat="44.706394672393799" lon="9.159743785858154">
        <ele>1360.883544921875</ele>
        <time>2005-09-23T12:59:08Z</time>
      </trkpt>
      <trkpt lat="44.706265926361084" lon="9.160151481628418">
        <ele>1362.80615234375</ele>
        <time>2005-09-23T12:59:19Z</time>
      </trkpt>
      <trkpt lat="44.706137180328369" lon="9.160387516021729">
        <ele>1364.728759765625</ele>
        <time>2005-09-23T12:59:28Z</time>
      </trkpt>
      <trkpt lat="44.70611572265625" lon="9.160430431365967">
        <ele>1365.690185546875</ele>
        <time>2005-09-23T12:59:33Z</time>
      </trkpt>
      <trkpt lat="44.706008434295654" lon="9.160580635070801">
        <ele>1367.612548828125</ele>
        <time>2005-09-23T12:59:47Z</time>
      </trkpt>
      <trkpt lat="44.705879688262939" lon="9.160687923431397">
        <ele>1370.015869140625</ele>
        <time>2005-09-23T13:00:00Z</time>
      </trkpt>
      <trkpt lat="44.705750942230225" lon="9.160773754119873">
        <ele>1370.49658203125</ele>
        <time>2005-09-23T13:00:15Z</time>
      </trkpt>
      <trkpt lat="44.705643653869629" lon="9.16085958480835">
        <ele>1372.41943359375</ele>
        <time>2005-09-23T13:00:26Z</time>
      </trkpt>
      <trkpt lat="44.705536365509033" lon="9.160881042480469">
        <ele>1372.41943359375</ele>
        <time>2005-09-23T13:00:37Z</time>
      </trkpt>
      <trkpt lat="44.70510721206665" lon="9.160988330841065">
        <ele>1373.380859375</ele>
        <time>2005-09-23T13:01:39Z</time>
      </trkpt>
      <trkpt lat="44.705042839050293" lon="9.161481857299805">
        <ele>1375.783935546875</ele>
        <time>2005-09-23T13:01:52Z</time>
      </trkpt>
      <trkpt lat="44.704978466033936" lon="9.161674976348877">
        <ele>1375.783935546875</ele>
        <time>2005-09-23T13:02:14Z</time>
      </trkpt>
      <trkpt lat="44.70487117767334" lon="9.161782264709473">
        <ele>1374.82275390625</ele>
        <time>2005-09-23T13:02:30Z</time>
      </trkpt>
      <trkpt lat="44.704785346984863" lon="9.161803722381592">
        <ele>1375.783935546875</ele>
        <time>2005-09-23T13:02:41Z</time>
      </trkpt>
      <trkpt lat="44.704656600952148" lon="9.161803722381592">
        <ele>1374.342041015625</ele>
        <time>2005-09-23T13:02:45Z</time>
      </trkpt>
      <trkpt lat="44.704420566558838" lon="9.161739349365234">
        <ele>1374.342041015625</ele>
        <time>2005-09-23T13:02:53Z</time>
      </trkpt>
      <trkpt lat="44.704248905181885" lon="9.161717891693115">
        <ele>1373.861328125</ele>
        <time>2005-09-23T13:03:02Z</time>
      </trkpt>
      <trkpt lat="44.704034328460693" lon="9.161760807037354">
        <ele>1373.380859375</ele>
        <time>2005-09-23T13:03:11Z</time>
      </trkpt>
      <trkpt lat="44.703755378723145" lon="9.161653518676758">
        <ele>1374.342041015625</ele>
        <time>2005-09-23T13:03:22Z</time>
      </trkpt>
      <trkpt lat="44.703519344329834" lon="9.161567687988281">
        <ele>1375.30322265625</ele>
        <time>2005-09-23T13:03:33Z</time>
      </trkpt>
      <trkpt lat="44.70311164855957" lon="9.161567687988281">
        <ele>1375.30322265625</ele>
        <time>2005-09-23T13:03:55Z</time>
      </trkpt>
      <trkpt lat="44.701824188232422" lon="9.161567687988281">
        <ele>1355.115478515625</ele>
        <time>2005-09-23T13:05:15Z</time>
      </trkpt>
      <trkpt lat="44.70261812210083" lon="9.164764881134033">
        <ele>1351.270263671875</ele>
        <time>2005-09-23T13:05:19Z</time>
      </trkpt>
      <trkpt lat="44.70238208770752" lon="9.165215492248535">
        <ele>1359.441650390625</ele>
        <time>2005-09-23T13:05:27Z</time>
      </trkpt>
      <trkpt lat="44.702146053314209" lon="9.165580272674561">
        <ele>1365.20947265625</ele>
        <time>2005-09-23T13:05:34Z</time>
      </trkpt>
      <trkpt lat="44.702017307281494" lon="9.165666103363037">
        <ele>1364.248046875</ele>
        <time>2005-09-23T13:05:38Z</time>
      </trkpt>
      <trkpt lat="44.701845645904541" lon="9.165773391723633">
        <ele>1363.286865234375</ele>
        <time>2005-09-23T13:05:42Z</time>
      </trkpt>
      <trkpt lat="44.701673984527588" lon="9.165902137756348">
        <ele>1362.80615234375</ele>
        <time>2005-09-23T13:05:48Z</time>
      </trkpt>
      <trkpt lat="44.70163106918335" lon="9.165923595428467">
        <ele>1361.844970703125</ele>
        <time>2005-09-23T13:05:54Z</time>
      </trkpt>
      <trkpt lat="44.701588153839111" lon="9.165945053100586">
        <ele>1361.3642578125</ele>
        <time>2005-09-23T13:05:59Z</time>
      </trkpt>
      <trkpt lat="44.701480865478516" lon="9.165987968444824">
        <ele>1359.441650390625</ele>
        <time>2005-09-23T13:06:12Z</time>
      </trkpt>
      <trkpt lat="44.70137357711792" lon="9.166052341461182">
        <ele>1358.480224609375</ele>
        <time>2005-09-23T13:06:25Z</time>
      </trkpt>
      <trkpt lat="44.701309204101563" lon="9.166116714477539">
        <ele>1358.480224609375</ele>
        <time>2005-09-23T13:06:36Z</time>
      </trkpt>
      <trkpt lat="44.701223373413086" lon="9.166224002838135">
        <ele>1359.922119140625</ele>
        <time>2005-09-23T13:06:50Z</time>
      </trkpt>
      <trkpt lat="44.701159000396729" lon="9.166288375854492">
        <ele>1361.844970703125</ele>
        <time>2005-09-23T13:07:03Z</time>
      </trkpt>
      <trkpt lat="44.701094627380371" lon="9.166331291198731">
        <ele>1363.286865234375</ele>
        <time>2005-09-23T13:07:17Z</time>
      </trkpt>
      <trkpt lat="44.701073169708252" lon="9.166374206542969">
        <ele>1366.6513671875</ele>
        <time>2005-09-23T13:07:27Z</time>
      </trkpt>
      <trkpt lat="44.701008796691895" lon="9.166417121887207">
        <ele>1367.612548828125</ele>
        <time>2005-09-23T13:07:36Z</time>
      </trkpt>
      <trkpt lat="44.700965881347656" lon="9.166460037231445">
        <ele>1368.09326171875</ele>
        <time>2005-09-23T13:07:48Z</time>
      </trkpt>
      <trkpt lat="44.700922966003418" lon="9.166502952575684">
        <ele>1369.0546875</ele>
        <time>2005-09-23T13:07:59Z</time>
      </trkpt>
      <trkpt lat="44.700944423675537" lon="9.166524410247803">
        <ele>1369.535400390625</ele>
        <time>2005-09-23T13:08:17Z</time>
      </trkpt>
      <trkpt lat="44.700901508331299" lon="9.166524410247803">
        <ele>1369.535400390625</ele>
        <time>2005-09-23T13:08:24Z</time>
      </trkpt>
      <trkpt lat="44.700837135314941" lon="9.16658878326416">
        <ele>1369.535400390625</ele>
        <time>2005-09-23T13:08:36Z</time>
      </trkpt>
      <trkpt lat="44.700729846954346" lon="9.166631698608398">
        <ele>1371.9384765625</ele>
        <time>2005-09-23T13:08:49Z</time>
      </trkpt>
      <trkpt lat="44.700579643249512" lon="9.166631698608398">
        <ele>1372.900146484375</ele>
        <time>2005-09-23T13:09:06Z</time>
      </trkpt>
      <trkpt lat="44.700558185577393" lon="9.166631698608398">
        <ele>1372.900146484375</ele>
        <time>2005-09-23T13:09:10Z</time>
      </trkpt>
      <trkpt lat="44.700472354888916" lon="9.166631698608398">
        <ele>1372.900146484375</ele>
        <time>2005-09-23T13:09:18Z</time>
      </trkpt>
      <trkpt lat="44.700322151184082" lon="9.166610240936279">
        <ele>1372.900146484375</ele>
        <time>2005-09-23T13:09:25Z</time>
      </trkpt>
      <trkpt lat="44.699163436889648" lon="9.166524410247803">
        <ele>1387.80029296875</ele>
        <time>2005-09-23T13:10:13Z</time>
      </trkpt>
      <trkpt lat="44.69987154006958" lon="9.166953563690186">
        <ele>1385.877685546875</ele>
        <time>2005-09-23T13:10:21Z</time>
      </trkpt>
      <trkpt lat="44.699699878692627" lon="9.167060852050781">
        <ele>1391.645751953125</ele>
        <time>2005-09-23T13:10:45Z</time>
      </trkpt>
      <trkpt lat="44.697661399841309" lon="9.168455600738525">
        <ele>1393.087646484375</ele>
        <time>2005-09-23T13:19:00Z</time>
      </trkpt>
      <trkpt lat="44.700064659118652" lon="9.166438579559326">
        <ele>1400.297607421875</ele>
        <time>2005-09-23T13:19:05Z</time>
      </trkpt>
      <trkpt lat="44.699807167053223" lon="9.166674613952637">
        <ele>1407.98828125</ele>
        <time>2005-09-23T13:19:11Z</time>
      </trkpt>
      <trkpt lat="44.696910381317139" lon="9.167962074279785">
        <ele>1397.41357421875</ele>
        <time>2005-09-23T13:19:46Z</time>
      </trkpt>
      <trkpt lat="44.697232246398926" lon="9.167726039886475">
        <ele>1397.41357421875</ele>
        <time>2005-09-23T13:20:02Z</time>
      </trkpt>
      <trkpt lat="44.699099063873291" lon="9.167211055755615">
        <ele>1385.877685546875</ele>
        <time>2005-09-23T13:23:54Z</time>
      </trkpt>
      <trkpt lat="44.699549674987793" lon="9.166932106018066">
        <ele>1371.457763671875</ele>
        <time>2005-09-23T13:48:06Z</time>
      </trkpt>
      <trkpt lat="44.69963550567627" lon="9.166996479034424">
        <ele>1386.3583984375</ele>
        <time>2005-09-23T14:09:20Z</time>
      </trkpt>
      <trkpt lat="44.699592590332031" lon="9.167017936706543">
        <ele>1389.242431640625</ele>
        <time>2005-09-23T14:09:42Z</time>
      </trkpt>
      <trkpt lat="44.699206352233887" lon="9.16710376739502">
        <ele>1403.181396484375</ele>
        <time>2005-09-23T14:11:44Z</time>
      </trkpt>
      <trkpt lat="44.699206352233887" lon="9.16710376739502">
        <ele>1403.181396484375</ele>
        <time>2005-09-23T14:11:45Z</time>
      </trkpt>
      <trkpt lat="44.699163436889648" lon="9.167447090148926">
        <ele>1396.452392578125</ele>
        <time>2005-09-23T14:11:56Z</time>
      </trkpt>
      <trkpt lat="44.698991775512695" lon="9.16783332824707">
        <ele>1396.452392578125</ele>
        <time>2005-09-23T14:12:04Z</time>
      </trkpt>
      <trkpt lat="44.698755741119385" lon="9.168112277984619">
        <ele>1396.452392578125</ele>
        <time>2005-09-23T14:12:15Z</time>
      </trkpt>
      <trkpt lat="44.698455333709717" lon="9.168241024017334">
        <ele>1398.374755859375</ele>
        <time>2005-09-23T14:12:29Z</time>
      </trkpt>
      <trkpt lat="44.698326587677002" lon="9.168305397033691">
        <ele>1398.374755859375</ele>
        <time>2005-09-23T14:12:39Z</time>
      </trkpt>
      <trkpt lat="44.698348045349121" lon="9.168369770050049">
        <ele>1398.374755859375</ele>
        <time>2005-09-23T14:12:47Z</time>
      </trkpt>
      <trkpt lat="44.69836950302124" lon="9.168477058410645">
        <ele>1399.81689453125</ele>
        <time>2005-09-23T14:13:01Z</time>
      </trkpt>
      <trkpt lat="44.698390960693359" lon="9.168498516082764">
        <ele>1400.297607421875</ele>
        <time>2005-09-23T14:13:03Z</time>
      </trkpt>
      <trkpt lat="44.698390960693359" lon="9.168562889099121">
        <ele>1401.2587890625</ele>
        <time>2005-09-23T14:13:12Z</time>
      </trkpt>
      <trkpt lat="44.698412418365479" lon="9.168691635131836">
        <ele>1402.70068359375</ele>
        <time>2005-09-23T14:13:26Z</time>
      </trkpt>
      <trkpt lat="44.698390960693359" lon="9.168734550476074">
        <ele>1405.5849609375</ele>
        <time>2005-09-23T14:13:34Z</time>
      </trkpt>
      <trkpt lat="44.698348045349121" lon="9.16884183883667">
        <ele>1407.507568359375</ele>
        <time>2005-09-23T14:13:46Z</time>
      </trkpt>
      <trkpt lat="44.698326587677002" lon="9.168884754180908">
        <ele>1410.391357421875</ele>
        <time>2005-09-23T14:13:58Z</time>
      </trkpt>
      <trkpt lat="44.698305130004883" lon="9.168884754180908">
        <ele>1412.31396484375</ele>
        <time>2005-09-23T14:14:07Z</time>
      </trkpt>
      <trkpt lat="44.698283672332764" lon="9.168949127197266">
        <ele>1417.12060546875</ele>
        <time>2005-09-23T14:14:24Z</time>
      </trkpt>
      <trkpt lat="44.698197841644287" lon="9.168992042541504">
        <ele>1419.043212890625</ele>
        <time>2005-09-23T14:14:38Z</time>
      </trkpt>
      <trkpt lat="44.698090553283691" lon="9.168992042541504">
        <ele>1419.043212890625</ele>
        <time>2005-09-23T14:14:56Z</time>
      </trkpt>
      <trkpt lat="44.698069095611572" lon="9.168992042541504">
        <ele>1420.4853515625</ele>
        <time>2005-09-23T14:15:06Z</time>
      </trkpt>
      <trkpt lat="44.698069095611572" lon="9.168992042541504">
        <ele>1420.966064453125</ele>
        <time>2005-09-23T14:15:19Z</time>
      </trkpt>
      <trkpt lat="44.698004722595215" lon="9.168906211853027">
        <ele>1421.92724609375</ele>
        <time>2005-09-23T14:15:38Z</time>
      </trkpt>
      <trkpt lat="44.697940349578857" lon="9.168798923492432">
        <ele>1422.407958984375</ele>
        <time>2005-09-23T14:15:58Z</time>
      </trkpt>
      <trkpt lat="44.697811603546143" lon="9.168713092803955">
        <ele>1423.849853515625</ele>
        <time>2005-09-23T14:16:23Z</time>
      </trkpt>
      <trkpt lat="44.697682857513428" lon="9.168713092803955">
        <ele>1428.17578125</ele>
        <time>2005-09-23T14:16:39Z</time>
      </trkpt>
      <trkpt lat="44.697639942169189" lon="9.168777465820313">
        <ele>1430.5791015625</ele>
        <time>2005-09-23T14:16:50Z</time>
      </trkpt>
      <trkpt lat="44.697661399841309" lon="9.168884754180908">
        <ele>1433.462890625</ele>
        <time>2005-09-23T14:17:05Z</time>
      </trkpt>
      <trkpt lat="44.697661399841309" lon="9.168884754180908">
        <ele>1436.82763671875</ele>
        <time>2005-09-23T14:17:27Z</time>
      </trkpt>
      <trkpt lat="44.697682857513428" lon="9.168949127197266">
        <ele>1437.308349609375</ele>
        <time>2005-09-23T14:17:36Z</time>
      </trkpt>
      <trkpt lat="44.697682857513428" lon="9.169077873229981">
        <ele>1439.711669921875</ele>
        <time>2005-09-23T14:17:49Z</time>
      </trkpt>
      <trkpt lat="44.697682857513428" lon="9.1690993309021">
        <ele>1439.711669921875</ele>
        <time>2005-09-23T14:17:51Z</time>
      </trkpt>
      <trkpt lat="44.697661399841309" lon="9.169206619262695">
        <ele>1441.153564453125</ele>
        <time>2005-09-23T14:18:00Z</time>
      </trkpt>
      <trkpt lat="44.697639942169189" lon="9.169270992279053">
        <ele>1441.63427734375</ele>
        <time>2005-09-23T14:18:04Z</time>
      </trkpt>
      <trkpt lat="44.697575569152832" lon="9.169485569000244">
        <ele>1442.114990234375</ele>
        <time>2005-09-23T14:18:14Z</time>
      </trkpt>
      <trkpt lat="44.697446823120117" lon="9.169871807098389">
        <ele>1442.114990234375</ele>
        <time>2005-09-23T14:18:28Z</time>
      </trkpt>
      <trkpt lat="44.697446823120117" lon="9.17008638381958">
        <ele>1442.114990234375</ele>
        <time>2005-09-23T14:18:39Z</time>
      </trkpt>
      <trkpt lat="44.697468280792236" lon="9.17008638381958">
        <ele>1444.998779296875</ele>
        <time>2005-09-23T14:18:49Z</time>
      </trkpt>
      <trkpt lat="44.697597026824951" lon="9.170193672180176">
        <ele>1444.03759765625</ele>
        <time>2005-09-23T14:19:15Z</time>
      </trkpt>
      <trkpt lat="44.697639942169189" lon="9.170258045196533">
        <ele>1444.03759765625</ele>
        <time>2005-09-23T14:19:21Z</time>
      </trkpt>
      <trkpt lat="44.697790145874023" lon="9.170472621917725">
        <ele>1446.44091796875</ele>
        <time>2005-09-23T14:19:41Z</time>
      </trkpt>
      <trkpt lat="44.697983264923096" lon="9.170687198638916">
        <ele>1446.44091796875</ele>
        <time>2005-09-23T14:20:03Z</time>
      </trkpt>
      <trkpt lat="44.698047637939453" lon="9.170858860015869">
        <ele>1445.960205078125</ele>
        <time>2005-09-23T14:20:17Z</time>
      </trkpt>
      <trkpt lat="44.698069095611572" lon="9.171030521392822">
        <ele>1446.92138671875</ele>
        <time>2005-09-23T14:20:30Z</time>
      </trkpt>
      <trkpt lat="44.698026180267334" lon="9.171137809753418">
        <ele>1447.402099609375</ele>
        <time>2005-09-23T14:20:43Z</time>
      </trkpt>
      <trkpt lat="44.697833061218262" lon="9.171073436737061">
        <ele>1450.2861328125</ele>
        <time>2005-09-23T14:21:07Z</time>
      </trkpt>
      <trkpt lat="44.697790145874023" lon="9.171030521392822">
        <ele>1453.170166015625</ele>
        <time>2005-09-23T14:21:20Z</time>
      </trkpt>
      <trkpt lat="44.697725772857666" lon="9.171030521392822">
        <ele>1456.053955078125</ele>
        <time>2005-09-23T14:21:32Z</time>
      </trkpt>
      <trkpt lat="44.697704315185547" lon="9.171073436737061">
        <ele>1457.015380859375</ele>
        <time>2005-09-23T14:21:43Z</time>
      </trkpt>
      <trkpt lat="44.697704315185547" lon="9.171116352081299">
        <ele>1460.3798828125</ele>
        <time>2005-09-23T14:21:57Z</time>
      </trkpt>
      <trkpt lat="44.697639942169189" lon="9.171116352081299">
        <ele>1461.822021484375</ele>
        <time>2005-09-23T14:22:06Z</time>
      </trkpt>
      <trkpt lat="44.697554111480713" lon="9.17109489440918">
        <ele>1463.263916015625</ele>
        <time>2005-09-23T14:22:18Z</time>
      </trkpt>
      <trkpt lat="44.697468280792236" lon="9.17109489440918">
        <ele>1464.22509765625</ele>
        <time>2005-09-23T14:22:32Z</time>
      </trkpt>
      <trkpt lat="44.697403907775879" lon="9.171116352081299">
        <ele>1465.667236328125</ele>
        <time>2005-09-23T14:22:46Z</time>
      </trkpt>
      <trkpt lat="44.697275161743164" lon="9.17109489440918">
        <ele>1467.589599609375</ele>
        <time>2005-09-23T14:23:06Z</time>
      </trkpt>
      <trkpt lat="44.697167873382568" lon="9.171073436737061">
        <ele>1470.473876953125</ele>
        <time>2005-09-23T14:23:26Z</time>
      </trkpt>
      <trkpt lat="44.697082042694092" lon="9.171073436737061">
        <ele>1472.877197265625</ele>
        <time>2005-09-23T14:23:38Z</time>
      </trkpt>
      <trkpt lat="44.697060585021973" lon="9.171073436737061">
        <ele>1469.5126953125</ele>
        <time>2005-09-23T14:23:52Z</time>
      </trkpt>
      <trkpt lat="44.697017669677734" lon="9.171030521392822">
        <ele>1470.473876953125</ele>
        <time>2005-09-23T14:24:10Z</time>
      </trkpt>
      <trkpt lat="44.6968674659729" lon="9.171073436737061">
        <ele>1471.915771484375</ele>
        <time>2005-09-23T14:24:27Z</time>
      </trkpt>
      <trkpt lat="44.696824550628662" lon="9.171030521392822">
        <ele>1474.7998046875</ele>
        <time>2005-09-23T14:24:39Z</time>
      </trkpt>
      <trkpt lat="44.696760177612305" lon="9.170987606048584">
        <ele>1474.7998046875</ele>
        <time>2005-09-23T14:24:53Z</time>
      </trkpt>
      <trkpt lat="44.696717262268066" lon="9.170944690704346">
        <ele>1476.24169921875</ele>
        <time>2005-09-23T14:25:07Z</time>
      </trkpt>
      <trkpt lat="44.69663143157959" lon="9.170773029327393">
        <ele>1476.24169921875</ele>
        <time>2005-09-23T14:25:33Z</time>
      </trkpt>
      <trkpt lat="44.696588516235352" lon="9.170665740966797">
        <ele>1476.722412109375</ele>
        <time>2005-09-23T14:25:48Z</time>
      </trkpt>
      <trkpt lat="44.696588516235352" lon="9.17060136795044">
        <ele>1476.722412109375</ele>
        <time>2005-09-23T14:26:07Z</time>
      </trkpt>
      <trkpt lat="44.696438312530518" lon="9.170558452606201">
        <ele>1477.203125</ele>
        <time>2005-09-23T14:26:42Z</time>
      </trkpt>
      <trkpt lat="44.696352481842041" lon="9.170472621917725">
        <ele>1478.64501953125</ele>
        <time>2005-09-23T14:26:58Z</time>
      </trkpt>
      <trkpt lat="44.696245193481445" lon="9.170408248901367">
        <ele>1480.0869140625</ele>
        <time>2005-09-23T14:27:16Z</time>
      </trkpt>
      <trkpt lat="44.696266651153564" lon="9.170536994934082">
        <ele>1480.567626953125</ele>
        <time>2005-09-23T14:27:32Z</time>
      </trkpt>
      <trkpt lat="44.696266651153564" lon="9.170536994934082">
        <ele>1482.490234375</ele>
        <time>2005-09-23T14:27:41Z</time>
      </trkpt>
      <trkpt lat="44.696266651153564" lon="9.17057991027832">
        <ele>1485.85498046875</ele>
        <time>2005-09-23T14:27:50Z</time>
      </trkpt>
      <trkpt lat="44.696245193481445" lon="9.170644283294678">
        <ele>1487.296875</ele>
        <time>2005-09-23T14:27:58Z</time>
      </trkpt>
      <trkpt lat="44.696245193481445" lon="9.170687198638916">
        <ele>1489.7001953125</ele>
        <time>2005-09-23T14:28:07Z</time>
      </trkpt>
      <trkpt lat="44.696223735809326" lon="9.170730113983154">
        <ele>1491.14208984375</ele>
        <time>2005-09-23T14:28:18Z</time>
      </trkpt>
      <trkpt lat="44.696202278137207" lon="9.170773029327393">
        <ele>1492.103515625</ele>
        <time>2005-09-23T14:28:25Z</time>
      </trkpt>
      <trkpt lat="44.696180820465088" lon="9.170794486999512">
        <ele>1486.816162109375</ele>
        <time>2005-09-23T14:28:40Z</time>
      </trkpt>
      <trkpt lat="44.696159362792969" lon="9.170815944671631">
        <ele>1488.739013671875</ele>
        <time>2005-09-23T14:28:50Z</time>
      </trkpt>
      <trkpt lat="44.69613790512085" lon="9.170880317687988">
        <ele>1490.661376953125</ele>
        <time>2005-09-23T14:28:59Z</time>
      </trkpt>
      <trkpt lat="44.696094989776611" lon="9.170923233032227">
        <ele>1497.390625</ele>
        <time>2005-09-23T14:29:16Z</time>
      </trkpt>
      <trkpt lat="44.696073532104492" lon="9.170923233032227">
        <ele>1500.27490234375</ele>
        <time>2005-09-23T14:29:26Z</time>
      </trkpt>
      <trkpt lat="44.696052074432373" lon="9.170987606048584">
        <ele>1500.75537109375</ele>
        <time>2005-09-23T14:29:37Z</time>
      </trkpt>
      <trkpt lat="44.696073532104492" lon="9.171009063720703">
        <ele>1500.27490234375</ele>
        <time>2005-09-23T14:29:47Z</time>
      </trkpt>
      <trkpt lat="44.696073532104492" lon="9.171073436737061">
        <ele>1503.15869140625</ele>
        <time>2005-09-23T14:29:55Z</time>
      </trkpt>
      <trkpt lat="44.696052074432373" lon="9.171180725097656">
        <ele>1504.1201171875</ele>
        <time>2005-09-23T14:30:05Z</time>
      </trkpt>
      <trkpt lat="44.695987701416016" lon="9.17133092880249">
        <ele>1507.00390625</ele>
        <time>2005-09-23T14:30:25Z</time>
      </trkpt>
      <trkpt lat="44.695944786071777" lon="9.171459674835205">
        <ele>1509.8876953125</ele>
        <time>2005-09-23T14:30:38Z</time>
      </trkpt>
      <trkpt lat="44.695901870727539" lon="9.171545505523682">
        <ele>1510.84912109375</ele>
        <time>2005-09-23T14:30:49Z</time>
      </trkpt>
      <trkpt lat="44.695816040039062" lon="9.17158842086792">
        <ele>1512.291015625</ele>
        <time>2005-09-23T14:31:02Z</time>
      </trkpt>
      <trkpt lat="44.695773124694824" lon="9.171631336212158">
        <ele>1513.25244140625</ele>
        <time>2005-09-23T14:31:10Z</time>
      </trkpt>
      <trkpt lat="44.695687294006348" lon="9.171695709228516">
        <ele>1516.6171875</ele>
        <time>2005-09-23T14:31:22Z</time>
      </trkpt>
      <trkpt lat="44.69562292098999" lon="9.171760082244873">
        <ele>1517.578369140625</ele>
        <time>2005-09-23T14:31:33Z</time>
      </trkpt>
      <trkpt lat="44.695558547973633" lon="9.171760082244873">
        <ele>1518.539794921875</ele>
        <time>2005-09-23T14:31:41Z</time>
      </trkpt>
      <trkpt lat="44.695515632629395" lon="9.171781539916992">
        <ele>1518.539794921875</ele>
        <time>2005-09-23T14:31:49Z</time>
      </trkpt>
      <trkpt lat="44.695451259613037" lon="9.171802997589111">
        <ele>1519.0205078125</ele>
        <time>2005-09-23T14:31:57Z</time>
      </trkpt>
      <trkpt lat="44.695343971252441" lon="9.171867370605469">
        <ele>1520.46240234375</ele>
        <time>2005-09-23T14:32:10Z</time>
      </trkpt>
      <trkpt lat="44.695258140563965" lon="9.171910285949707">
        <ele>1522.86572265625</ele>
        <time>2005-09-23T14:32:22Z</time>
      </trkpt>
      <trkpt lat="44.695193767547607" lon="9.171910285949707">
        <ele>1523.826904296875</ele>
        <time>2005-09-23T14:32:32Z</time>
      </trkpt>
      <trkpt lat="44.695172309875488" lon="9.171996116638184">
        <ele>1523.826904296875</ele>
        <time>2005-09-23T14:32:41Z</time>
      </trkpt>
      <trkpt lat="44.695150852203369" lon="9.172124862670898">
        <ele>1523.826904296875</ele>
        <time>2005-09-23T14:32:52Z</time>
      </trkpt>
      <trkpt lat="44.695150852203369" lon="9.172146320343018">
        <ele>1523.826904296875</ele>
        <time>2005-09-23T14:32:55Z</time>
      </trkpt>
      <trkpt lat="44.695172309875488" lon="9.172210693359375">
        <ele>1523.826904296875</ele>
        <time>2005-09-23T14:32:59Z</time>
      </trkpt>
      <trkpt lat="44.695215225219727" lon="9.172275066375732">
        <ele>1525.268798828125</ele>
        <time>2005-09-23T14:33:08Z</time>
      </trkpt>
      <trkpt lat="44.695279598236084" lon="9.172403812408447">
        <ele>1526.230224609375</ele>
        <time>2005-09-23T14:33:19Z</time>
      </trkpt>
      <trkpt lat="44.695322513580322" lon="9.172468185424805">
        <ele>1526.7109375</ele>
        <time>2005-09-23T14:33:27Z</time>
      </trkpt>
      <trkpt lat="44.695343971252441" lon="9.172554016113281">
        <ele>1526.7109375</ele>
        <time>2005-09-23T14:33:34Z</time>
      </trkpt>
      <trkpt lat="44.69538688659668" lon="9.172747135162354">
        <ele>1527.672119140625</ele>
        <time>2005-09-23T14:33:48Z</time>
      </trkpt>
      <trkpt lat="44.695451259613037" lon="9.172897338867188">
        <ele>1527.672119140625</ele>
        <time>2005-09-23T14:34:01Z</time>
      </trkpt>
      <trkpt lat="44.695537090301514" lon="9.172983169555664">
        <ele>1528.15283203125</ele>
        <time>2005-09-23T14:34:11Z</time>
      </trkpt>
      <trkpt lat="44.695644378662109" lon="9.173047542572022">
        <ele>1528.15283203125</ele>
        <time>2005-09-23T14:34:22Z</time>
      </trkpt>
      <trkpt lat="44.695730209350586" lon="9.173133373260498">
        <ele>1529.114013671875</ele>
        <time>2005-09-23T14:34:34Z</time>
      </trkpt>
      <trkpt lat="44.695794582366943" lon="9.173240661621094">
        <ele>1529.5947265625</ele>
        <time>2005-09-23T14:34:45Z</time>
      </trkpt>
      <trkpt lat="44.69588041305542" lon="9.173390865325928">
        <ele>1530.55615234375</ele>
        <time>2005-09-23T14:34:57Z</time>
      </trkpt>
      <trkpt lat="44.695966243743896" lon="9.173476696014404">
        <ele>1531.517333984375</ele>
        <time>2005-09-23T14:35:09Z</time>
      </trkpt>
      <trkpt lat="44.696052074432373" lon="9.173626899719238">
        <ele>1532.95947265625</ele>
        <time>2005-09-23T14:35:22Z</time>
      </trkpt>
      <trkpt lat="44.696073532104492" lon="9.173669815063477">
        <ele>1532.95947265625</ele>
        <time>2005-09-23T14:35:26Z</time>
      </trkpt>
      <trkpt lat="44.696094989776611" lon="9.173820018768311">
        <ele>1533.440185546875</ele>
        <time>2005-09-23T14:35:34Z</time>
      </trkpt>
      <trkpt lat="44.696202278137207" lon="9.174056053161621">
        <ele>1531.517333984375</ele>
        <time>2005-09-23T14:35:42Z</time>
      </trkpt>
      <trkpt lat="44.696223735809326" lon="9.174120426177979">
        <ele>1531.036865234375</ele>
        <time>2005-09-23T14:35:43Z</time>
      </trkpt>
      <trkpt lat="44.696266651153564" lon="9.17433500289917">
        <ele>1529.5947265625</ele>
        <time>2005-09-23T14:35:47Z</time>
      </trkpt>
      <trkpt lat="44.696352481842041" lon="9.174528121948242">
        <ele>1529.114013671875</ele>
        <time>2005-09-23T14:35:51Z</time>
      </trkpt>
      <trkpt lat="44.696459770202637" lon="9.174635410308838">
        <ele>1530.55615234375</ele>
        <time>2005-09-23T14:35:58Z</time>
      </trkpt>
      <trkpt lat="44.696481227874756" lon="9.174656867980957">
        <ele>1530.55615234375</ele>
        <time>2005-09-23T14:36:04Z</time>
      </trkpt>
      <trkpt lat="44.696481227874756" lon="9.174742698669434">
        <ele>1531.998046875</ele>
        <time>2005-09-23T14:36:14Z</time>
      </trkpt>
      <trkpt lat="44.696481227874756" lon="9.17482852935791">
        <ele>1532.47900390625</ele>
        <time>2005-09-23T14:36:22Z</time>
      </trkpt>
      <trkpt lat="44.696481227874756" lon="9.174849987030029">
        <ele>1532.47900390625</ele>
        <time>2005-09-23T14:36:24Z</time>
      </trkpt>
      <trkpt lat="44.696545600891113" lon="9.174957275390625">
        <ele>1532.47900390625</ele>
        <time>2005-09-23T14:36:35Z</time>
      </trkpt>
      <trkpt lat="44.696588516235352" lon="9.174978733062744">
        <ele>1532.95947265625</ele>
        <time>2005-09-23T14:36:41Z</time>
      </trkpt>
      <trkpt lat="44.696674346923828" lon="9.175064563751221">
        <ele>1533.9208984375</ele>
        <time>2005-09-23T14:36:53Z</time>
      </trkpt>
      <trkpt lat="44.696717262268066" lon="9.175107479095459">
        <ele>1534.401611328125</ele>
        <time>2005-09-23T14:37:02Z</time>
      </trkpt>
      <trkpt lat="44.696760177612305" lon="9.175171852111816">
        <ele>1534.88232421875</ele>
        <time>2005-09-23T14:37:10Z</time>
      </trkpt>
      <trkpt lat="44.696846008300781" lon="9.175236225128174">
        <ele>1535.36279296875</ele>
        <time>2005-09-23T14:37:20Z</time>
      </trkpt>
      <trkpt lat="44.696931838989258" lon="9.175257682800293">
        <ele>1535.36279296875</ele>
        <time>2005-09-23T14:37:30Z</time>
      </trkpt>
      <trkpt lat="44.697039127349854" lon="9.17532205581665">
        <ele>1535.843505859375</ele>
        <time>2005-09-23T14:37:41Z</time>
      </trkpt>
      <trkpt lat="44.697103500366211" lon="9.175386428833008">
        <ele>1536.32421875</ele>
        <time>2005-09-23T14:37:48Z</time>
      </trkpt>
      <trkpt lat="44.697167873382568" lon="9.175429344177246">
        <ele>1536.8046875</ele>
        <time>2005-09-23T14:37:55Z</time>
      </trkpt>
      <trkpt lat="44.697189331054688" lon="9.175429344177246">
        <ele>1536.8046875</ele>
        <time>2005-09-23T14:37:57Z</time>
      </trkpt>
      <trkpt lat="44.697232246398926" lon="9.175493717193604">
        <ele>1537.76611328125</ele>
        <time>2005-09-23T14:38:04Z</time>
      </trkpt>
      <trkpt lat="44.697296619415283" lon="9.175601005554199">
        <ele>1539.688720703125</ele>
        <time>2005-09-23T14:38:15Z</time>
      </trkpt>
      <trkpt lat="44.697360992431641" lon="9.175686836242676">
        <ele>1540.16943359375</ele>
        <time>2005-09-23T14:38:23Z</time>
      </trkpt>
      <trkpt lat="44.697425365447998" lon="9.17583703994751">
        <ele>1541.130615234375</ele>
        <time>2005-09-23T14:38:36Z</time>
      </trkpt>
      <trkpt lat="44.697446823120117" lon="9.175965785980225">
        <ele>1540.64990234375</ele>
        <time>2005-09-23T14:38:46Z</time>
      </trkpt>
      <trkpt lat="44.697446823120117" lon="9.176030158996582">
        <ele>1540.64990234375</ele>
        <time>2005-09-23T14:38:54Z</time>
      </trkpt>
      <trkpt lat="44.697446823120117" lon="9.17607307434082">
        <ele>1540.64990234375</ele>
        <time>2005-09-23T14:39:04Z</time>
      </trkpt>
      <trkpt lat="44.697446823120117" lon="9.176158905029297">
        <ele>1540.64990234375</ele>
        <time>2005-09-23T14:39:08Z</time>
      </trkpt>
      <trkpt lat="44.69738245010376" lon="9.176309108734131">
        <ele>1540.16943359375</ele>
        <time>2005-09-23T14:39:15Z</time>
      </trkpt>
      <trkpt lat="44.69738245010376" lon="9.17633056640625">
        <ele>1540.16943359375</ele>
        <time>2005-09-23T14:39:20Z</time>
      </trkpt>
      <trkpt lat="44.697360992431641" lon="9.176416397094727">
        <ele>1541.130615234375</ele>
        <time>2005-09-23T14:39:31Z</time>
      </trkpt>
      <trkpt lat="44.697318077087402" lon="9.176630973815918">
        <ele>1541.130615234375</ele>
        <time>2005-09-23T14:39:39Z</time>
      </trkpt>
      <trkpt lat="44.697253704071045" lon="9.176759719848633">
        <ele>1541.130615234375</ele>
        <time>2005-09-23T14:39:47Z</time>
      </trkpt>
      <trkpt lat="44.697167873382568" lon="9.176931381225586">
        <ele>1542.57275390625</ele>
        <time>2005-09-23T14:39:58Z</time>
      </trkpt>
      <trkpt lat="44.697082042694092" lon="9.177124500274658">
        <ele>1542.092041015625</ele>
        <time>2005-09-23T14:40:07Z</time>
      </trkpt>
      <trkpt lat="44.696996212005615" lon="9.177296161651611">
        <ele>1542.092041015625</ele>
        <time>2005-09-23T14:40:15Z</time>
      </trkpt>
      <trkpt lat="44.69688892364502" lon="9.177424907684326">
        <ele>1543.05322265625</ele>
        <time>2005-09-23T14:40:22Z</time>
      </trkpt>
      <trkpt lat="44.696781635284424" lon="9.17757511138916">
        <ele>1543.05322265625</ele>
        <time>2005-09-23T14:40:30Z</time>
      </trkpt>
      <trkpt lat="44.696652889251709" lon="9.177746772766113">
        <ele>1543.533935546875</ele>
        <time>2005-09-23T14:40:40Z</time>
      </trkpt>
      <trkpt lat="44.696567058563232" lon="9.17783260345459">
        <ele>1544.0146484375</ele>
        <time>2005-09-23T14:40:48Z</time>
      </trkpt>
      <trkpt lat="44.696438312530518" lon="9.177896976470947">
        <ele>1544.0146484375</ele>
        <time>2005-09-23T14:40:55Z</time>
      </trkpt>
      <trkpt lat="44.696245193481445" lon="9.177961349487305">
        <ele>1543.533935546875</ele>
        <time>2005-09-23T14:41:04Z</time>
      </trkpt>
      <trkpt lat="44.696180820465088" lon="9.177961349487305">
        <ele>1543.05322265625</ele>
        <time>2005-09-23T14:41:06Z</time>
      </trkpt>
      <trkpt lat="44.696052074432373" lon="9.1780686378479">
        <ele>1544.0146484375</ele>
        <time>2005-09-23T14:41:14Z</time>
      </trkpt>
      <trkpt lat="44.695923328399658" lon="9.178154468536377">
        <ele>1543.533935546875</ele>
        <time>2005-09-23T14:41:19Z</time>
      </trkpt>
      <trkpt lat="44.695773124694824" lon="9.178154468536377">
        <ele>1543.533935546875</ele>
        <time>2005-09-23T14:41:27Z</time>
      </trkpt>
      <trkpt lat="44.69562292098999" lon="9.17809009552002">
        <ele>1543.05322265625</ele>
        <time>2005-09-23T14:41:34Z</time>
      </trkpt>
      <trkpt lat="44.695515632629395" lon="9.177982807159424">
        <ele>1542.57275390625</ele>
        <time>2005-09-23T14:41:42Z</time>
      </trkpt>
      <trkpt lat="44.695494174957275" lon="9.177961349487305">
        <ele>1543.05322265625</ele>
        <time>2005-09-23T14:41:49Z</time>
      </trkpt>
      <trkpt lat="44.695408344268799" lon="9.177896976470947">
        <ele>1543.05322265625</ele>
        <time>2005-09-23T14:42:18Z</time>
      </trkpt>
      <trkpt lat="44.695279598236084" lon="9.177768230438232">
        <ele>1542.57275390625</ele>
        <time>2005-09-23T14:42:26Z</time>
      </trkpt>
      <trkpt lat="44.695086479187012" lon="9.17757511138916">
        <ele>1543.05322265625</ele>
        <time>2005-09-23T14:42:35Z</time>
      </trkpt>
      <trkpt lat="44.695065021514893" lon="9.177553653717041">
        <ele>1543.05322265625</ele>
        <time>2005-09-23T14:42:41Z</time>
      </trkpt>
      <trkpt lat="44.695043563842773" lon="9.177532196044922">
        <ele>1543.05322265625</ele>
        <time>2005-09-23T14:42:49Z</time>
      </trkpt>
      <trkpt lat="44.695000648498535" lon="9.177467823028565">
        <ele>1544.0146484375</ele>
        <time>2005-09-23T14:42:56Z</time>
      </trkpt>
      <trkpt lat="44.694979190826416" lon="9.177446365356445">
        <ele>1543.533935546875</ele>
        <time>2005-09-23T14:43:05Z</time>
      </trkpt>
      <trkpt lat="44.694914817810059" lon="9.177381992340088">
        <ele>1544.4951171875</ele>
        <time>2005-09-23T14:43:13Z</time>
      </trkpt>
      <trkpt lat="44.69487190246582" lon="9.17733907699585">
        <ele>1544.0146484375</ele>
        <time>2005-09-23T14:43:19Z</time>
      </trkpt>
      <trkpt lat="44.694743156433105" lon="9.177253246307373">
        <ele>1544.0146484375</ele>
        <time>2005-09-23T14:43:26Z</time>
      </trkpt>
      <trkpt lat="44.694550037384033" lon="9.177103042602539">
        <ele>1544.4951171875</ele>
        <time>2005-09-23T14:43:36Z</time>
      </trkpt>
      <trkpt lat="44.694442749023438" lon="9.176952838897705">
        <ele>1545.937255859375</ele>
        <time>2005-09-23T14:43:44Z</time>
      </trkpt>
      <trkpt lat="44.694356918334961" lon="9.176867008209229">
        <ele>1546.8984375</ele>
        <time>2005-09-23T14:43:50Z</time>
      </trkpt>
      <trkpt lat="44.694335460662842" lon="9.176867008209229">
        <ele>1546.8984375</ele>
        <time>2005-09-23T14:43:55Z</time>
      </trkpt>
      <trkpt lat="44.694335460662842" lon="9.176867008209229">
        <ele>1547.85986328125</ele>
        <time>2005-09-23T14:44:01Z</time>
      </trkpt>
      <trkpt lat="44.694271087646484" lon="9.17682409286499">
        <ele>1547.85986328125</ele>
        <time>2005-09-23T14:44:08Z</time>
      </trkpt>
      <trkpt lat="44.69414234161377" lon="9.176759719848633">
        <ele>1548.8212890625</ele>
        <time>2005-09-23T14:44:22Z</time>
      </trkpt>
      <trkpt lat="44.694056510925293" lon="9.176695346832275">
        <ele>1550.263427734375</ele>
        <time>2005-09-23T14:44:33Z</time>
      </trkpt>
      <trkpt lat="44.694013595581055" lon="9.176630973815918">
        <ele>1551.224609375</ele>
        <time>2005-09-23T14:44:40Z</time>
      </trkpt>
      <trkpt lat="44.693970680236816" lon="9.176609516143799">
        <ele>1550.743896484375</ele>
        <time>2005-09-23T14:44:47Z</time>
      </trkpt>
      <trkpt lat="44.693906307220459" lon="9.17658805847168">
        <ele>1550.263427734375</ele>
        <time>2005-09-23T14:44:56Z</time>
      </trkpt>
      <trkpt lat="44.693799018859863" lon="9.17658805847168">
        <ele>1549.78271484375</ele>
        <time>2005-09-23T14:45:02Z</time>
      </trkpt>
      <trkpt lat="44.693648815155029" lon="9.176502227783203">
        <ele>1549.302001953125</ele>
        <time>2005-09-23T14:45:10Z</time>
      </trkpt>
      <trkpt lat="44.693605899810791" lon="9.176480770111084">
        <ele>1549.78271484375</ele>
        <time>2005-09-23T14:45:16Z</time>
      </trkpt>
      <trkpt lat="44.693584442138672" lon="9.176459312438965">
        <ele>1549.78271484375</ele>
        <time>2005-09-23T14:45:22Z</time>
      </trkpt>
      <trkpt lat="44.693562984466553" lon="9.176437854766846">
        <ele>1550.263427734375</ele>
        <time>2005-09-23T14:45:24Z</time>
      </trkpt>
      <trkpt lat="44.693412780761719" lon="9.176459312438965">
        <ele>1547.85986328125</ele>
        <time>2005-09-23T14:45:31Z</time>
      </trkpt>
      <trkpt lat="44.693198204040527" lon="9.176523685455322">
        <ele>1546.41796875</ele>
        <time>2005-09-23T14:45:37Z</time>
      </trkpt>
      <trkpt lat="44.693048000335693" lon="9.176523685455322">
        <ele>1544.4951171875</ele>
        <time>2005-09-23T14:45:41Z</time>
      </trkpt>
      <trkpt lat="44.692940711975098" lon="9.176523685455322">
        <ele>1544.4951171875</ele>
        <time>2005-09-23T14:45:44Z</time>
      </trkpt>
      <trkpt lat="44.692811965942383" lon="9.176523685455322">
        <ele>1544.975830078125</ele>
        <time>2005-09-23T14:45:50Z</time>
      </trkpt>
      <trkpt lat="44.69264030456543" lon="9.176437854766846">
        <ele>1544.975830078125</ele>
        <time>2005-09-23T14:45:58Z</time>
      </trkpt>
      <trkpt lat="44.692511558532715" lon="9.176502227783203">
        <ele>1545.45654296875</ele>
        <time>2005-09-23T14:46:03Z</time>
      </trkpt>
      <trkpt lat="44.692361354827881" lon="9.176566600799561">
        <ele>1546.41796875</ele>
        <time>2005-09-23T14:46:10Z</time>
      </trkpt>
      <trkpt lat="44.692211151123047" lon="9.176630973815918">
        <ele>1546.41796875</ele>
        <time>2005-09-23T14:46:17Z</time>
      </trkpt>
      <trkpt lat="44.692189693450928" lon="9.176652431488037">
        <ele>1547.379150390625</ele>
        <time>2005-09-23T14:46:22Z</time>
      </trkpt>
      <trkpt lat="44.692168235778809" lon="9.176695346832275">
        <ele>1546.8984375</ele>
        <time>2005-09-23T14:46:30Z</time>
      </trkpt>
      <trkpt lat="44.692103862762451" lon="9.176738262176514">
        <ele>1547.379150390625</ele>
        <time>2005-09-23T14:46:37Z</time>
      </trkpt>
      <trkpt lat="44.691975116729736" lon="9.176781177520752">
        <ele>1547.379150390625</ele>
        <time>2005-09-23T14:46:44Z</time>
      </trkpt>
      <trkpt lat="44.691824913024902" lon="9.176759719848633">
        <ele>1546.41796875</ele>
        <time>2005-09-23T14:46:50Z</time>
      </trkpt>
      <trkpt lat="44.691781997680664" lon="9.176759719848633">
        <ele>1546.41796875</ele>
        <time>2005-09-23T14:46:55Z</time>
      </trkpt>
      <trkpt lat="44.691739082336426" lon="9.176759719848633">
        <ele>1547.379150390625</ele>
        <time>2005-09-23T14:47:02Z</time>
      </trkpt>
      <trkpt lat="44.691653251647949" lon="9.176759719848633">
        <ele>1547.85986328125</ele>
        <time>2005-09-23T14:47:12Z</time>
      </trkpt>
      <trkpt lat="44.691610336303711" lon="9.176781177520752">
        <ele>1545.937255859375</ele>
        <time>2005-09-23T14:47:22Z</time>
      </trkpt>
      <trkpt lat="44.691588878631592" lon="9.176781177520752">
        <ele>1545.937255859375</ele>
        <time>2005-09-23T14:47:30Z</time>
      </trkpt>
      <trkpt lat="44.691481590270996" lon="9.17682409286499">
        <ele>1545.937255859375</ele>
        <time>2005-09-23T14:47:39Z</time>
      </trkpt>
      <trkpt lat="44.69139575958252" lon="9.176867008209229">
        <ele>1546.8984375</ele>
        <time>2005-09-23T14:47:48Z</time>
      </trkpt>
      <trkpt lat="44.691352844238281" lon="9.176867008209229">
        <ele>1546.41796875</ele>
        <time>2005-09-23T14:47:53Z</time>
      </trkpt>
      <trkpt lat="44.691309928894043" lon="9.176867008209229">
        <ele>1546.8984375</ele>
        <time>2005-09-23T14:47:59Z</time>
      </trkpt>
      <trkpt lat="44.691267013549805" lon="9.176909923553467">
        <ele>1545.937255859375</ele>
        <time>2005-09-23T14:48:05Z</time>
      </trkpt>
      <trkpt lat="44.691116809844971" lon="9.176952838897705">
        <ele>1544.975830078125</ele>
        <time>2005-09-23T14:48:14Z</time>
      </trkpt>
      <trkpt lat="44.690966606140137" lon="9.177124500274658">
        <ele>1544.4951171875</ele>
        <time>2005-09-23T14:48:20Z</time>
      </trkpt>
      <trkpt lat="44.690859317779541" lon="9.177253246307373">
        <ele>1544.975830078125</ele>
        <time>2005-09-23T14:48:26Z</time>
      </trkpt>
      <trkpt lat="44.690730571746826" lon="9.177317619323731">
        <ele>1543.05322265625</ele>
        <time>2005-09-23T14:48:33Z</time>
      </trkpt>
      <trkpt lat="44.690666198730469" lon="9.177403450012207">
        <ele>1541.611328125</ele>
        <time>2005-09-23T14:48:36Z</time>
      </trkpt>
      <trkpt lat="44.690580368041992" lon="9.177467823028565">
        <ele>1541.130615234375</ele>
        <time>2005-09-23T14:48:40Z</time>
      </trkpt>
      <trkpt lat="44.690515995025635" lon="9.177682399749756">
        <ele>1541.130615234375</ele>
        <time>2005-09-23T14:48:46Z</time>
      </trkpt>
      <trkpt lat="44.690515995025635" lon="9.177682399749756">
        <ele>1539.688720703125</ele>
        <time>2005-09-23T14:48:50Z</time>
      </trkpt>
      <trkpt lat="44.690494537353516" lon="9.177746772766113">
        <ele>1540.16943359375</ele>
        <time>2005-09-23T14:48:54Z</time>
      </trkpt>
      <trkpt lat="44.690451622009277" lon="9.17783260345459">
        <ele>1541.611328125</ele>
        <time>2005-09-23T14:49:03Z</time>
      </trkpt>
      <trkpt lat="44.690451622009277" lon="9.177939891815186">
        <ele>1543.05322265625</ele>
        <time>2005-09-23T14:49:11Z</time>
      </trkpt>
      <trkpt lat="44.690430164337158" lon="9.178154468536377">
        <ele>1542.092041015625</ele>
        <time>2005-09-23T14:49:23Z</time>
      </trkpt>
      <trkpt lat="44.690430164337158" lon="9.178283214569092">
        <ele>1542.57275390625</ele>
        <time>2005-09-23T14:49:32Z</time>
      </trkpt>
      <trkpt lat="44.690408706665039" lon="9.17832612991333">
        <ele>1543.05322265625</ele>
        <time>2005-09-23T14:49:40Z</time>
      </trkpt>
      <trkpt lat="44.690365791320801" lon="9.178411960601807">
        <ele>1543.05322265625</ele>
        <time>2005-09-23T14:49:47Z</time>
      </trkpt>
      <trkpt lat="44.690237045288086" lon="9.178519248962402">
        <ele>1542.092041015625</ele>
        <time>2005-09-23T14:49:53Z</time>
      </trkpt>
      <trkpt lat="44.69012975692749" lon="9.178712368011475">
        <ele>1541.611328125</ele>
        <time>2005-09-23T14:50:00Z</time>
      </trkpt>
      <trkpt lat="44.69012975692749" lon="9.178733825683594">
        <ele>1541.130615234375</ele>
        <time>2005-09-23T14:50:06Z</time>
      </trkpt>
      <trkpt lat="44.690151214599609" lon="9.178798198699951">
        <ele>1539.2080078125</ele>
        <time>2005-09-23T14:50:15Z</time>
      </trkpt>
      <trkpt lat="44.690151214599609" lon="9.17884111404419">
        <ele>1538.7275390625</ele>
        <time>2005-09-23T14:50:17Z</time>
      </trkpt>
      <trkpt lat="44.69012975692749" lon="9.178948402404785">
        <ele>1539.688720703125</ele>
        <time>2005-09-23T14:50:25Z</time>
      </trkpt>
      <trkpt lat="44.690108299255371" lon="9.179055690765381">
        <ele>1539.688720703125</ele>
        <time>2005-09-23T14:50:34Z</time>
      </trkpt>
      <trkpt lat="44.690108299255371" lon="9.179184436798096">
        <ele>1538.7275390625</ele>
        <time>2005-09-23T14:50:46Z</time>
      </trkpt>
      <trkpt lat="44.690086841583252" lon="9.179270267486572">
        <ele>1539.688720703125</ele>
        <time>2005-09-23T14:50:54Z</time>
      </trkpt>
      <trkpt lat="44.690065383911133" lon="9.179291725158691">
        <ele>1540.16943359375</ele>
        <time>2005-09-23T14:51:01Z</time>
      </trkpt>
      <trkpt lat="44.690043926239014" lon="9.17933464050293">
        <ele>1539.688720703125</ele>
        <time>2005-09-23T14:51:04Z</time>
      </trkpt>
      <trkpt lat="44.690001010894775" lon="9.179506301879883">
        <ele>1539.2080078125</ele>
        <time>2005-09-23T14:51:16Z</time>
      </trkpt>
      <trkpt lat="44.689936637878418" lon="9.179635047912598">
        <ele>1539.2080078125</ele>
        <time>2005-09-23T14:51:26Z</time>
      </trkpt>
      <trkpt lat="44.68989372253418" lon="9.179742336273193">
        <ele>1539.688720703125</ele>
        <time>2005-09-23T14:51:35Z</time>
      </trkpt>
      <trkpt lat="44.689872264862061" lon="9.179785251617432">
        <ele>1539.688720703125</ele>
        <time>2005-09-23T14:51:43Z</time>
      </trkpt>
      <trkpt lat="44.689850807189941" lon="9.179806709289551">
        <ele>1537.285400390625</ele>
        <time>2005-09-23T14:52:08Z</time>
      </trkpt>
      <trkpt lat="44.689807891845703" lon="9.179871082305908">
        <ele>1537.285400390625</ele>
        <time>2005-09-23T14:52:16Z</time>
      </trkpt>
      <trkpt lat="44.689743518829346" lon="9.179978370666504">
        <ele>1538.246826171875</ele>
        <time>2005-09-23T14:52:26Z</time>
      </trkpt>
      <trkpt lat="44.689679145812988" lon="9.180128574371338">
        <ele>1538.7275390625</ele>
        <time>2005-09-23T14:52:33Z</time>
      </trkpt>
      <trkpt lat="44.689528942108154" lon="9.180493354797363">
        <ele>1542.092041015625</ele>
        <time>2005-09-23T14:52:46Z</time>
      </trkpt>
      <trkpt lat="44.689421653747559" lon="9.18081521987915">
        <ele>1544.0146484375</ele>
        <time>2005-09-23T14:52:59Z</time>
      </trkpt>
      <trkpt lat="44.689314365386963" lon="9.181115627288818">
        <ele>1544.4951171875</ele>
        <time>2005-09-23T14:53:11Z</time>
      </trkpt>
      <trkpt lat="44.689185619354248" lon="9.181458950042725">
        <ele>1544.4951171875</ele>
        <time>2005-09-23T14:53:23Z</time>
      </trkpt>
      <trkpt lat="44.689099788665771" lon="9.181866645812988">
        <ele>1545.45654296875</ele>
        <time>2005-09-23T14:53:36Z</time>
      </trkpt>
      <trkpt lat="44.689013957977295" lon="9.182381629943848">
        <ele>1547.85986328125</ele>
        <time>2005-09-23T14:53:52Z</time>
      </trkpt>
      <trkpt lat="44.688928127288818" lon="9.182724952697754">
        <ele>1548.8212890625</ele>
        <time>2005-09-23T14:54:05Z</time>
      </trkpt>
      <trkpt lat="44.688820838928223" lon="9.183025360107422">
        <ele>1549.78271484375</ele>
        <time>2005-09-23T14:54:18Z</time>
      </trkpt>
      <trkpt lat="44.688777923583984" lon="9.183154106140137">
        <ele>1549.302001953125</ele>
        <time>2005-09-23T14:54:24Z</time>
      </trkpt>
      <trkpt lat="44.688756465911865" lon="9.183218479156494">
        <ele>1548.8212890625</ele>
        <time>2005-09-23T14:54:31Z</time>
      </trkpt>
      <trkpt lat="44.688777923583984" lon="9.183218479156494">
        <ele>1548.8212890625</ele>
        <time>2005-09-23T14:54:52Z</time>
      </trkpt>
      <trkpt lat="44.688777923583984" lon="9.183239936828613">
        <ele>1549.302001953125</ele>
        <time>2005-09-23T14:55:07Z</time>
      </trkpt>
      <trkpt lat="44.688735008239746" lon="9.183197021484375">
        <ele>1547.379150390625</ele>
        <time>2005-09-23T14:56:50Z</time>
      </trkpt>
      <trkpt lat="44.688735008239746" lon="9.183197021484375">
        <ele>1547.379150390625</ele>
        <time>2005-09-23T14:56:59Z</time>
      </trkpt>
      <trkpt lat="44.688735008239746" lon="9.183197021484375">
        <ele>1547.379150390625</ele>
        <time>2005-09-23T14:57:16Z</time>
      </trkpt>
      <trkpt lat="44.688735008239746" lon="9.183197021484375">
        <ele>1548.340576171875</ele>
        <time>2005-09-23T14:57:50Z</time>
      </trkpt>
      <trkpt lat="44.688735008239746" lon="9.183239936828613">
        <ele>1548.340576171875</ele>
        <time>2005-09-23T14:58:16Z</time>
      </trkpt>
      <trkpt lat="44.688692092895508" lon="9.183282852172852">
        <ele>1547.85986328125</ele>
        <time>2005-09-23T14:58:22Z</time>
      </trkpt>
      <trkpt lat="44.688606262207031" lon="9.183282852172852">
        <ele>1546.41796875</ele>
        <time>2005-09-23T14:58:28Z</time>
      </trkpt>
      <trkpt lat="44.688584804534912" lon="9.183282852172852">
        <ele>1545.937255859375</ele>
        <time>2005-09-23T14:58:34Z</time>
      </trkpt>
      <trkpt lat="44.688541889190674" lon="9.183304309844971">
        <ele>1543.533935546875</ele>
        <time>2005-09-23T14:58:45Z</time>
      </trkpt>
      <trkpt lat="44.688498973846436" lon="9.18332576751709">
        <ele>1541.611328125</ele>
        <time>2005-09-23T14:58:54Z</time>
      </trkpt>
      <trkpt lat="44.688477516174316" lon="9.183304309844971">
        <ele>1541.130615234375</ele>
        <time>2005-09-23T14:58:56Z</time>
      </trkpt>
      <trkpt lat="44.688456058502197" lon="9.183304309844971">
        <ele>1539.2080078125</ele>
        <time>2005-09-23T14:59:02Z</time>
      </trkpt>
      <trkpt lat="44.688348770141602" lon="9.183390140533447">
        <ele>1536.32421875</ele>
        <time>2005-09-23T14:59:09Z</time>
      </trkpt>
      <trkpt lat="44.688348770141602" lon="9.183411598205566">
        <ele>1535.843505859375</ele>
        <time>2005-09-23T14:59:10Z</time>
      </trkpt>
      <trkpt lat="44.688262939453125" lon="9.183497428894043">
        <ele>1532.95947265625</ele>
        <time>2005-09-23T14:59:14Z</time>
      </trkpt>
      <trkpt lat="44.688112735748291" lon="9.183604717254639">
        <ele>1528.633544921875</ele>
        <time>2005-09-23T14:59:19Z</time>
      </trkpt>
      <trkpt lat="44.687983989715576" lon="9.183690547943115">
        <ele>1527.191650390625</ele>
        <time>2005-09-23T14:59:24Z</time>
      </trkpt>
      <trkpt lat="44.687962532043457" lon="9.183733463287354">
        <ele>1526.7109375</ele>
        <time>2005-09-23T14:59:28Z</time>
      </trkpt>
      <trkpt lat="44.687919616699219" lon="9.183948040008545">
        <ele>1522.86572265625</ele>
        <time>2005-09-23T14:59:35Z</time>
      </trkpt>
      <trkpt lat="44.687855243682861" lon="9.184184074401856">
        <ele>1519.981689453125</ele>
        <time>2005-09-23T14:59:41Z</time>
      </trkpt>
      <trkpt lat="44.687855243682861" lon="9.184226989746094">
        <ele>1519.981689453125</ele>
        <time>2005-09-23T14:59:42Z</time>
      </trkpt>
      <trkpt lat="44.687790870666504" lon="9.184398651123047">
        <ele>1517.578369140625</ele>
        <time>2005-09-23T14:59:48Z</time>
      </trkpt>
      <trkpt lat="44.687769412994385" lon="9.184441566467285">
        <ele>1517.097900390625</ele>
        <time>2005-09-23T14:59:53Z</time>
      </trkpt>
      <trkpt lat="44.687769412994385" lon="9.184463024139404">
        <ele>1518.539794921875</ele>
        <time>2005-09-23T14:59:59Z</time>
      </trkpt>
      <trkpt lat="44.687769412994385" lon="9.184505939483643">
        <ele>1518.539794921875</ele>
        <time>2005-09-23T15:00:02Z</time>
      </trkpt>
      <trkpt lat="44.687726497650146" lon="9.184634685516357">
        <ele>1517.578369140625</ele>
        <time>2005-09-23T15:00:08Z</time>
      </trkpt>
      <trkpt lat="44.687662124633789" lon="9.184720516204834">
        <ele>1517.097900390625</ele>
        <time>2005-09-23T15:00:14Z</time>
      </trkpt>
      <trkpt lat="44.687619209289551" lon="9.184784889221191">
        <ele>1516.136474609375</ele>
        <time>2005-09-23T15:00:21Z</time>
      </trkpt>
      <trkpt lat="44.687597751617432" lon="9.184892177581787">
        <ele>1515.65576171875</ele>
        <time>2005-09-23T15:00:27Z</time>
      </trkpt>
      <trkpt lat="44.687554836273193" lon="9.185020923614502">
        <ele>1515.175048828125</ele>
        <time>2005-09-23T15:00:30Z</time>
      </trkpt>
      <trkpt lat="44.687447547912598" lon="9.185235500335693">
        <ele>1514.6943359375</ele>
        <time>2005-09-23T15:00:38Z</time>
      </trkpt>
      <trkpt lat="44.687426090240479" lon="9.185492992401123">
        <ele>1515.175048828125</ele>
        <time>2005-09-23T15:00:45Z</time>
      </trkpt>
      <trkpt lat="44.68738317489624" lon="9.185771942138672">
        <ele>1515.65576171875</ele>
        <time>2005-09-23T15:00:53Z</time>
      </trkpt>
      <trkpt lat="44.68738317489624" lon="9.185922145843506">
        <ele>1514.6943359375</ele>
        <time>2005-09-23T15:00:56Z</time>
      </trkpt>
      <trkpt lat="44.687404632568359" lon="9.186115264892578">
        <ele>1513.73291015625</ele>
        <time>2005-09-23T15:00:59Z</time>
      </trkpt>
      <trkpt lat="44.687361717224121" lon="9.186415672302246">
        <ele>1513.73291015625</ele>
        <time>2005-09-23T15:01:05Z</time>
      </trkpt>
      <trkpt lat="44.687297344207764" lon="9.186608791351318">
        <ele>1513.25244140625</ele>
        <time>2005-09-23T15:01:11Z</time>
      </trkpt>
      <trkpt lat="44.687190055847168" lon="9.186737537384033">
        <ele>1512.291015625</ele>
        <time>2005-09-23T15:01:16Z</time>
      </trkpt>
      <trkpt lat="44.687125682830811" lon="9.186930656433106">
        <ele>1512.291015625</ele>
        <time>2005-09-23T15:01:23Z</time>
      </trkpt>
      <trkpt lat="44.687061309814453" lon="9.187123775482178">
        <ele>1512.291015625</ele>
        <time>2005-09-23T15:01:30Z</time>
      </trkpt>
      <trkpt lat="44.687082767486572" lon="9.187231063842773">
        <ele>1511.329833984375</ele>
        <time>2005-09-23T15:01:33Z</time>
      </trkpt>
      <trkpt lat="44.687082767486572" lon="9.187359809875488">
        <ele>1510.84912109375</ele>
        <time>2005-09-23T15:01:38Z</time>
      </trkpt>
      <trkpt lat="44.687082767486572" lon="9.187359809875488">
        <ele>1509.8876953125</ele>
        <time>2005-09-23T15:01:45Z</time>
      </trkpt>
      <trkpt lat="44.687039852142334" lon="9.187467098236084">
        <ele>1508.926513671875</ele>
        <time>2005-09-23T15:01:52Z</time>
      </trkpt>
      <trkpt lat="44.687018394470215" lon="9.187488555908203">
        <ele>1508.926513671875</ele>
        <time>2005-09-23T15:01:56Z</time>
      </trkpt>
      <trkpt lat="44.687018394470215" lon="9.187510013580322">
        <ele>1509.4072265625</ele>
        <time>2005-09-23T15:01:57Z</time>
      </trkpt>
      <trkpt lat="44.686954021453857" lon="9.18757438659668">
        <ele>1509.4072265625</ele>
        <time>2005-09-23T15:02:05Z</time>
      </trkpt>
      <trkpt lat="44.686868190765381" lon="9.187703132629395">
        <ele>1509.8876953125</ele>
        <time>2005-09-23T15:02:14Z</time>
      </trkpt>
      <trkpt lat="44.686825275421143" lon="9.187724590301514">
        <ele>1510.84912109375</ele>
        <time>2005-09-23T15:02:20Z</time>
      </trkpt>
      <trkpt lat="44.686825275421143" lon="9.187724590301514">
        <ele>1510.84912109375</ele>
        <time>2005-09-23T15:02:22Z</time>
      </trkpt>
      <trkpt lat="44.686717987060547" lon="9.187767505645752">
        <ele>1510.84912109375</ele>
        <time>2005-09-23T15:02:28Z</time>
      </trkpt>
      <trkpt lat="44.686546325683594" lon="9.187917709350586">
        <ele>1509.8876953125</ele>
        <time>2005-09-23T15:02:35Z</time>
      </trkpt>
      <trkpt lat="44.686417579650879" lon="9.188046455383301">
        <ele>1509.8876953125</ele>
        <time>2005-09-23T15:02:40Z</time>
      </trkpt>
      <trkpt lat="44.686353206634521" lon="9.188282489776611">
        <ele>1510.368408203125</ele>
        <time>2005-09-23T15:02:46Z</time>
      </trkpt>
      <trkpt lat="44.686374664306641" lon="9.18832540512085">
        <ele>1510.368408203125</ele>
        <time>2005-09-23T15:02:47Z</time>
      </trkpt>
      <trkpt lat="44.686374664306641" lon="9.188582897186279">
        <ele>1509.8876953125</ele>
        <time>2005-09-23T15:02:55Z</time>
      </trkpt>
      <trkpt lat="44.686353206634521" lon="9.188797473907471">
        <ele>1509.8876953125</ele>
        <time>2005-09-23T15:03:00Z</time>
      </trkpt>
      <trkpt lat="44.686310291290283" lon="9.188883304595947">
        <ele>1509.8876953125</ele>
        <time>2005-09-23T15:03:05Z</time>
      </trkpt>
      <trkpt lat="44.686310291290283" lon="9.18907642364502">
        <ele>1509.8876953125</ele>
        <time>2005-09-23T15:03:12Z</time>
      </trkpt>
      <trkpt lat="44.686267375946045" lon="9.18931245803833">
        <ele>1509.8876953125</ele>
        <time>2005-09-23T15:03:18Z</time>
      </trkpt>
      <trkpt lat="44.686245918273926" lon="9.189612865447998">
        <ele>1510.368408203125</ele>
        <time>2005-09-23T15:03:26Z</time>
      </trkpt>
      <trkpt lat="44.686224460601807" lon="9.189763069152832">
        <ele>1509.4072265625</ele>
        <time>2005-09-23T15:03:32Z</time>
      </trkpt>
      <trkpt lat="44.686224460601807" lon="9.189848899841309">
        <ele>1509.4072265625</ele>
        <time>2005-09-23T15:03:38Z</time>
      </trkpt>
      <trkpt lat="44.686224460601807" lon="9.189934730529785">
        <ele>1508.44580078125</ele>
        <time>2005-09-23T15:03:44Z</time>
      </trkpt>
      <trkpt lat="44.686224460601807" lon="9.189999103546143">
        <ele>1508.44580078125</ele>
        <time>2005-09-23T15:03:49Z</time>
      </trkpt>
      <trkpt lat="44.686224460601807" lon="9.190084934234619">
        <ele>1509.4072265625</ele>
        <time>2005-09-23T15:03:57Z</time>
      </trkpt>
      <trkpt lat="44.686224460601807" lon="9.190299510955811">
        <ele>1509.8876953125</ele>
        <time>2005-09-23T15:04:05Z</time>
      </trkpt>
      <trkpt lat="44.686267375946045" lon="9.190514087677002">
        <ele>1509.4072265625</ele>
        <time>2005-09-23T15:04:12Z</time>
      </trkpt>
      <trkpt lat="44.686267375946045" lon="9.190685749053955">
        <ele>1508.44580078125</ele>
        <time>2005-09-23T15:04:18Z</time>
      </trkpt>
      <trkpt lat="44.686245918273926" lon="9.190771579742432">
        <ele>1508.926513671875</ele>
        <time>2005-09-23T15:04:25Z</time>
      </trkpt>
      <trkpt lat="44.686203002929688" lon="9.19081449508667">
        <ele>1510.368408203125</ele>
        <time>2005-09-23T15:04:33Z</time>
      </trkpt>
      <trkpt lat="44.686160087585449" lon="9.190793037414551">
        <ele>1510.84912109375</ele>
        <time>2005-09-23T15:04:41Z</time>
      </trkpt>
      <trkpt lat="44.686160087585449" lon="9.190793037414551">
        <ele>1510.84912109375</ele>
        <time>2005-09-23T15:04:43Z</time>
      </trkpt>
      <trkpt lat="44.686074256896973" lon="9.190728664398193">
        <ele>1512.771728515625</ele>
        <time>2005-09-23T15:04:53Z</time>
      </trkpt>
      <trkpt lat="44.686009883880615" lon="9.190707206726074">
        <ele>1513.73291015625</ele>
        <time>2005-09-23T15:05:00Z</time>
      </trkpt>
      <trkpt lat="44.685966968536377" lon="9.190685749053955">
        <ele>1513.73291015625</ele>
        <time>2005-09-23T15:05:06Z</time>
      </trkpt>
      <trkpt lat="44.685795307159424" lon="9.190642833709717">
        <ele>1514.6943359375</ele>
        <time>2005-09-23T15:05:16Z</time>
      </trkpt>
      <trkpt lat="44.685773849487305" lon="9.190642833709717">
        <ele>1514.6943359375</ele>
        <time>2005-09-23T15:05:22Z</time>
      </trkpt>
      <trkpt lat="44.685773849487305" lon="9.190642833709717">
        <ele>1515.65576171875</ele>
        <time>2005-09-23T15:06:02Z</time>
      </trkpt>
      <trkpt lat="44.685752391815186" lon="9.190664291381836">
        <ele>1517.097900390625</ele>
        <time>2005-09-23T15:07:44Z</time>
      </trkpt>
      <trkpt lat="44.685752391815186" lon="9.190685749053955">
        <ele>1515.65576171875</ele>
        <time>2005-09-23T15:07:52Z</time>
      </trkpt>
      <trkpt lat="44.685666561126709" lon="9.190750122070313">
        <ele>1514.6943359375</ele>
        <time>2005-09-23T15:08:37Z</time>
      </trkpt>
      <trkpt lat="44.685537815093994" lon="9.190793037414551">
        <ele>1512.291015625</ele>
        <time>2005-09-23T15:08:43Z</time>
      </trkpt>
      <trkpt lat="44.685494899749756" lon="9.190793037414551">
        <ele>1511.810546875</ele>
        <time>2005-09-23T15:08:45Z</time>
      </trkpt>
      <trkpt lat="44.685473442077637" lon="9.190921783447266">
        <ele>1510.84912109375</ele>
        <time>2005-09-23T15:08:50Z</time>
      </trkpt>
      <trkpt lat="44.685430526733398" lon="9.191050529479981">
        <ele>1510.368408203125</ele>
        <time>2005-09-23T15:08:56Z</time>
      </trkpt>
      <trkpt lat="44.685430526733398" lon="9.191050529479981">
        <ele>1509.8876953125</ele>
        <time>2005-09-23T15:08:59Z</time>
      </trkpt>
      <trkpt lat="44.685366153717041" lon="9.190964698791504">
        <ele>1508.926513671875</ele>
        <time>2005-09-23T15:09:08Z</time>
      </trkpt>
      <trkpt lat="44.685344696044922" lon="9.190943241119385">
        <ele>1508.44580078125</ele>
        <time>2005-09-23T15:09:14Z</time>
      </trkpt>
      <trkpt lat="44.685280323028564" lon="9.190900325775147">
        <ele>1509.8876953125</ele>
        <time>2005-09-23T15:09:21Z</time>
      </trkpt>
      <trkpt lat="44.685173034667969" lon="9.190835952758789">
        <ele>1509.8876953125</ele>
        <time>2005-09-23T15:09:30Z</time>
      </trkpt>
      <trkpt lat="44.685044288635254" lon="9.190921783447266">
        <ele>1508.926513671875</ele>
        <time>2005-09-23T15:09:36Z</time>
      </trkpt>
      <trkpt lat="44.684851169586182" lon="9.190900325775147">
        <ele>1507.96533203125</ele>
        <time>2005-09-23T15:09:42Z</time>
      </trkpt>
      <trkpt lat="44.684700965881348" lon="9.190878868103027">
        <ele>1507.00390625</ele>
        <time>2005-09-23T15:09:48Z</time>
      </trkpt>
      <trkpt lat="44.684572219848633" lon="9.191007614135742">
        <ele>1505.56201171875</ele>
        <time>2005-09-23T15:09:54Z</time>
      </trkpt>
      <trkpt lat="44.684507846832275" lon="9.191007614135742">
        <ele>1505.56201171875</ele>
        <time>2005-09-23T15:09:57Z</time>
      </trkpt>
      <trkpt lat="44.684314727783203" lon="9.191093444824219">
        <ele>1504.1201171875</ele>
        <time>2005-09-23T15:10:05Z</time>
      </trkpt>
      <trkpt lat="44.684164524078369" lon="9.191179275512695">
        <ele>1503.639404296875</ele>
        <time>2005-09-23T15:10:10Z</time>
      </trkpt>
      <trkpt lat="44.683971405029297" lon="9.191243648529053">
        <ele>1503.15869140625</ele>
        <time>2005-09-23T15:10:18Z</time>
      </trkpt>
      <trkpt lat="44.683821201324463" lon="9.191114902496338">
        <ele>1504.1201171875</ele>
        <time>2005-09-23T15:10:24Z</time>
      </trkpt>
      <trkpt lat="44.683713912963867" lon="9.1910719871521">
        <ele>1505.56201171875</ele>
        <time>2005-09-23T15:10:29Z</time>
      </trkpt>
      <trkpt lat="44.683670997619629" lon="9.191050529479981">
        <ele>1506.04248046875</ele>
        <time>2005-09-23T15:10:33Z</time>
      </trkpt>
      <trkpt lat="44.683585166931152" lon="9.190964698791504">
        <ele>1507.00390625</ele>
        <time>2005-09-23T15:10:44Z</time>
      </trkpt>
      <trkpt lat="44.683413505554199" lon="9.190900325775147">
        <ele>1507.484619140625</ele>
        <time>2005-09-23T15:10:53Z</time>
      </trkpt>
      <trkpt lat="44.683349132537842" lon="9.190878868103027">
        <ele>1507.96533203125</ele>
        <time>2005-09-23T15:10:57Z</time>
      </trkpt>
      <trkpt lat="44.683306217193604" lon="9.190878868103027">
        <ele>1507.96533203125</ele>
        <time>2005-09-23T15:11:02Z</time>
      </trkpt>
      <trkpt lat="44.683241844177246" lon="9.190943241119385">
        <ele>1508.44580078125</ele>
        <time>2005-09-23T15:11:13Z</time>
      </trkpt>
      <trkpt lat="44.683263301849365" lon="9.190900325775147">
        <ele>1507.484619140625</ele>
        <time>2005-09-23T15:11:17Z</time>
      </trkpt>
      <trkpt lat="44.683263301849365" lon="9.190857410430908">
        <ele>1506.523193359375</ele>
        <time>2005-09-23T15:11:24Z</time>
      </trkpt>
      <trkpt lat="44.683113098144531" lon="9.190900325775147">
        <ele>1503.639404296875</ele>
        <time>2005-09-23T15:11:29Z</time>
      </trkpt>
      <trkpt lat="44.682984352111816" lon="9.1910719871521">
        <ele>1501.716796875</ele>
        <time>2005-09-23T15:11:32Z</time>
      </trkpt>
      <trkpt lat="44.682705402374268" lon="9.19130802154541">
        <ele>1497.871337890625</ele>
        <time>2005-09-23T15:11:39Z</time>
      </trkpt>
      <trkpt lat="44.682555198669434" lon="9.191222190856934">
        <ele>1495.468017578125</ele>
        <time>2005-09-23T15:11:43Z</time>
      </trkpt>
      <trkpt lat="44.682340621948242" lon="9.191136360168457">
        <ele>1493.064697265625</ele>
        <time>2005-09-23T15:11:48Z</time>
      </trkpt>
      <trkpt lat="44.682061672210693" lon="9.191136360168457">
        <ele>1494.506591796875</ele>
        <time>2005-09-23T15:11:56Z</time>
      </trkpt>
      <trkpt lat="44.681911468505859" lon="9.191179275512695">
        <ele>1494.026123046875</ele>
        <time>2005-09-23T15:12:02Z</time>
      </trkpt>
      <trkpt lat="44.68165397644043" lon="9.191200733184815">
        <ele>1495.468017578125</ele>
        <time>2005-09-23T15:12:12Z</time>
      </trkpt>
      <trkpt lat="44.681396484375" lon="9.191157817840576">
        <ele>1495.94873046875</ele>
        <time>2005-09-23T15:12:21Z</time>
      </trkpt>
      <trkpt lat="44.681224822998047" lon="9.1910719871521">
        <ele>1496.909912109375</ele>
        <time>2005-09-23T15:12:27Z</time>
      </trkpt>
      <trkpt lat="44.681031703948975" lon="9.191114902496338">
        <ele>1497.871337890625</ele>
        <time>2005-09-23T15:12:34Z</time>
      </trkpt>
      <trkpt lat="44.680774211883545" lon="9.191136360168457">
        <ele>1498.351806640625</ele>
        <time>2005-09-23T15:12:44Z</time>
      </trkpt>
      <trkpt lat="44.680302143096924" lon="9.191265106201172">
        <ele>1500.75537109375</ele>
        <time>2005-09-23T15:13:03Z</time>
      </trkpt>
      <trkpt lat="44.680130481719971" lon="9.191157817840576">
        <ele>1501.716796875</ele>
        <time>2005-09-23T15:13:17Z</time>
      </trkpt>
      <trkpt lat="44.680066108703613" lon="9.191179275512695">
        <ele>1503.15869140625</ele>
        <time>2005-09-23T15:13:29Z</time>
      </trkpt>
      <trkpt lat="44.680044651031494" lon="9.191243648529053">
        <ele>1502.197265625</ele>
        <time>2005-09-23T15:13:35Z</time>
      </trkpt>
      <trkpt lat="44.680044651031494" lon="9.191436767578125">
        <ele>1500.75537109375</ele>
        <time>2005-09-23T15:13:47Z</time>
      </trkpt>
      <trkpt lat="44.680001735687256" lon="9.191672801971436">
        <ele>1502.197265625</ele>
        <time>2005-09-23T15:13:57Z</time>
      </trkpt>
      <trkpt lat="44.680023193359375" lon="9.19180154800415">
        <ele>1501.236083984375</ele>
        <time>2005-09-23T15:14:02Z</time>
      </trkpt>
      <trkpt lat="44.679980278015137" lon="9.192037582397461">
        <ele>1500.27490234375</ele>
        <time>2005-09-23T15:14:11Z</time>
      </trkpt>
      <trkpt lat="44.679937362670898" lon="9.192187786102295">
        <ele>1498.351806640625</ele>
        <time>2005-09-23T15:14:14Z</time>
      </trkpt>
      <trkpt lat="44.679830074310303" lon="9.19257402420044">
        <ele>1496.429443359375</ele>
        <time>2005-09-23T15:14:20Z</time>
      </trkpt>
      <trkpt lat="44.679765701293945" lon="9.192895889282227">
        <ele>1498.351806640625</ele>
        <time>2005-09-23T15:14:27Z</time>
      </trkpt>
      <trkpt lat="44.67965841293335" lon="9.193110466003418">
        <ele>1499.313232421875</ele>
        <time>2005-09-23T15:14:36Z</time>
      </trkpt>
      <trkpt lat="44.679486751556396" lon="9.19330358505249">
        <ele>1498.83251953125</ele>
        <time>2005-09-23T15:14:48Z</time>
      </trkpt>
      <trkpt lat="44.679465293884277" lon="9.193453788757324">
        <ele>1498.83251953125</ele>
        <time>2005-09-23T15:14:54Z</time>
      </trkpt>
      <trkpt lat="44.679486751556396" lon="9.193625450134277">
        <ele>1499.313232421875</ele>
        <time>2005-09-23T15:15:01Z</time>
      </trkpt>
      <trkpt lat="44.679443836212158" lon="9.193754196166992">
        <ele>1499.7939453125</ele>
        <time>2005-09-23T15:15:06Z</time>
      </trkpt>
      <trkpt lat="44.67940092086792" lon="9.193968772888184">
        <ele>1499.313232421875</ele>
        <time>2005-09-23T15:15:14Z</time>
      </trkpt>
      <trkpt lat="44.679358005523682" lon="9.19405460357666">
        <ele>1498.83251953125</ele>
        <time>2005-09-23T15:15:20Z</time>
      </trkpt>
      <trkpt lat="44.679293632507324" lon="9.194097518920898">
        <ele>1499.7939453125</ele>
        <time>2005-09-23T15:15:28Z</time>
      </trkpt>
      <trkpt lat="44.679229259490967" lon="9.194183349609375">
        <ele>1501.716796875</ele>
        <time>2005-09-23T15:15:39Z</time>
      </trkpt>
      <trkpt lat="44.679186344146729" lon="9.194226264953613">
        <ele>1502.677978515625</ele>
        <time>2005-09-23T15:15:46Z</time>
      </trkpt>
      <trkpt lat="44.679164886474609" lon="9.194269180297852">
        <ele>1503.639404296875</ele>
        <time>2005-09-23T15:15:54Z</time>
      </trkpt>
      <trkpt lat="44.67914342880249" lon="9.194290637969971">
        <ele>1504.1201171875</ele>
        <time>2005-09-23T15:16:07Z</time>
      </trkpt>
      <trkpt lat="44.679186344146729" lon="9.194419384002686">
        <ele>1506.04248046875</ele>
        <time>2005-09-23T15:16:19Z</time>
      </trkpt>
      <trkpt lat="44.679186344146729" lon="9.19456958770752">
        <ele>1507.96533203125</ele>
        <time>2005-09-23T15:16:31Z</time>
      </trkpt>
      <trkpt lat="44.679186344146729" lon="9.194676876068115">
        <ele>1508.926513671875</ele>
        <time>2005-09-23T15:16:40Z</time>
      </trkpt>
      <trkpt lat="44.679186344146729" lon="9.19480562210083">
        <ele>1510.368408203125</ele>
        <time>2005-09-23T15:16:51Z</time>
      </trkpt>
      <trkpt lat="44.679207801818848" lon="9.194955825805664">
        <ele>1512.291015625</ele>
        <time>2005-09-23T15:17:03Z</time>
      </trkpt>
      <trkpt lat="44.679229259490967" lon="9.195084571838379">
        <ele>1513.73291015625</ele>
        <time>2005-09-23T15:17:14Z</time>
      </trkpt>
      <trkpt lat="44.679250717163086" lon="9.195213317871094">
        <ele>1514.213623046875</ele>
        <time>2005-09-23T15:17:26Z</time>
      </trkpt>
      <trkpt lat="44.679250717163086" lon="9.195363521575928">
        <ele>1513.73291015625</ele>
        <time>2005-09-23T15:17:39Z</time>
      </trkpt>
      <trkpt lat="44.679272174835205" lon="9.195556640625">
        <ele>1515.65576171875</ele>
        <time>2005-09-23T15:17:54Z</time>
      </trkpt>
      <trkpt lat="44.679293632507324" lon="9.195663928985596">
        <ele>1517.578369140625</ele>
        <time>2005-09-23T15:18:05Z</time>
      </trkpt>
      <trkpt lat="44.679315090179443" lon="9.195771217346191">
        <ele>1519.0205078125</ele>
        <time>2005-09-23T15:18:16Z</time>
      </trkpt>
      <trkpt lat="44.679315090179443" lon="9.195835590362549">
        <ele>1519.0205078125</ele>
        <time>2005-09-23T15:18:25Z</time>
      </trkpt>
      <trkpt lat="44.679358005523682" lon="9.195921421051025">
        <ele>1519.501220703125</ele>
        <time>2005-09-23T15:18:33Z</time>
      </trkpt>
      <trkpt lat="44.679315090179443" lon="9.195985794067383">
        <ele>1520.46240234375</ele>
        <time>2005-09-23T15:18:42Z</time>
      </trkpt>
      <trkpt lat="44.679293632507324" lon="9.195985794067383">
        <ele>1520.46240234375</ele>
        <time>2005-09-23T15:18:51Z</time>
      </trkpt>
      <trkpt lat="44.679293632507324" lon="9.195985794067383">
        <ele>1521.904296875</ele>
        <time>2005-09-23T15:19:07Z</time>
      </trkpt>
      <trkpt lat="44.679079055786133" lon="9.195942878723145">
        <ele>1522.86572265625</ele>
        <time>2005-09-23T15:19:24Z</time>
      </trkpt>
      <trkpt lat="44.67890739440918" lon="9.195878505706787">
        <ele>1522.385009765625</ele>
        <time>2005-09-23T15:19:34Z</time>
      </trkpt>
      <trkpt lat="44.678714275360107" lon="9.195835590362549">
        <ele>1524.3076171875</ele>
        <time>2005-09-23T15:19:45Z</time>
      </trkpt>
      <trkpt lat="44.678456783294678" lon="9.195771217346191">
        <ele>1522.385009765625</ele>
        <time>2005-09-23T15:19:58Z</time>
      </trkpt>
      <trkpt lat="44.678134918212891" lon="9.195792675018311">
        <ele>1520.46240234375</ele>
        <time>2005-09-23T15:20:11Z</time>
      </trkpt>
      <trkpt lat="44.677877426147461" lon="9.195792675018311">
        <ele>1519.0205078125</ele>
        <time>2005-09-23T15:20:21Z</time>
      </trkpt>
      <trkpt lat="44.67766284942627" lon="9.196028709411621">
        <ele>1517.097900390625</ele>
        <time>2005-09-23T15:20:33Z</time>
      </trkpt>
      <trkpt lat="44.677448272705078" lon="9.19630765914917">
        <ele>1516.6171875</ele>
        <time>2005-09-23T15:20:41Z</time>
      </trkpt>
      <trkpt lat="44.67740535736084" lon="9.196350574493408">
        <ele>1516.6171875</ele>
        <time>2005-09-23T15:20:42Z</time>
      </trkpt>
      <trkpt lat="44.677169322967529" lon="9.196715354919434">
        <ele>1515.175048828125</ele>
        <time>2005-09-23T15:20:51Z</time>
      </trkpt>
      <trkpt lat="44.677062034606934" lon="9.197165966033936">
        <ele>1515.175048828125</ele>
        <time>2005-09-23T15:21:02Z</time>
      </trkpt>
      <trkpt lat="44.676868915557861" lon="9.19755220413208">
        <ele>1513.25244140625</ele>
        <time>2005-09-23T15:21:15Z</time>
      </trkpt>
      <trkpt lat="44.676740169525146" lon="9.197745323181152">
        <ele>1510.368408203125</ele>
        <time>2005-09-23T15:21:24Z</time>
      </trkpt>
      <trkpt lat="44.676611423492432" lon="9.198024272918701">
        <ele>1507.96533203125</ele>
        <time>2005-09-23T15:21:35Z</time>
      </trkpt>
      <trkpt lat="44.676439762115479" lon="9.198153018951416">
        <ele>1507.484619140625</ele>
        <time>2005-09-23T15:21:44Z</time>
      </trkpt>
      <trkpt lat="44.676289558410645" lon="9.198238849639893">
        <ele>1508.44580078125</ele>
        <time>2005-09-23T15:21:53Z</time>
      </trkpt>
      <trkpt lat="44.676074981689453" lon="9.198260307312012">
        <ele>1506.523193359375</ele>
        <time>2005-09-23T15:22:01Z</time>
      </trkpt>
      <trkpt lat="44.675817489624023" lon="9.198431968688965">
        <ele>1504.6005859375</ele>
        <time>2005-09-23T15:22:06Z</time>
      </trkpt>
      <trkpt lat="44.675624370574951" lon="9.19830322265625">
        <ele>1504.1201171875</ele>
        <time>2005-09-23T15:22:11Z</time>
      </trkpt>
      <trkpt lat="44.675452709197998" lon="9.198324680328369">
        <ele>1503.639404296875</ele>
        <time>2005-09-23T15:22:16Z</time>
      </trkpt>
      <trkpt lat="44.67515230178833" lon="9.198517799377441">
        <ele>1502.677978515625</ele>
        <time>2005-09-23T15:22:26Z</time>
      </trkpt>
      <trkpt lat="44.674808979034424" lon="9.198732376098633">
        <ele>1502.197265625</ele>
        <time>2005-09-23T15:22:37Z</time>
      </trkpt>
      <trkpt lat="44.674508571624756" lon="9.198946952819824">
        <ele>1503.639404296875</ele>
        <time>2005-09-23T15:22:47Z</time>
      </trkpt>
      <trkpt lat="44.674315452575684" lon="9.199225902557373">
        <ele>1503.15869140625</ele>
        <time>2005-09-23T15:22:54Z</time>
      </trkpt>
      <trkpt lat="44.673993587493896" lon="9.199826717376709">
        <ele>1502.677978515625</ele>
        <time>2005-09-23T15:23:05Z</time>
      </trkpt>
      <trkpt lat="44.67390775680542" lon="9.200019836425781">
        <ele>1502.197265625</ele>
        <time>2005-09-23T15:23:08Z</time>
      </trkpt>
      <trkpt lat="44.673714637756348" lon="9.200277328491211">
        <ele>1502.677978515625</ele>
        <time>2005-09-23T15:23:12Z</time>
      </trkpt>
      <trkpt lat="44.673521518707275" lon="9.200470447540283">
        <ele>1502.197265625</ele>
        <time>2005-09-23T15:23:15Z</time>
      </trkpt>
      <trkpt lat="44.673199653625488" lon="9.200985431671143">
        <ele>1500.27490234375</ele>
        <time>2005-09-23T15:23:21Z</time>
      </trkpt>
      <trkpt lat="44.672985076904297" lon="9.201178550720215">
        <ele>1497.871337890625</ele>
        <time>2005-09-23T15:23:26Z</time>
      </trkpt>
      <trkpt lat="44.672963619232178" lon="9.201242923736572">
        <ele>1497.390625</ele>
        <time>2005-09-23T15:23:28Z</time>
      </trkpt>
      <trkpt lat="44.672942161560059" lon="9.201350212097168">
        <ele>1496.909912109375</ele>
        <time>2005-09-23T15:23:34Z</time>
      </trkpt>
      <trkpt lat="44.672920703887939" lon="9.201371669769287">
        <ele>1496.429443359375</ele>
        <time>2005-09-23T15:23:45Z</time>
      </trkpt>
      <trkpt lat="44.672963619232178" lon="9.201393127441406">
        <ele>1490.661376953125</ele>
        <time>2005-09-23T15:24:39Z</time>
      </trkpt>
      <trkpt lat="44.672963619232178" lon="9.201393127441406">
        <ele>1490.661376953125</ele>
        <time>2005-09-23T15:24:40Z</time>
      </trkpt>
      <trkpt lat="44.672985076904297" lon="9.201457500457764">
        <ele>1489.7001953125</ele>
        <time>2005-09-23T15:24:46Z</time>
      </trkpt>
      <trkpt lat="44.672942161560059" lon="9.201521873474121">
        <ele>1489.7001953125</ele>
        <time>2005-09-23T15:24:57Z</time>
      </trkpt>
      <trkpt lat="44.672942161560059" lon="9.20154333114624">
        <ele>1486.816162109375</ele>
        <time>2005-09-23T15:25:42Z</time>
      </trkpt>
      <trkpt lat="44.672942161560059" lon="9.20154333114624">
        <ele>1485.85498046875</ele>
        <time>2005-09-23T15:27:14Z</time>
      </trkpt>
    </trkseg>
  </trk>

</gpx>
